[[{"header":{"parameterUnit":"m.s-1","parameterCategory":1,"la1":30.6,"la2":28.766,"lo1":-90.7593,"lo2":-88.6598,"dy":0.0162,"dx":0.0183,"nx":116,"ny":114,"refTime":"2023-05-13T06:00:00:Z","depth":0,"parameterNumber":2,"parameterNumberName":"U-component_of_WINDS"},"data":[0.0,0.0,0.0,0.0,0.0,0.0,0.0,0.0,0.0,0.0,0.0,0.0,0.0,0.0,0.0,0.0,0.0,0.0,0.0,0.0,0.0,0.0,0.0,0.0,0.0,0.0,0.0,0.0,0.0,0.0,0.0,0.0,0.0,0.0,0.0,0.0,0.0,0.0,0.0,0.0,0.0,0.0,0.0,0.0,0.0,0.0,0.0,0.0,0.0,0.0,0.0,0.0,0.0,0.0,0.0,0.0,0.0,0.0,0.0,0.0,0.0,0.0,0.0,0.0,0.0,0.0,0.0,0.0,0.0,0.0,0.0,0.0,0.0,0.0,0.0,0.0,0.0,0.0,0.0,0.0,0.0,0.0,0.0,0.0,0.0,0.0,0.0,0.0,0.0,0.0,0.0,0.0,0.0,0.0,0.0,0.0,0.0,0.0,0.0,0.0,0.0,0.0,0.0,0.0,0.0,0.0,0.0,0.0,0.0,0.0,0.0,0.0,0.0,0.0,0.0,0.0,0.0,0.0,0.0,0.0,0.0,0.0,0.0,0.0,0.0,0.0,0.0,0.0,0.0,0.0,0.0,0.0,0.0,0.0,0.0,0.0,0.0,0.0,0.0,0.0,0.0,0.0,0.0,0.0,0.0,0.0,0.0,0.0,0.0,0.0,0.0,0.0,0.0,0.0,0.0,0.0,0.0,0.0,0.0,0.0,0.0,0.0,0.0,0.0,0.0,0.0,0.0,0.0,0.0,0.0,0.0,0.0,0.0,0.0,0.0,0.0,0.0,0.0,0.0,0.0,0.0,0.0,0.0,0.0,0.0,0.0,0.0,0.0,0.0,0.0,0.0,0.0,0.0,0.0,0.0,0.0,0.0,0.0,0.0,0.0,0.0,0.0,0.0,0.0,0.0,0.0,0.0,0.0,0.0,0.0,0.0,0.0,0.0,0.0,0.0,0.0,0.0,0.0,0.0,0.0,0.0,0.0,0.0,0.0,0.0,0.0,0.0,0.0,0.0,0.0,0.0,0.0,0.0,0.0,0.0,0.0,0.0,0.0,0.0,0.0,0.0,0.0,0.0,0.0,0.0,0.0,0.0,0.0,0.0,0.0,0.0,0.0,0.0,0.0,0.0,0.0,0.0,0.0,0.0,0.0,0.0,0.0,0.0,0.0,0.0,0.0,0.0,0.0,0.0,0.0,0.0,0.0,0.0,0.0,0.0,0.0,0.0,0.0,0.0,0.0,0.0,0.0,0.0,0.0,0.0,0.0,0.0,0.0,0.0,0.0,0.0,0.0,0.0,0.0,0.0,0.0,0.0,0.0,0.0,0.0,0.0,0.0,0.0,0.0,0.0,0.0,0.0,0.0,0.0,0.0,0.0,0.0,0.0,0.0,0.0,0.0,0.0,0.0,0.0,0.0,0.0,0.0,0.0,0.0,0.0,0.0,0.0,0.0,0.0,0.0,0.0,0.0,0.0,0.0,0.0,0.0,0.0,0.0,0.0,0.0,0.0,0.0,0.0,0.0,0.0,0.0,0.0,0.0,0.0,0.0,0.0,0.0,0.0,0.0,0.0,0.0,0.0,0.0,0.0,0.0,0.0,0.0,0.0,0.0,0.0,0.0,0.0,0.0,0.0,0.0,0.0,0.0,0.0,0.0,0.0,0.0,0.0,0.0,0.0,0.0,0.0,0.0,0.0,0.0,0.0,0.0,0.0,0.0,0.0,0.0,0.0,0.0,0.0,0.0,0.0,0.0,0.0,0.0,0.0,0.0,0.0,0.0,0.0,0.0,0.0,0.0,0.0,0.0,0.0,0.0,0.0,0.0,0.0,0.0,0.0,0.0,0.0,0.0,0.0,0.0,0.0,0.0,0.0,0.0,0.0,0.0,0.0,0.0,0.0,0.0,0.0,0.0,0.0,0.0,0.0,0.0,0.0,0.0,0.0,0.0,0.0,0.0,0.0,0.0,0.0,0.0,0.0,0.0,0.0,0.0,0.0,0.0,0.0,0.0,0.0,0.0,0.0,0.0,0.0,0.0,0.0,0.0,0.0,0.0,0.0,0.0,0.0,0.0,0.0,0.0,0.0,0.0,0.0,0.0,0.0,0.0,0.0,0.0,0.0,0.0,0.0,0.0,0.0,0.0,0.0,0.0,0.0,0.0,0.0,0.0,0.0,0.0,0.0,0.0,0.0,0.0,0.0,0.0,0.0,0.0,0.0,0.0,0.0,0.0,0.0,0.0,0.0,0.0,0.0,0.0,0.0,0.0,0.0,0.0,0.0,0.0,0.0,0.0,0.0,0.0,0.0,0.0,0.0,0.0,0.0,0.0,0.0,0.0,0.0,0.0,0.0,0.0,0.0,0.0,0.0,0.0,0.0,0.0,0.0,0.0,0.0,0.0,0.0,0.0,0.0,0.0,0.0,0.0,0.0,0.0,0.0,0.0,0.0,0.0,0.0,0.0,0.0,0.0,0.0,0.0,0.0,0.0,0.0,0.0,0.0,0.0,0.0,0.0,0.0,0.0,0.0,0.0,0.0,0.0,0.0,0.0,0.0,0.0,0.0,0.0,0.0,0.0,0.0,0.0,0.0,0.0,0.0,0.0,0.0,0.0,0.0,0.0,0.0,0.0,0.0,0.0,0.0,0.0,0.0,0.0,0.0,0.0,0.0,0.0,0.0,0.0,0.0,0.0,0.0,0.0,0.0,0.0,0.0,0.0,0.0,0.0,0.0,0.0,0.0,0.0,0.0,0.0,0.0,0.0,0.0,0.0,0.0,0.0,0.0,0.0,0.0,0.0,0.0,0.0,0.0,0.0,0.0,0.0,0.0,0.0,0.0,0.0,0.0,0.0,0.0,0.0,0.0,0.0,0.0,0.0,0.0,0.0,0.0,0.0,0.0,0.0,0.0,0.0,0.0,0.0,0.0,0.0,0.0,0.0,0.0,0.0,0.0,0.0,0.0,0.0,0.0,0.0,0.0,0.0,0.0,0.0,0.0,0.0,0.0,0.0,0.0,0.0,0.0,0.0,0.0,0.0,0.0,0.0,0.0,0.0,0.0,0.0,0.0,0.0,0.0,0.0,0.0,0.0,0.0,0.0,0.0,0.0,0.0,0.0,0.0,0.0,0.0,0.0,0.0,0.0,0.0,0.0,0.0,0.0,0.0,0.0,0.0,0.0,0.0,0.0,0.0,0.0,0.0,0.0,0.0,0.0,0.0,0.0,0.0,0.0,0.0,0.0,0.0,0.0,0.0,0.0,0.0,0.0,0.0,0.0,0.0,0.0,0.0,0.0,0.0,0.0,0.0,0.0,0.0,0.0,0.0,0.0,0.0,0.0,0.0,0.0,0.0,0.0,0.0,0.0,0.0,0.0,0.0,0.0,0.0,0.0,0.0,0.0,0.0,0.0,0.0,0.0,0.0,0.0,0.0,0.0,0.0,0.0,0.0,0.0,0.0,0.0,0.0,0.0,0.0,0.0,0.0,0.0,0.0,0.0,0.0,0.0,0.0,0.0,0.0,0.0,0.0,0.0,0.0,0.0,0.0,0.0,0.0,0.0,0.0,0.0,0.0,0.0,0.0,0.0,0.0,0.0,0.0,0.0,0.0,0.0,0.0,0.0,0.0,0.0,0.0,0.0,0.0,0.0,0.0,0.0,0.0,0.0,0.0,0.0,0.0,0.0,0.0,0.0,0.0,0.0,0.0,0.0,0.0,0.0,0.0,0.0,0.0,0.0,0.0,0.0,0.0,0.0,0.0,0.0,0.0,0.0,0.0,0.0,0.0,0.0,0.0,0.0,0.0,0.0,0.0,0.0,0.0,0.0,0.0,0.0,0.0,0.0,0.0,0.0,0.0,0.0,0.0,0.0,0.0,0.0,0.0,0.0,0.0,0.0,0.0,0.0,0.0,0.0,0.0,0.0,0.0,0.0,0.0,0.0,0.0,0.0,0.0,0.0,0.0,0.0,0.0,0.0,0.0,0.0,0.0,0.0,0.0,0.0,0.0,0.0,0.0,0.0,0.0,0.0,0.0,0.0,0.0,0.0,0.0,0.0,0.0,0.0,0.0,0.0,0.0,0.0,0.0,0.0,0.0,0.0,0.0,0.0,0.0,0.0,0.0,0.0,0.0,0.0,0.0,0.0,0.0,0.0,0.0,0.0,0.0,0.0,0.0,0.0,0.0,0.0,0.0,0.0,0.0,0.0,0.0,0.0,0.0,0.0,0.0,0.0,0.0,0.0,0.0,0.0,0.0,0.0,0.0,0.0,0.0,0.0,0.0,0.0,0.0,0.0,0.0,0.0,0.0,0.0,0.0,0.0,0.0,0.0,0.0,0.0,0.0,0.0,0.0,0.0,0.0,0.0,0.0,0.0,0.0,0.0,0.0,0.0,0.0,0.0,0.0,0.0,0.0,0.0,0.0,0.0,0.0,0.0,0.0,0.0,0.0,0.0,0.0,0.0,0.0,0.0,0.0,0.0,0.0,0.0,0.0,0.0,0.0,0.0,0.0,0.0,0.0,0.0,0.0,0.0,0.0,0.0,0.0,0.0,0.0,0.0,0.0,0.0,0.0,0.0,0.0,0.0,0.0,0.0,0.0,0.0,0.0,0.0,0.0,0.0,0.0,0.0,0.0,0.0,0.0,0.0,0.0,0.0,0.0,0.0,0.0,0.0,0.0,0.0,0.0,0.0,0.0,0.0,0.0,0.0,0.0,0.0,0.0,0.0,0.0,0.0,0.0,0.0,0.0,0.0,0.0,0.0,0.0,0.0,0.0,0.0,0.0,0.0,0.0,0.0,0.0,0.0,0.0,0.0,0.0,0.0,0.0,0.0,0.0,0.0,0.0,0.0,0.0,0.0,0.0,0.0,0.0,0.0,0.0,0.0,0.0,0.0,0.0,0.0,0.0,0.0,0.0,0.0,0.0,0.0,0.0,0.0,0.0,0.0,0.0,0.0,0.0,0.0,0.0,0.0,0.0,0.0,0.0,0.0,0.0,0.0,0.0,0.0,0.0,0.0,0.0,0.0,0.0,0.0,0.0,0.0,0.0,0.0,0.0,0.0,0.0,0.0,0.0,0.0,0.0,0.0,0.0,0.0,0.0,0.0,0.0,0.0,0.0,0.0,0.0,0.0,0.0,0.0,0.0,0.0,0.0,0.0,0.0,0.0,0.0,0.0,0.0,0.0,0.0,0.0,0.0,0.0,0.0,0.0,0.0,0.0,0.0,0.0,0.0,0.0,0.0,0.0,0.0,0.0,0.0,0.0,0.0,0.0,0.0,0.0,0.0,0.0,0.0,0.0,0.0,0.0,0.0,0.0,0.0,0.0,0.0,0.0,0.0,0.0,0.0,0.0,0.0,0.0,0.0,0.0,0.0,0.0,0.0,0.0,0.0,0.0,0.0,0.0,0.0,0.0,0.0,0.0,0.0,0.0,0.0,0.0,0.0,0.0,0.0,0.0,0.0,0.0,0.0,0.0,0.0,0.0,0.0,0.0,0.0,0.0,0.0,0.0,0.0,0.0,0.0,0.0,0.0,0.0,0.0,0.0,0.0,0.0,0.0,0.0,0.0,0.0,0.0,0.0,0.0,0.0,0.0,0.0,0.0,0.0,0.0,0.0,0.0,0.0,0.0,0.0,0.0,0.0,0.0,0.0,0.0,0.0,0.0,0.0,0.0,0.0,0.0,0.0,0.0,0.0,0.0,0.0,0.0,0.0,0.0,0.0,0.0,0.0,0.0,0.0,0.0,0.0,0.0,0.0,0.0,0.0,0.0,0.0,0.0,0.0,0.0,0.0,0.0,0.0,0.0,0.0,0.0,0.0,0.0,0.0,0.0,0.0,0.0,0.0,0.0,0.0,0.0,0.0,0.0,0.0,0.0,0.0,0.0,0.0,0.0,0.0,0.0,0.0,0.0,0.0,0.0,0.0,0.0,0.0,0.0,0.0,0.0,0.0,0.0,0.0,0.0,0.0,0.0,0.0,0.0,0.0,0.0,0.0,0.0,0.0,0.0,0.0,0.0,0.0,0.0,0.0,0.0,0.0,0.0,0.0,0.0,0.0,0.0,0.0,0.0,0.0,0.0,0.0,0.0,0.0,0.0,0.0,0.8919,0.0,0.0,0.0,0.0,0.0,0.0,0.0,0.0,0.0,0.0,0.0,0.0,0.0,0.0,0.0,0.0,0.0,0.0,0.0,0.0,0.0,0.0,0.0,0.0,0.0,0.0,0.0,0.0,0.0,0.0,0.0,0.0,0.0,0.0,0.0,0.0,0.0,0.0,0.2631,0.2713,0.2886,0.3163,0.3853,0.4348,0.4698,0.0,0.0,0.0,0.0,0.0,0.0,0.0,0.0,0.0,0.0,0.0,0.0,0.0,0.0,0.0,0.0,0.0,0.0,0.0,0.0,0.0,0.0,0.0,0.0,0.0,0.0,0.0,0.0,0.0,0.0,0.0,0.0,0.0,0.0,0.0,0.0,0.0,0.0,0.0,0.0,0.0,0.0,0.0,0.0,0.0,0.0,0.0,0.0,0.0,0.0,0.0,0.0,0.0,0.0,0.0,0.0,0.0,0.0,0.0,0.0,0.0,0.0,0.0,0.0,0.0,0.0,0.0,0.0,0.0,0.0,0.0,0.8761,0.0,0.0,0.0,0.0,0.0,0.0,0.0,0.0,0.0,0.0,0.0,0.0,0.0,0.0,0.0,0.0,0.0,0.0,0.0,0.0,0.0,0.0,0.0,0.1055,0.143,0.1463,0.1909,0.2062,0.0,0.0,0.0,0.0,0.0,0.0,0.2139,0.1702,0.1519,0.1576,0.1658,0.1957,0.2462,0.2935,0.3269,0.3494,0.3944,0.0,0.0,0.0,0.0,0.0,0.0,0.0,0.0,0.0,0.0,0.0,0.0,0.0,0.0,0.0,0.0,0.0,0.0,0.0,0.0,0.0,0.0,0.0,0.0,0.0,0.0,0.0,0.0,0.0,0.0,0.0,0.0,0.0,0.0,0.0,0.0,0.0,0.0,0.0,0.0,0.0,0.0,0.0,0.0,0.0,0.0,0.0,0.0,0.0,0.0,0.0,0.0,0.0,0.0,0.0,0.0,0.0,0.0,0.0,0.0,0.0,0.0,0.0,0.877,0.8223,0.7521,0.8154,0.8131,0.7606,0.8057,0.8274,0.8293,0.8319,0.0,0.0,0.0,0.0,0.0,0.0,0.0,0.0,0.0,0.0,0.0,0.0,0.0,0.0,0.0,0.0,0.0,0.0,0.0,0.0,-0.0172,0.0109,0.0349,0.0482,0.1014,0.1331,0.1287,0.0,0.0,0.0,0.0,0.0,0.1531,0.1187,0.0998,0.0989,0.092,0.0815,0.0758,0.1731,0.2197,0.2297,0.349,0.4502,0.5262,0.0,0.0,0.0,0.0,0.0,0.0,0.0,0.0,0.0,0.0,0.0,0.0,0.0,0.0,0.0,0.0,0.0,0.0,0.0,0.0,0.0,0.0,0.0,0.0,0.0,0.0,0.0,0.0,0.0,0.0,0.0,0.0,0.0,0.0,0.0,0.0,0.0,0.0,0.0,0.0,0.0,0.7886,0.9747,0.0,0.0,0.0,0.0,0.0,0.0,0.0,0.0,0.0,0.0,0.0,0.0,0.0,1.0387,1.0132,0.9274,0.8996,0.9249,0.8361,0.7749,0.7411,0.7387,0.7439,0.75,0.7414,0.0,0.7879,0.8075,0.0,0.0,0.0,0.0,0.0,0.0,0.0,0.0,0.0,0.0,0.0,0.0,0.0,0.0,0.0,0.0,0.0,0.0,0.0,0.0,0.0,-0.1415,-0.1068,-0.0632,-0.0355,0.0025,0.0605,0.0629,0.0,0.0,0.0,0.0583,0.0352,0.0064,-0.0156,-0.0337,-0.0473,-0.0495,-0.0418,0.0536,0.1025,0.1167,0.2427,0.3539,0.4464,0.3865,0.0,0.0,0.0,0.0,0.0,0.0,0.0,0.0,0.0,0.0,0.0,0.0,0.0,0.0,0.0,0.0,0.0,0.0,0.0,0.0,0.0,0.0,0.0,0.0,0.0,0.0,0.0,0.0,0.0,0.0,0.0,0.0,0.0,0.0,0.0,0.0,0.0,0.0,0.0,0.9511,0.9729,1.0405,1.1088,1.1495,0.0,0.0,0.0,0.0,0.0,0.0,0.0,0.0,0.0,1.0368,1.0864,1.061,0.9549,0.9653,0.9336,0.8627,0.8496,0.8239,0.788,0.7173,0.6916,0.6979,0.6895,0.6959,0.7179,0.7739,0.8054,0.8137,0.0,0.0,0.0,0.0,0.8715,0.8838,0.0,0.0,0.0,0.0,0.0,0.0,0.0,0.0,0.0,0.0,0.0,0.0,-0.3645,-0.3194,-0.2732,-0.2367,-0.1929,-0.1339,-0.054,-0.0312,-0.0165,-0.0085,-0.0285,-0.0603,-0.1079,-0.143,-0.1722,-0.189,-0.189,-0.1817,-0.1647,-0.0567,-0.0117,-0.012,0.1249,0.2594,0.377,0.3382,0.3889,0.4878,0.0,0.0,0.0,0.0,0.0,0.0,0.0,0.0,0.0,0.0,0.0,0.0,0.0,0.0,0.0,0.0,0.0,0.0,0.0,0.0,0.0,0.0,0.0,0.0,0.0,0.0,0.0,0.0,0.0,0.0,0.0,0.0,0.0,0.0,0.0,0.0,0.0,1.0015,1.1103,1.0599,1.1059,1.1311,0.0,0.0,0.0,0.0,0.0,0.0,1.1686,1.0841,1.0295,1.0157,1.0873,1.0483,0.8904,0.9758,0.9352,0.7718,0.8116,0.8253,0.8121,0.727,0.6829,0.6769,0.7257,0.73,0.7085,0.7712,0.7839,0.7783,0.8229,0.8479,0.8564,0.8667,0.8817,0.9087,0.0,0.0,0.0,0.0,0.0,0.0,0.0,0.0,0.0,0.0,0.0,-0.4837,-0.6171,-0.5236,-0.4646,-0.5056,-0.3589,-0.2564,-0.2372,-0.1352,-0.0962,-0.1378,-0.1415,-0.1812,-0.266,-0.3446,-0.3708,-0.3479,-0.3161,-0.3076,-0.3174,-0.1591,-0.1138,-0.1616,0.0176,0.2019,0.3773,0.344,0.4044,0.5213,0.4345,0.0,0.0,0.0,0.0,0.0,0.0,0.0,0.0,0.0,0.0,0.0,0.0,0.0,0.0,0.0,0.0,0.0,0.0,0.0,0.0,0.0,0.0,0.0,0.0,0.0,0.0,0.0,0.0,0.0,0.0,0.0,0.0,0.0,0.0,0.0,0.0,0.0,0.0,0.9117,0.9427,0.0,0.0,0.0,0.0,1.1379,1.1405,1.1479,1.1686,1.076,1.0209,1.0293,0.9735,0.9247,0.8901,0.8973,0.8209,0.6662,0.6686,0.7087,0.7722,0.7653,0.7464,0.7279,0.9004,0.9152,0.8211,0.8103,0.7752,0.7352,0.8526,0.8859,0.871,0.8898,0.9368,0.9879,0.0,0.0,0.0,0.0,0.0,0.0,0.0,0.0,-0.4671,-0.5138,-0.5569,-0.6181,-0.7125,-0.7026,-0.6735,-0.6233,-0.5473,-0.4404,-0.2977,-0.2512,-0.2251,-0.2201,-0.2675,-0.3249,-0.3927,-0.4342,-0.4495,-0.4419,-0.4564,-0.449,-0.4203,-0.3379,-0.2871,-0.2589,-0.1074,0.0234,0.1279,0.2132,0.3128,0.4092,0.3706,0.3832,0.0,0.0,0.0,0.0,0.0,0.0,0.0,0.0,0.0,0.0,0.0,0.0,0.0,0.0,0.0,0.0,0.0,0.0,0.0,0.0,0.0,0.0,0.0,0.0,0.0,0.0,0.0,0.0,0.0,0.0,0.0,0.0,0.0,0.0,0.0,0.0,0.0,0.9982,1.0591,0.0,1.0534,1.1079,1.1484,1.1612,1.1399,1.1319,1.1436,1.0587,1.0097,1.0179,1.0274,1.0133,0.9655,1.0179,0.9939,0.8893,0.8403,0.8298,0.8567,0.9114,0.8682,0.7554,0.8203,0.8168,0.7707,0.8489,0.8682,0.8538,0.8819,0.8902,0.8832,0.8918,0.9308,0.9807,0.0,0.0,0.0,0.0,0.0,0.0,0.0,0.0,-0.5155,-0.566,-0.65,-0.74,-0.8264,-0.8518,-0.8405,-0.7899,-0.6921,-0.5733,-0.4271,-0.3528,-0.3194,-0.3269,-0.4082,-0.4739,-0.5133,-0.5515,-0.5626,-0.547,-0.5749,-0.5579,-0.5042,-0.4598,-0.4122,-0.3587,-0.2327,-0.1418,-0.0793,0.0299,0.1726,0.3215,0.2956,0.3499,0.4434,0.0,0.0,0.0,0.0,0.0,0.0,0.0,0.0,0.0,0.0,0.0,0.0,0.0,0.0,0.0,0.0,0.0,0.0,0.0,0.0,0.0,0.0,0.0,0.0,0.0,0.0,0.0,0.0,0.0,0.0,0.0,0.0,0.0,0.0,0.0,1.1109,1.0767,1.1248,1.1479,1.1138,1.1394,1.1562,1.1533,1.1267,1.1234,1.1463,1.0732,1.0376,1.0383,1.0602,1.0517,1.0164,1.0725,1.0718,1.0231,0.9691,0.944,0.9446,1.0026,0.9464,0.8036,0.8388,0.8255,0.7906,0.9024,0.9501,0.9491,0.9292,0.9196,0.9142,0.9201,0.972,1.042,0.0,0.0,0.0,0.0,0.0,0.0,-0.4142,-0.4768,-0.5488,-0.6542,-0.7469,-0.851,-0.9754,-0.9652,-0.9639,-1.0058,-0.7915,-0.6473,-0.6305,-0.4432,-0.3727,-0.4605,-0.5628,-0.6196,-0.6236,-0.707,-0.7199,-0.6623,-0.6635,-0.635,-0.5687,-0.506,-0.4743,-0.465,-0.3612,-0.2813,-0.2198,-0.1828,0.0,0.2535,0.2147,0.3263,0.5122,0.0,0.0,0.0,0.0,0.0,0.0,0.0,0.0,0.0,0.0,0.0,0.0,0.0,0.0,0.0,0.0,0.0,0.0,0.0,0.0,0.0,0.0,0.0,0.0,0.0,0.0,0.0,0.0,0.0,0.0,0.0,0.0,0.0,1.1632,1.1556,1.1409,1.1216,1.1195,1.1187,1.1081,1.061,1.0573,1.1137,1.1021,1.1177,1.174,1.1282,1.0981,1.0981,1.0544,1.0273,1.0273,1.0273,1.0273,1.0273,1.0273,1.0273,1.0312,1.0287,0.9695,0.8685,0.9742,0.9691,0.8942,0.9766,1.0091,1.0045,0.9939,0.9791,0.9642,0.9818,1.0638,1.1748,0.0,0.0,0.0,0.0,0.0,0.0,-0.4106,-0.4886,-0.5625,-0.6254,-0.7923,-0.9279,-0.9969,-1.0326,-1.0462,-1.0175,-0.8273,-0.6815,-0.6179,-0.4944,-0.4648,-0.5578,-0.5745,-0.6239,-0.7137,-0.7392,-0.753,-0.7521,-0.7775,-0.723,-0.5932,-0.6015,-0.5466,-0.4328,-0.401,-0.355,-0.2965,-0.2792,-0.1731,-0.0098,0.1052,0.2144,0.3227,0.0,0.0,0.0,0.0,0.0,0.0,0.0,0.0,0.0,0.0,0.0,0.0,0.0,0.0,0.0,0.0,0.0,0.0,0.0,0.0,0.0,0.0,0.0,0.0,0.0,0.0,0.0,0.0,0.0,0.0,0.0,0.0,1.0699,1.1261,1.1227,1.1121,1.1137,1.1427,1.1386,1.081,1.0955,1.1078,1.1,1.134,1.1483,1.1244,1.1094,1.0829,1.0505,1.0351,1.0273,1.0273,1.0273,1.0273,1.0273,1.0273,1.0273,1.0312,1.0309,0.9935,0.9355,0.9631,0.9447,0.9027,0.9526,0.9754,0.9723,0.9619,0.9741,0.9932,0.9695,1.022,1.1201,0.0,0.0,0.0,0.0,0.0,0.0,-0.4142,-0.4963,-0.5638,-0.6017,-0.7993,-0.9353,-0.9298,-1.0079,-1.031,-0.9627,-0.8148,-0.6994,-0.6402,-0.5802,-0.553,-0.5666,-0.6159,-0.674,-0.7486,-0.7589,-0.7869,-0.8297,-0.8036,-0.7309,-0.6166,-0.6015,-0.5324,-0.42,-0.4307,-0.4111,-0.3782,-0.3744,-0.3109,-0.2094,-0.0792,0.0699,0.2305,0.3501,0.4302,0.4801,0.5107,0.5498,0.5866,0.5793,0.0,0.0,0.0,0.0,0.0,0.0,0.0,0.0,0.0,0.0,0.0,0.0,0.0,0.0,0.0,0.0,0.0,0.0,0.0,0.0,0.0,0.0,0.0,0.0,1.1001,1.0455,1.089,1.0847,1.0873,1.1199,1.1479,1.1407,1.0799,1.0826,1.0716,1.0303,1.0419,1.0389,1.004,1.004,0.9884,0.9646,0.9646,0.9646,0.9646,0.9646,0.9646,0.9646,0.9843,0.9961,0.9961,1.0196,1.0039,0.9612,0.9824,0.9668,0.9277,0.9702,0.9889,0.0,0.0,0.0,0.0,0.0,1.022,1.0995,0.0,0.0,0.0,0.0,0.0,0.0,-0.4203,-0.4963,-0.5569,-0.5852,-0.7821,-0.8919,-0.8269,-0.9182,-0.9488,-0.865,-0.7689,-0.6968,-0.664,-0.6643,-0.6319,-0.5532,-0.6777,-0.7524,-0.7729,-0.7916,-0.8283,-0.8804,-0.792,-0.711,-0.6411,-0.5605,-0.4883,-0.42,-0.4395,-0.4519,-0.4519,-0.4519,-0.4111,-0.3462,-0.2817,-0.0841,0.1803,0.2343,0.3333,0.4372,0.4447,0.4561,0.4782,0.5665,0.0,0.0,0.0,0.0,0.0,0.0,0.0,0.0,0.0,0.0,0.0,0.0,0.0,0.0,0.0,0.0,0.0,0.0,0.0,0.0,0.0,0.0,0.0,0.0,1.0392,1.0184,1.0361,1.0284,1.0461,1.1114,1.1206,1.1094,1.075,1.0312,0.9902,0.9421,0.8977,0.8733,0.8733,0.0,0.0,0.0,0.0,0.8733,0.8733,0.8733,0.8716,0.8724,0.9203,0.9484,0.9527,1.0,1.004,0.969,1.0117,1.0059,0.969,1.0117,1.0273,1.0272,1.0095,0.9982,0.9895,1.0122,1.0473,1.0926,0.0,0.0,0.0,0.0,0.0,0.0,-0.4244,-0.4904,-0.5478,-0.5856,-0.7311,-0.8324,-0.8282,-0.8586,-0.8554,-0.7966,-0.7103,-0.649,-0.6151,-0.628,-0.6692,-0.7433,-0.7686,-0.8207,-0.9022,-0.8774,-0.8697,-0.8804,-0.8593,-0.7802,-0.6411,-0.6332,-0.5526,-0.42,-0.4395,-0.4519,-0.4519,-0.4519,-0.4443,-0.4197,-0.3473,-0.1809,0.0353,0.1327,0.2307,0.3169,0.3965,0.4566,0.5003,0.51,0.5892,0.6736,0.6298,0.6614,0.0,0.0,0.0,0.0,0.0,0.0,0.0,0.0,0.0,0.0,0.0,0.0,0.0,0.0,0.0,0.0,0.0,0.0,0.0,0.9021,0.8941,0.9013,0.9004,0.9056,0.9295,0.9734,0.9998,0.9958,0.9485,0.9393,0.9341,0.9464,0.9175,0.9027,0.9027,0.9245,0.9233,0.9027,0.9027,0.9027,0.9027,0.9027,0.8922,0.8724,0.0,0.0,0.9527,0.9607,0.9845,1.0156,1.0254,1.0234,1.0156,1.0254,1.0273,1.0312,1.0268,0.982,0.9271,1.0026,1.0335,1.0561,0.0,0.0,0.0,0.0,0.0,0.0,-0.4446,-0.4982,-0.548,-0.5856,-0.69,-0.7571,-0.7463,-0.7806,-0.7778,-0.7123,-0.6521,-0.631,-0.6594,-0.6926,-0.7499,-0.8352,-0.8791,-0.9141,-0.9411,-0.9206,-0.9006,-0.8804,-0.8421,-0.7659,-0.647,-0.6206,-0.545,-0.4362,-0.4429,-0.4519,-0.4519,-0.4519,-0.4519,-0.4463,-0.407,-0.3056,-0.1587,-0.0315,0.0683,0.1469,0.2317,0.3218,0.4063,0.4368,0.4978,0.5707,0.5947,0.6217,0.643,0.0,0.0,0.0,0.0,0.0,0.0,0.0,0.0,0.0,0.0,0.0,0.0,0.0,0.0,1.0173,0.0,0.0,0.8621,0.8262,0.8262,0.8327,0.8259,0.8324,0.8575,0.9154,0.9359,0.9305,0.8925,0.8896,0.8837,0.8695,0.8548,0.8505,0.8505,0.8607,0.8636,0.852,0.8505,0.8505,0.8505,0.8505,0.8431,0.8312,0.8685,0.9157,0.9598,0.9896,1.0377,1.0959,1.0684,1.0723,1.0898,1.0464,1.0462,1.0656,1.039,1.0041,0.9715,1.0136,1.0291,1.0367,0.0,0.0,0.0,0.0,0.0,0.0,0.0,-0.5059,-0.5442,-0.5782,-0.6383,-0.6706,-0.6532,-0.6987,-0.7131,-0.6673,-0.613,-0.6329,-0.7621,-0.785,-0.8332,-0.9189,-0.984,-0.9993,-0.9466,-0.9456,-0.9235,-0.8724,-0.8184,-0.7557,-0.6804,-0.6036,-0.5328,-0.4677,-0.4574,-0.4519,-0.4519,-0.4346,-0.4291,-0.4236,-0.4125,-0.3677,-0.2952,-0.1777,-0.0831,-0.011,0.0794,0.1728,0.2654,0.3404,0.3818,0.4228,0.5267,0.5535,0.5476,0.5627,0.5898,0.0,0.0,0.0,0.0,0.0,0.0,0.0,0.0,0.0,0.8301,0.9332,0.9105,0.8618,0.8294,0.7895,0.7613,0.7693,0.7787,0.7839,0.7839,0.7866,0.8108,0.8731,0.8842,0.8775,0.8587,0.8627,0.8509,0.8096,0.8043,0.8016,0.8016,0.807,0.807,0.8016,0.8016,0.8016,0.8016,0.8016,0.7989,0.7888,0.8405,0.8941,0.9512,1.0013,1.066,1.1412,1.1149,1.1191,1.1406,1.0803,1.0795,1.1147,1.0781,1.0626,1.0626,1.037,1.0292,1.0292,0.0,0.0,0.0,0.0,0.0,0.0,0.0,0.0,-0.5233,-0.5501,-0.5619,-0.581,-0.6123,-0.6224,-0.6578,-0.7395,-0.6225,-0.6587,-0.9241,-0.8574,-0.888,-1.0664,-1.062,-1.0266,-0.9668,-0.9696,-0.9336,-0.8417,-0.8632,-0.8315,-0.7557,-0.6804,-0.6091,-0.5382,-0.4787,-0.4519,-0.4463,-0.3788,-0.3511,-0.34,-0.273,-0.2397,-0.2286,-0.2119,-0.1643,-0.0796,0.0616,0.121,0.1412,0.2172,0.2866,0.3499,0.4043,0.4191,0.4345,0.5507,0.5154,0.4659,0.587,0.6292,0.6514,0.7314,0.6988,0.6944,0.0,0.0,0.7747,0.8132,0.7916,0.7375,0.6475,0.6206,0.6247,0.6538,0.6982,0.7348,0.7504,0.7759,0.7871,0.7695,0.7893,0.8024,0.797,0.8261,0.8531,0.8697,0.847,0.8323,0.8323,0.8564,0.8591,0.8337,0.8323,0.8323,0.8323,0.8323,0.819,0.7888,0.8239,0.8567,0.8835,0.8881,0.9574,1.0749,1.1286,1.1289,1.1016,1.1328,1.1504,1.1543,1.174,1.1807,1.1661,1.0681,1.028,1.0359,0.0,0.0,0.0,0.0,0.0,0.0,0.0,0.0,0.0,-0.5463,-0.5482,-0.5614,-0.5943,-0.6404,-0.6911,-0.7484,-0.684,-0.725,-0.9255,-0.8584,-0.8932,-1.0822,-1.0799,-1.0581,-1.0238,-0.9896,-0.9463,-0.8863,-0.8636,-0.8268,-0.7664,-0.6966,-0.6199,-0.5483,-0.4787,-0.4519,-0.4463,-0.3677,-0.3345,-0.3234,-0.2508,-0.2174,-0.2171,-0.2131,-0.1737,-0.1173,-0.0692,0.0,0.0,0.1141,0.1718,0.2424,0.3316,0.3474,0.346,0.4099,0.4014,0.3887,0.4473,0.4767,0.4897,0.4879,0.4625,0.4755,0.6099,0.5881,0.5692,0.6832,0.6776,0.6439,0.6155,0.5966,0.5867,0.0,0.6361,0.6814,0.6961,0.7214,0.739,0.7473,0.7736,0.8003,0.8176,0.8457,0.8671,0.8791,0.8697,0.8462,0.8047,0.8094,0.7882,0.7355,0.7774,0.7982,0.7982,0.841,0.8564,0.8444,0.8564,0.8908,0.9353,0.9353,0.9915,1.1003,1.1976,1.207,1.1572,1.2113,1.2351,1.2351,1.2063,1.2207,1.249,1.1963,1.1787,1.1807,0.0,0.0,0.0,0.0,0.0,0.0,0.0,0.0,0.0,0.0,-0.533,-0.5406,-0.567,-0.6283,-0.6853,-0.7252,-0.7013,-0.7488,-0.9062,-0.8496,-0.8866,-1.0521,-1.0782,-1.0612,-1.01,-0.9821,-0.9361,-0.8724,-0.8399,-0.8099,-0.7725,-0.6828,-0.6163,-0.5676,-0.4776,-0.4423,-0.4463,-0.3622,-0.3178,-0.2952,-0.221,-0.176,-0.1586,-0.1589,-0.14,-0.119,-0.1534,-0.0943,0.0082,0.0085,0.0388,0.1001,0.2171,0.2338,0.2135,0.2652,0.2881,0.2921,0.2787,0.3028,0.3159,0.2651,0.2658,0.2963,0.3556,0.3672,0.4024,0.5331,0.5476,0.547,0.5611,0.5512,0.5349,0.5396,0.5732,0.6073,0.6339,0.6611,0.6842,0.6881,0.7313,0.7714,0.8032,0.8487,0.8804,0.8804,0.8804,0.8487,0.7729,0.7889,0.7557,0.6642,0.7503,0.7889,0.7717,0.8421,0.8804,0.8804,0.8804,0.9054,0.951,0.9718,1.0232,1.0971,1.2127,1.2359,1.2068,1.2676,1.2752,1.2453,1.2035,1.2035,1.2307,1.2305,1.2337,1.2298,0.0,0.0,0.0,0.0,0.0,0.0,0.0,0.0,0.0,0.0,0.0,0.0,0.0,-0.5425,-0.5941,-0.6664,-0.6371,-0.6959,-0.8894,-0.851,-0.8783,-1.0069,-1.0572,-1.0137,-0.8798,-0.9377,-0.8989,-0.754,-0.7802,-0.7902,-0.7854,-0.6579,-0.6057,-0.6145,-0.4823,-0.4334,-0.4463,-0.3622,-0.2896,-0.2168,-0.1453,-0.0691,-0.0105,-0.0361,-0.0547,-0.0796,-0.1391,-0.1236,-0.0801,-0.1049,-0.1099,-0.0804,0.0319,0.0323,0.018,0.1592,0.1798,0.1468,0.0949,0.1169,0.1552,0.1407,0.1706,0.2015,0.2065,0.2767,0.344,0.35,0.4058,0.4464,0.4273,0.4239,0.4444,0.5014,0.5037,0.5123,0.5662,0.6134,0.6169,0.5468,0.6246,0.693,0.0,0.8152,0.8804,0.8804,0.8804,0.8487,0.7729,0.8368,0.8103,0.6642,0.7996,0.8421,0.7729,0.8421,0.8804,0.8804,0.8804,0.8804,0.8857,0.951,0.993,1.0301,1.1358,1.1888,1.2041,1.2628,1.2374,1.1545,1.1545,1.1265,1.0864,1.0847,1.0847,1.1047,0.0,0.0,0.0,0.0,0.0,0.0,0.0,0.0,0.0,0.0,0.0,0.0,0.0,0.0,0.0,0.0,-0.625,-0.677,-0.8246,-0.758,-0.765,-0.8867,-0.9115,-0.9004,-0.8523,-0.8374,-0.8134,-0.782,-0.7321,-0.7241,-0.7615,-0.6684,-0.6197,-0.6037,-0.5098,-0.454,-0.4261,-0.3423,-0.2728,-0.2106,-0.1278,-0.0741,-0.0488,-0.0849,-0.1132,-0.1348,0.0,-0.1884,-0.1687,-0.1875,-0.1845,-0.1572,-0.095,-0.0781,-0.0656,-0.0048,0.0101,0.0052,0.0106,0.0273,0.0503,0.0449,0.0565,0.0797,0.1307,0.1633,0.2106,0.3037,0.3176,0.3294,0.363,0.3654,0.3701,0.383,0.4462,0.498,0.5241,0.6081,0.6493,0.5945,0.6641,0.0,0.0,0.0,0.0,0.8752,0.8804,0.8262,0.702,0.7182,0.6696,0.5226,0.6145,0.674,0.6966,0.7717,0.8315,0.8804,0.8804,0.8804,0.8804,0.951,0.9849,1.0012,1.1133,1.1633,1.1675,1.1548,1.1132,1.0614,1.0614,1.0713,1.0813,1.0813,1.0493,1.0289,0.0,0.0,0.0,0.0,0.0,0.0,0.0,0.0,0.0,0.0,0.0,0.0,0.0,0.0,0.0,0.0,0.0,-0.6149,-0.6941,-0.684,-0.7121,-0.7997,-0.8469,-0.866,-0.8574,-0.8171,-0.7857,-0.7654,-0.69,-0.6605,-0.684,-0.6064,-0.5575,-0.5345,-0.4709,-0.4245,-0.3872,-0.3482,-0.2911,-0.2267,-0.1888,-0.142,-0.1009,-0.1414,-0.1662,0.0,-0.2147,-0.2269,-0.2261,-0.2332,-0.2168,-0.198,-0.1787,-0.1545,-0.1277,-0.0993,-0.094,-0.0809,-0.0286,-0.0177,-0.012,0.0,0.0,0.0118,0.0588,0.0908,0.1359,0.2205,0.2375,0.2521,0.2941,0.3095,0.3143,0.3049,0.375,0.44,0.4558,0.5415,0.5876,0.5443,0.6054,0.635,0.0,0.0,0.0,0.7943,0.8487,0.8156,0.6696,0.6858,0.648,0.5281,0.5928,0.6524,0.6966,0.7717,0.8315,0.8804,0.8804,0.8804,0.8804,0.9263,0.9562,0.9821,1.0573,1.093,1.0998,1.0695,1.0242,0.9687,0.9687,0.9834,1.0064,1.0064,0.9806,0.9562,0.0,0.0,0.0,0.0,0.0,0.0,0.0,0.0,0.0,0.0,0.0,0.0,0.0,0.0,0.0,0.0,0.0,0.0,-0.5175,-0.6252,-0.7079,-0.7509,-0.851,-0.8984,-0.8795,-0.8549,-0.7959,-0.7081,-0.6538,-0.6105,-0.5732,-0.4896,-0.4449,-0.4312,-0.3897,-0.3652,-0.3524,-0.3881,-0.3461,-0.2581,-0.3069,-0.2545,-0.1487,-0.1925,-0.2066,-0.202,-0.2177,-0.235,-0.2489,-0.2457,-0.2238,-0.2047,-0.219,-0.2029,-0.1667,-0.1245,-0.1234,-0.1156,-0.0303,-0.0249,-0.0376,-0.0064,0.0,0.0,0.0,0.0559,0.1048,0.1064,0.165,0.2113,0.0,0.0,0.2642,0.2657,0.3039,0.3354,0.3595,0.4283,0.4542,0.0,0.0,0.0,0.0,0.0,0.0,0.6436,0.0,0.8049,0.6717,0.7246,0.7289,0.6588,0.7235,0.7557,0.7557,0.8368,0.8752,0.8804,0.8804,0.8804,0.8804,0.8804,0.9159,0.9769,0.9769,0.9879,1.0109,1.0109,0.9599,0.884,0.884,0.8856,0.8844,0.8844,0.8844,0.899,0.0,0.0,0.0,0.0,0.0,0.0,0.0,0.0,0.0,0.0,0.0,0.0,0.0,0.0,0.0,0.0,0.0,0.0,-0.5094,-0.5256,-0.5757,-0.6592,-0.693,-0.719,-0.7339,-0.733,-0.7111,-0.6729,-0.6293,-0.6131,-0.6296,-0.6164,-0.6062,-0.5952,-0.556,-0.5157,-0.4772,-0.4385,-0.3776,-0.3031,-0.3048,-0.2713,-0.2141,-0.2156,-0.2181,-0.2234,-0.2323,-0.2443,-0.2621,-0.2838,-0.2696,-0.2282,-0.1624,-0.1375,-0.135,-0.1222,-0.1044,-0.0835,-0.0604,-0.034,-0.0136,0.0,0.0,0.0,0.0,0.0168,0.0406,0.0877,0.0847,0.0944,0.0,0.0,0.0,0.2314,0.2804,0.0,0.3956,0.4761,0.0,0.4449,0.0,0.541,0.4911,0.5393,0.0,0.0,0.6404,0.704,0.6819,0.6843,0.6524,0.5819,0.5973,0.6081,0.6081,0.7331,0.8262,0.8804,0.8804,0.8804,0.8804,0.8804,0.891,0.9054,0.9054,0.9106,0.9131,0.9131,0.9111,0.9085,0.9207,0.9369,0.9459,0.9459,0.9325,0.9165,0.0,0.0,0.0,0.0,0.0,0.0,0.0,0.0,0.0,0.0,0.0,0.0,0.0,0.0,0.0,0.0,0.0,0.0,0.0,-0.4976,-0.5488,-0.6217,-0.67,-0.6982,-0.7111,-0.7057,-0.6869,-0.6606,-0.6156,-0.598,-0.6071,-0.6011,-0.5935,-0.5746,-0.5421,-0.5061,-0.4661,-0.4294,-0.3802,0.0,0.0,-0.3051,-0.254,-0.2584,-0.2544,-0.2487,-0.2582,-0.2626,-0.2638,-0.2507,-0.2374,-0.21,-0.1548,-0.1426,-0.14,-0.1211,-0.1002,-0.0759,-0.0431,-0.0218,0.0,0.0,0.0,0.0,0.0,0.0,0.0097,0.0447,0.0331,0.0312,0.0724,0.0888,0.0,0.0,0.0,0.0,0.4002,0.4525,0.4763,0.0,0.4967,0.0,0.4834,0.5129,0.5203,0.0,0.5919,0.6733,0.6956,0.6764,0.6668,0.6793,0.6229,0.5982,0.5982,0.6804,0.7557,0.8315,0.8315,0.8487,0.8804,0.8804,0.8804,0.8804,0.0,0.8804,0.8804,0.8804,0.8898,0.9045,0.9112,0.9287,0.9472,0.9352,0.9352,0.9446,0.0,0.0,0.0,0.0,0.0,0.0,0.0,0.0,0.0,0.0,-0.4184,0.0,0.0,0.0,0.0,0.0,0.0,0.0,0.0,0.0,-0.563,-0.6113,-0.6877,-0.73,-0.7317,-0.7148,-0.6839,-0.6455,-0.6026,-0.5739,-0.5563,-0.5407,-0.5254,-0.5017,-0.4723,-0.4454,-0.4203,-0.4124,-0.3902,-0.364,-0.384,-0.347,-0.2766,0.0,-0.2911,-0.2686,-0.2922,-0.2918,-0.2757,-0.2015,-0.1764,-0.1694,-0.1608,-0.1571,-0.1472,-0.1099,-0.0852,-0.0647,-0.015,0.0,0.0,0.0,0.0,0.0,0.0,0.0,0.0,0.0041,0.0039,0.0115,0.0297,0.0497,0.0963,0.1819,0.0,0.2781,0.3767,0.4046,0.4253,0.4646,0.4606,0.4653,0.4918,0.483,0.4857,0.5108,0.591,0.6546,0.6932,0.6657,0.6966,0.8002,0.6941,0.641,0.6465,0.649,0.6804,0.7557,0.7557,0.7943,0.8646,0.8646,0.8699,0.8804,0.8804,0.8804,0.8804,0.8844,0.8884,0.8925,0.8965,0.9152,0.9379,0.9125,0.9339,0.9699,0.0,0.0,0.0,0.0,0.0,0.0,0.0,0.0,0.0,0.0,-0.4562,-0.4021,0.0,0.0,0.0,0.0,0.0,0.0,0.0,0.0,0.0,-0.5746,-0.5775,-0.5932,-0.6243,-0.6228,-0.6029,-0.5678,-0.5922,-0.6043,-0.601,-0.6453,-0.6743,-0.6832,-0.6271,-0.5974,-0.5828,-0.5177,-0.467,-0.4327,-0.4146,-0.3667,-0.3029,-0.3093,0.0,0.0,-0.3206,-0.352,-0.3449,-0.2525,-0.1773,-0.1124,-0.0531,-0.0315,-0.0268,-0.0219,-0.0152,-0.0154,0.0,0.0,0.0,0.0,0.0,0.0,0.0,0.0,0.0,0.0293,0.0313,0.0336,0.0385,0.0403,0.064,0.1196,0.1818,0.2563,0.3361,0.4101,0.4599,0.0,0.4884,0.5033,0.5087,0.5067,0.0,0.0,0.0,0.5562,0.6335,0.6078,0.6037,0.6213,0.5473,0.5335,0.5954,0.5788,0.6036,0.6804,0.6804,0.7182,0.7889,0.7889,0.8209,0.8804,0.8804,0.0,0.8831,0.9017,0.9312,0.9552,0.9734,1.0,1.0327,1.0274,1.0154,0.996,0.0,0.0,0.0,0.0,0.0,0.0,0.0,-0.6432,-0.6067,-0.5707,-0.5117,-0.4533,-0.4021,-0.3957,-0.3934,0.0,0.0,0.0,0.0,0.0,0.0,0.0,-0.5255,-0.5339,-0.5674,-0.5469,-0.5348,-0.5295,0.0,-0.5658,-0.5797,-0.6199,-0.6417,-0.6482,-0.5953,-0.5758,-0.5791,-0.5082,-0.4592,-0.4274,-0.4006,-0.3495,-0.2878,-0.2878,0.0,0.0,-0.3823,-0.3721,-0.3207,-0.3155,-0.2157,-0.0792,-0.0179,0.0,0.0,0.0,0.0,0.0,0.0,0.0,0.0,0.0,0.0275,0.0499,0.0215,0.0,0.0,0.0517,0.0501,0.0501,0.0404,0.038,0.0,0.1038,0.1612,0.2303,0.3217,0.3905,0.0,0.4769,0.4863,0.4992,0.0,0.5176,0.0,0.0,0.0,0.5523,0.6258,0.6299,0.6172,0.5927,0.5239,0.5065,0.5336,0.5253,0.5554,0.6301,0.6301,0.6701,0.744,0.7979,0.8294,0.8354,0.8976,0.0,0.9058,0.9352,0.9495,0.957,0.9643,0.99,1.0098,1.014,1.0207,1.0314,0.0,0.0,0.0,0.0,0.0,0.0,-0.6872,-0.6643,-0.6372,-0.6093,-0.5657,-0.5154,-0.461,-0.4409,-0.4316,0.0,0.0,0.0,0.0,0.0,0.0,0.0,0.0,0.0,-0.5188,0.0,0.0,-0.4852,-0.4947,0.0,0.0,0.0,0.0,0.0,-0.5295,-0.5156,-0.5232,-0.4704,-0.4285,0.0,0.0,-0.3266,0.0,0.0,0.0,0.0,0.0,-0.3658,-0.2953,-0.3308,-0.247,-0.114,-0.0561,-0.0307,-0.0265,-0.028,-0.0296,-0.0233,-0.008,0.0,0.0,0.0,0.0553,0.0942,0.0405,0.0872,0.1242,0.08,0.0695,0.0687,0.0586,0.0524,0.059,0.0,0.1334,0.1977,0.2923,0.3562,0.4186,0.0,0.487,0.0,0.5391,0.0,0.0,0.0,0.0,0.0,0.6085,0.6302,0.6254,0.5815,0.5318,0.5081,0.4965,0.4938,0.5214,0.5751,0.5751,0.6173,0.6883,0.7772,0.7995,0.7757,0.8814,0.0,0.0,0.9517,0.9662,0.9519,0.9643,0.9761,0.9879,0.9927,1.0167,1.0514,0.0,0.0,0.0,0.0,0.0,0.0,-0.7077,-0.6945,-0.6627,-0.6317,-0.6065,-0.5695,-0.5096,-0.4474,-0.4197,0.0,0.0,0.0,0.0,0.0,0.0,0.0,0.0,0.0,0.0,0.0,0.0,-0.4016,-0.4371,0.0,0.0,0.0,0.0,0.0,0.0,-0.4966,-0.4744,-0.4511,0.0,0.0,0.0,0.0,0.0,0.0,0.0,0.0,0.0,-0.329,-0.346,-0.2356,-0.2445,-0.2782,-0.186,-0.141,-0.1261,-0.1022,-0.11,0.0,-0.0227,0.0,0.0,0.0,0.0463,0.0834,0.0399,0.0,0.1249,0.1028,0.1014,0.1048,0.1054,0.083,0.063,0.0497,0.0834,0.141,0.2202,0.3178,0.4112,0.4837,0.0,0.0,0.5425,0.0,0.0,0.0,0.0,0.0,0.5198,0.5408,0.5415,0.5178,0.5121,0.5121,0.5108,0.4986,0.4918,0.4979,0.4979,0.5396,0.6113,0.6216,0.6524,0.7033,0.7629,0.0,0.0,0.9279,0.9932,0.9966,1.0367,1.0488,1.0501,1.0551,1.0577,1.0577,0.0,0.0,0.0,0.0,0.0,0.0,-0.6686,-0.6764,-0.676,-0.6617,-0.6241,-0.5906,-0.5665,-0.4967,-0.4541,-0.4592,0.0,0.0,0.0,0.0,0.0,0.0,0.0,0.0,0.0,0.0,-0.3789,-0.3886,-0.4048,0.0,0.0,0.0,0.0,0.0,0.0,0.0,-0.45,-0.4307,0.0,0.0,0.0,0.0,0.0,0.0,0.0,0.0,0.0,0.0,-0.285,-0.2769,-0.2642,-0.2577,-0.3056,-0.2862,-0.2411,-0.1925,-0.1533,-0.1122,-0.0744,-0.0314,0.008,0.0576,0.0855,0.1005,0.0995,0.0,0.1421,0.107,0.1122,0.1188,0.1132,0.1021,0.0808,0.0449,0.0756,0.1137,0.1477,0.2547,0.35,0.4142,0.4719,0.0,0.0,0.0,0.0,0.0,0.0,0.0,0.527,0.5325,0.5332,0.527,0.527,0.527,0.527,0.5209,0.5182,0.5182,0.5182,0.5375,0.5623,0.5653,0.5932,0.6518,0.7064,0.0,0.0,0.8403,0.9012,0.934,1.0251,1.0608,1.0618,1.0618,1.0618,1.0604,0.0,0.0,0.0,0.0,0.0,-0.6321,-0.6443,-0.6643,-0.6747,-0.6627,-0.6177,-0.5816,-0.5664,-0.502,-0.4606,-0.4558,-0.4329,0.0,0.0,0.0,0.0,0.0,0.0,0.0,0.0,0.0,-0.3707,-0.3886,-0.3821,-0.3821,0.0,0.0,0.0,0.0,0.0,0.0,0.0,0.0,0.0,0.0,0.0,0.0,0.0,0.0,0.0,0.0,0.0,0.0,0.0,0.0,0.0,-0.2437,-0.3569,-0.369,-0.3282,-0.2582,-0.1948,-0.1424,-0.1049,-0.0525,0.0154,0.0912,0.1089,0.1094,0.1415,0.0,0.155,0.1159,0.122,0.1338,0.1381,0.121,0.1031,0.0808,0.0787,0.0923,0.118,0.1917,0.2672,0.0,0.0,0.0,0.0,0.0,0.0,0.0,0.0,0.0,0.5425,0.5425,0.5425,0.5425,0.5425,0.5425,0.5425,0.5425,0.5425,0.5425,0.5425,0.5425,0.5425,0.538,0.5559,0.588,0.6396,0.0,0.0,0.7481,0.7967,0.8376,0.9456,0.9957,1.0238,1.0238,1.0364,1.0618,0.0,0.0,0.0,0.0,0.0,0.0,-0.6535,-0.6703,-0.6644,-0.6177,-0.5808,-0.5398,-0.4865,-0.4458,-0.4193,-0.4193,-0.4152,0.0,0.0,0.0,0.0,0.0,0.0,0.0,0.0,0.0,-0.3886,-0.3886,-0.3626,-0.3626,-0.3886,-0.3626,-0.3658,-0.3886,0.0,0.0,0.0,0.0,0.0,0.0,0.0,0.0,0.0,0.0,0.0,0.0,0.0,0.0,0.0,0.0,0.0,0.0,0.0,-0.3536,-0.3745,-0.2997,-0.2661,-0.2208,-0.103,-0.0336,0.0143,0.0922,0.1023,0.1026,0.1583,0.1646,0.1534,0.1352,0.1352,0.1523,0.1928,0.1523,0.121,0.1523,0.0943,0.0684,0.1373,0.1376,0.0,0.0,0.0,0.0,0.0,0.0,0.0,0.0,0.0,0.0,0.5425,0.5425,0.5425,0.5425,0.5425,0.5425,0.5425,0.5425,0.5425,0.5425,0.5425,0.5425,0.5425,0.5425,0.5277,0.5135,0.0,0.0,0.0,0.6578,0.7102,0.7196,0.7817,0.8549,0.9344,0.9344,0.9856,1.0618,0.0,0.0,0.0,0.0,0.0,0.0,-0.5983,-0.6168,-0.6163,-0.5682,-0.5283,-0.487,-0.4433,-0.4106,-0.3868,-0.3749,-0.3828,0.0,0.0,0.0,0.0,0.0,0.0,0.0,0.0,-0.3841,-0.3951,-0.4038,-0.3691,-0.3528,-0.3626,-0.3528,-0.3462,-0.3438,-0.3462,-0.3331,0.0,0.0,0.0,0.0,0.0,0.0,0.0,0.0,0.0,0.0,0.0,0.0,0.0,0.0,0.0,0.0,0.0,0.0,0.0,-0.266,-0.2545,-0.2441,-0.2107,-0.1265,-0.0362,0.0391,0.0257,0.0237,0.1049,0.1052,0.0969,0.1063,0.122,0.1384,0.1561,0.1433,0.1299,0.1254,0.0898,0.0632,0.0,0.0,0.0,0.0,0.0,0.0,0.0,0.0,0.0,0.0,0.0,0.0,0.5425,0.5425,0.5425,0.5425,0.5425,0.5425,0.5425,0.5425,0.5425,0.5425,0.5425,0.5425,0.5425,0.5425,0.5332,0.0,0.0,0.0,0.0,0.5793,0.5947,0.5997,0.6785,0.7307,0.7567,0.8226,0.8935,0.9792,0.0,0.0,0.0,0.0,0.0,0.0,-0.5609,-0.5828,-0.5815,-0.5369,-0.4978,-0.4585,-0.4128,-0.3801,-0.3561,-0.3391,-0.3487,0.0,0.0,0.0,0.0,0.0,0.0,0.0,-0.3749,-0.4009,-0.4221,-0.4371,-0.3951,-0.3691,-0.356,-0.32,-0.3035,-0.3035,-0.3003,-0.2904,0.0,0.0,0.0,0.0,0.0,0.0,-0.1056,0.0,0.0,0.0,0.0,0.0,0.0,0.0,0.0,0.0,0.0,0.0,0.0,0.0,-0.2646,-0.2437,-0.2246,-0.1512,-0.0585,0.025,0.0093,0.0,0.1033,0.0965,0.078,0.1028,0.119,0.1354,0.1566,0.1508,0.1389,0.1299,0.0851,0.0497,0.0,0.0,0.0,0.0,0.0,0.0,0.0,0.0,0.0,0.0,0.0,0.0,0.5425,0.5425,0.5425,0.5425,0.5425,0.5425,0.5425,0.5425,0.5425,0.5425,0.5425,0.5425,0.5425,0.5425,0.5425,0.0,0.0,0.0,0.0,0.5425,0.5425,0.5425,0.6013,0.64,0.6785,0.7307,0.8096,0.8871,0.0,0.0,0.0,0.0,0.0,0.0,0.0,-0.5578,-0.5578,-0.5098,-0.4817,-0.4445,-0.3876,-0.3491,-0.3232,-0.3133,-0.3094,0.0,0.0,0.0,0.0,0.0,0.0,0.0,-0.3481,-0.4156,-0.461,-0.4812,-0.4361,-0.3993,-0.3714,-0.2765,-0.2468,-0.2732,-0.2281,-0.2353,-0.2819,-0.2766,-0.2477,-0.2047,-0.2011,-0.17,0.0,0.0,0.0,0.0,0.0,0.0,0.0,0.0,0.0,0.0,0.0,0.0,0.0,0.0,0.0,0.0,0.0,-0.1131,-0.0585,0.0375,0.0263,0.0205,0.1332,0.1236,0.0,0.1166,0.1259,0.1421,0.1804,0.161,0.1433,0.1523,0.076,0.0,0.0,0.0,0.0,0.0,0.0,0.0,0.0,0.0,0.0,0.0,0.0,0.0,0.5425,0.5425,0.5425,0.5425,0.5425,0.5425,0.5425,0.5425,0.5425,0.5425,0.5425,0.5425,0.5425,0.5425,0.5425,0.0,0.0,0.0,0.0,0.5425,0.5425,0.5425,0.5425,0.5881,0.6588,0.6588,0.7177,0.7892,0.0,0.0,0.0,0.0,0.0,0.0,0.0,0.0,0.0,0.0,-0.4287,-0.3851,-0.3194,-0.3151,-0.2942,0.0,0.0,0.0,0.0,0.0,0.0,0.0,0.0,0.0,-0.3481,-0.4219,-0.4649,-0.4812,-0.4637,-0.4377,-0.3973,-0.3035,-0.2447,-0.2175,-0.2114,-0.2424,-0.2946,-0.2946,-0.2787,-0.2501,-0.2042,-0.1705,0.0,0.0,0.0,0.0,-0.0861,-0.1216,0.0,0.0,0.0,0.0,0.0,0.0,0.0,0.0,-0.1847,-0.1895,-0.116,0.0,-0.1012,-0.0555,-0.029,0.0,0.0,0.0657,0.0901,0.1158,0.0,0.1332,0.1418,0.1306,0.1165,0.121,0.0,0.0,0.0,0.0,0.0,0.0,0.0,0.0,0.0,0.0,0.0,0.0,0.0,0.5425,0.5425,0.5425,0.5425,0.5425,0.5425,0.5425,0.5425,0.5425,0.5425,0.5425,0.5425,0.5425,0.5425,0.5425,0.5425,0.0,0.0,0.0,0.5425,0.5425,0.5425,0.5425,0.5425,0.5557,0.569,0.569,0.6268,0.6981,0.0,0.0,0.0,0.0,0.0,0.0,0.0,0.0,0.0,0.0,-0.4286,-0.3943,-0.3308,-0.3259,-0.3081,0.0,0.0,0.0,0.0,0.0,0.0,0.0,0.0,-0.328,-0.3997,-0.4448,-0.4762,-0.4896,-0.4828,-0.4482,-0.3909,-0.3134,-0.2513,-0.2047,-0.2047,-0.2243,-0.2578,-0.2966,-0.2926,-0.2588,-0.2347,0.0,0.0,0.0,0.0,0.0,-0.1317,-0.1508,0.0,-0.2075,-0.2034,-0.1992,0.0,0.0,0.0,0.0,-0.1713,-0.178,-0.1143,-0.1098,-0.112,-0.0699,-0.0314,0.0035,0.0245,0.0617,0.099,0.1155,0.0,0.1116,0.1169,0.1017,0.0824,0.0,0.0092,0.0,0.0,0.0,0.0,0.0,0.0,0.0,0.0,0.0,0.0,0.0,0.0,0.473,0.473,0.473,0.4957,0.5359,0.5291,0.5291,0.5425,0.5425,0.5425,0.5425,0.5425,0.5425,0.5425,0.5425,0.5425,0.0,0.0,0.0,0.5425,0.5425,0.5425,0.5425,0.5425,0.5425,0.5425,0.5425,0.569,0.6071,0.0,0.0,0.0,0.0,0.0,0.0,0.0,0.0,0.0,0.0,0.0,0.0,0.0,0.0,0.0,0.0,0.0,0.0,0.0,0.0,0.0,0.0,-0.324,-0.3638,-0.4601,-0.4808,-0.4992,-0.508,-0.5105,-0.4633,-0.3746,-0.3134,-0.2573,-0.2014,-0.1981,-0.1974,-0.2088,-0.2829,-0.293,-0.2581,-0.2733,0.0,0.0,0.0,0.0,0.0,0.0,0.0,0.0,-0.2208,-0.2165,-0.2061,-0.2192,0.0,0.0,0.0,0.0,0.0,-0.1278,-0.1134,-0.1042,-0.0585,-0.022,0.0111,0.0369,0.075,0.1085,0.106,0.096,0.0844,0.0878,0.0672,0.0,0.0,0.0,0.0,0.0,0.0,0.0,0.0,0.0,0.0,0.0,0.0,0.0,0.0,0.0,0.3791,0.3806,0.3791,0.4212,0.512,0.4983,0.5034,0.5291,0.5318,0.5338,0.5425,0.5425,0.5425,0.5425,0.5425,0.5425,0.5425,0.0,0.0,0.5425,0.5425,0.5425,0.5425,0.5425,0.5425,0.5425,0.5425,0.5425,0.5425,0.0,0.0,0.0,0.0,0.0,0.0,0.0,0.0,0.0,0.0,0.0,0.0,0.0,0.0,0.0,0.0,0.0,0.0,0.0,0.0,0.0,-0.4152,-0.3918,-0.4023,-0.4589,-0.5182,-0.5441,-0.5412,-0.5825,-0.5307,-0.3928,-0.3109,-0.2347,-0.1676,-0.1676,-0.1838,-0.2171,-0.2304,-0.2568,-0.2832,-0.2681,0.0,0.0,0.0,0.0,0.0,0.0,0.0,0.0,-0.2159,-0.2121,-0.208,-0.2066,0.0,0.0,0.0,0.0,0.0,-0.1043,-0.0858,-0.0848,-0.0819,-0.0527,-0.0155,0.0117,0.0579,0.0847,0.0579,0.0482,0.0416,0.0251,-0.0175,-0.0406,0.0,0.0,0.0,0.0,0.0,0.0,0.0,0.0,0.0,0.0,0.0,0.0,0.0,0.0,0.2918,0.292,0.2925,0.3275,0.3998,0.4018,0.4344,0.4986,0.5108,0.523,0.5425,0.5425,0.5425,0.5425,0.5425,0.5425,0.5425,0.0,0.5425,0.5425,0.5425,0.5425,0.5425,0.5425,0.5425,0.5425,0.5425,0.5425,0.5425,0.0,0.0,0.0,0.0,0.0,0.0,0.0,0.0,0.0,0.0,0.0,0.0,0.0,0.0,0.0,0.0,0.0,0.0,0.0,0.0,-0.3424,-0.4035,-0.4428,-0.4839,-0.5309,-0.5512,-0.5649,-0.5724,-0.6335,-0.5751,-0.4048,-0.3142,-0.2009,-0.074,-0.1035,-0.1111,-0.1033,-0.1481,-0.1903,-0.2289,0.0,0.0,0.0,0.0,0.0,0.0,0.0,0.0,0.0,0.0,-0.1969,-0.1875,-0.1833,0.0,0.0,0.0,0.0,0.0,-0.1308,-0.1339,-0.1394,-0.118,-0.0532,0.0044,0.017,0.0466,0.0593,0.0295,0.0128,0.0,0.0,0.0,-0.0488,-0.0156,0.0,0.0,0.0,0.0,0.0,0.0,0.0,0.0,0.0,0.0,0.0,0.0,0.0,0.0,0.1965,0.1946,0.2358,0.3202,0.3132,0.3505,0.4302,0.4284,0.4634,0.5237,0.5237,0.5277,0.5425,0.5425,0.5425,0.5425,0.0,0.5425,0.5425,0.5425,0.5425,0.5425,0.5425,0.5425,0.5425,0.5425,0.5425,0.5425,0.0,0.0,0.0,0.0,0.0,0.0,0.0,0.0,0.0,0.0,0.0,0.0,0.0,0.0,0.0,0.0,0.0,0.0,0.0,-0.3043,-0.3475,-0.3931,-0.4777,-0.5407,-0.5855,-0.5925,-0.6013,-0.6169,-0.6453,-0.5702,-0.3941,-0.3101,-0.1823,-0.0208,-0.0504,-0.0464,-0.0224,-0.084,-0.1295,-0.1678,0.0,0.0,0.0,0.0,0.0,0.0,0.0,0.0,0.0,0.0,0.0,0.0,0.0,0.0,0.0,-0.1609,-0.1642,-0.1676,-0.1676,-0.1796,-0.1826,-0.1491,-0.08,-0.0137,0.0137,0.0228,0.0274,0.0046,-0.0139,0.0,0.0,-0.0536,0.0,0.0,0.0,0.0,0.0,0.0,0.0,0.0,0.0,0.0,0.0,0.0,0.0,0.0,0.0,0.0,0.0965,0.0973,0.1379,0.2321,0.2208,0.258,0.3425,0.3518,0.4065,0.5081,0.5081,0.5142,0.5257,0.5257,0.5277,0.5311,0.5311,0.5325,0.5425,0.5425,0.5425,0.5425,0.5425,0.5425,0.5425,0.5425,0.5338,0.5311,0.0,0.0,0.0,0.0,0.0,0.0,0.0,0.0,0.0,0.0,0.0,0.0,0.0,0.0,0.0,0.0,0.0,0.0,0.0,-0.3208,-0.3766,-0.4422,-0.4937,-0.5371,-0.5716,-0.6501,-0.6919,-0.6934,-0.5905,-0.4763,-0.3528,-0.2977,-0.2051,-0.0821,-0.0296,-0.0268,-0.067,-0.0718,-0.0915,-0.1171,-0.1644,0.0,0.0,0.0,0.0,0.0,0.0,0.0,0.0,0.0,0.0,0.0,0.0,0.0,-0.1847,-0.1642,-0.1742,-0.188,-0.188,-0.1812,-0.1696,-0.1662,-0.1719,-0.148,-0.0416,-0.019,-0.0239,-0.0198,-0.0206,-0.0361,0.0,-0.105,0.0,0.0,0.0,0.0,0.0,0.0,0.0,0.0,0.0,0.0,0.0,0.0,0.0,0.0,0.0,0.0,0.0064,0.0122,0.0413,0.1182,0.12,0.1572,0.2303,0.3026,0.3932,0.4938,0.4938,0.4938,0.4952,0.4952,0.5026,0.5148,0.5148,0.523,0.5425,0.5425,0.5425,0.5425,0.5425,0.5425,0.5425,0.5425,0.527,0.5169,0.0,0.0,0.0,0.0,0.0,0.0,0.0,0.0,0.0,0.0,0.0,0.0,0.0,0.0,0.0,0.0,0.0,0.0,0.0,-0.3175,-0.3619,-0.4294,-0.4787,-0.5321,-0.5836,-0.627,-0.6306,-0.5932,-0.5504,-0.4864,-0.3971,-0.2908,-0.2136,-0.1685,-0.1011,-0.0703,-0.0678,-0.0373,-0.0522,-0.0924,-0.1097,-0.1471,0.0,0.0,0.0,0.0,0.0,0.0,0.0,0.0,-0.2172,-0.2075,-0.2247,-0.2281,-0.2242,-0.2175,-0.2341,-0.2507,-0.2507,-0.2244,-0.1931,-0.1947,-0.1959,-0.1716,-0.0716,-0.0553,-0.0564,-0.0729,-0.0546,-0.0556,0.0,0.0,-0.0498,0.0,0.0,0.0,0.0,0.0,0.0,0.0,0.0,0.0,0.0,0.0,0.0,0.0,0.0,0.0,0.0,0.0,0.0115,0.0412,0.0399,0.0783,0.1506,0.2286,0.3105,0.3995,0.4494,0.483,0.4918,0.4918,0.4952,0.4999,0.4999,0.5081,0.5216,0.5216,0.5277,0.5425,0.5425,0.525,0.5108,0.5291,0.5264,0.5148,0.0,0.0,0.0,0.0,0.0,0.0,0.0,0.0,0.0,0.0,0.0,0.0,0.0,0.0,0.0,0.0,0.0,0.0,-0.3109,-0.3208,-0.3559,-0.4186,-0.4587,-0.5048,-0.5659,-0.6152,-0.6017,-0.5309,-0.5087,-0.4564,-0.3775,-0.3445,-0.3052,-0.2572,-0.1947,-0.1441,-0.1052,-0.058,-0.0513,-0.0734,-0.0987,-0.1374,0.0,0.0,0.0,0.0,0.0,0.0,0.0,0.0,-0.2521,-0.2347,-0.254,-0.2606,-0.2573,-0.2507,-0.2706,-0.2944,-0.2944,-0.2779,-0.2512,-0.2206,-0.2195,-0.1967,-0.0942,-0.0777,-0.0848,-0.0777,-0.0633,-0.0579,-0.0875,0.0,0.0,0.0,0.0,0.0,0.0,0.0,0.0,0.0,0.0,0.0,0.0,0.0,0.0,0.0,0.0,0.0,0.0,0.0,0.0,0.0,0.0,0.0224,0.0727,0.1729,0.2452,0.3012,0.4113,0.4674,0.4775,0.4775,0.4802,0.485,0.485,0.4931,0.506,0.506,0.5128,0.523,0.527,0.5162,0.5013,0.5216,0.525,0.5216,0.0,0.0,0.0,0.0,0.0,0.0,0.0,0.0,0.0,0.0,0.0,0.0,0.0,0.0,0.0,0.0,0.0,0.0,-0.3142,-0.3372,-0.3727,-0.4186,-0.4282,-0.457,-0.5193,-0.6234,-0.6307,-0.5309,-0.464,-0.3756,-0.276,-0.4753,-0.4913,-0.3486,-0.3031,-0.2485,-0.1903,-0.143,-0.0951,-0.0597,-0.1391,-0.162,-0.1542,0.0,0.0,0.0,0.0,0.0,0.0,0.0,-0.3035,-0.2798,-0.2798,-0.2798,-0.2772,-0.2573,-0.2747,-0.3004,-0.3004,-0.3339,-0.3467,-0.2457,-0.2507,-0.2408,-0.1029,-0.0983,-0.1048,-0.018,-0.0241,-0.0525,-0.0508,-0.0491,0.0,0.0,0.0,0.0,0.0,0.0,0.0,0.0,0.0,0.0,0.0,0.0,0.0,0.0,0.0,0.0,0.0,0.0,0.0,0.0,0.0,0.0,0.0,0.1453,0.2174,0.223,0.3732,0.4519,0.4519,0.4519,0.4545,0.4687,0.4687,0.4775,0.4918,0.4918,0.4918,0.4931,0.5074,0.5128,0.5128,0.5128,0.5223,0.5425,0.0,0.0,0.0,0.0,0.0,0.0,0.0,0.0,0.0,0.0,0.0,0.0,0.0,0.0,0.0,0.0,0.0,0.0,-0.372,-0.3673,-0.3804,-0.4115,-0.4238,-0.4568,-0.5119,-0.5613,-0.5686,-0.5309,-0.5087,-0.4596,-0.384,-0.5113,-0.5627,-0.5467,-0.3314,-0.2544,-0.2838,-0.3011,-0.2571,-0.1727,-0.2098,-0.2324,-0.2431,0.0,0.0,0.0,0.0,0.0,0.0,0.0,0.0,0.0,-0.3462,-0.3559,-0.3509,-0.3506,-0.3773,-0.4115,-0.4115,-0.3687,-0.3142,-0.2939,-0.2436,-0.1753,-0.0891,-0.0791,-0.0709,-0.0124,-0.0245,-0.0528,-0.0524,-0.0288,0.0,0.0,0.0,0.0,0.0,0.0,0.0,0.0,0.0,0.0,0.0,0.0,0.0,0.0,0.0,0.0,0.0,0.0,0.0,0.0,0.0,0.0,0.0,0.095,0.1676,0.223,0.3234,0.4015,0.4519,0.4519,0.4539,0.4587,0.4587,0.4619,0.4769,0.4877,0.4857,0.4775,0.4925,0.485,0.4701,0.5013,0.5094,0.5081,0.0,0.0,0.0,0.0,0.0,0.0,0.0,0.0,0.0,0.0,-0.4909,-0.4656,0.0,0.0,0.0,0.0,0.0,0.0,-0.3804,-0.3825,-0.3913,-0.408,-0.4238,-0.4627,-0.5311,-0.5685,-0.5806,-0.5734,-0.59,-0.6026,-0.6076,-0.6234,-0.6451,-0.6616,-0.4772,-0.4031,-0.422,-0.4406,-0.3963,-0.3155,-0.312,-0.3032,-0.2861,0.0,0.0,0.0,0.0,0.0,0.0,0.0,0.0,0.0,-0.3788,-0.3942,-0.3955,-0.3859,-0.4137,-0.4479,-0.4299,-0.3723,-0.3092,-0.2708,-0.2097,-0.1353,-0.0604,-0.0401,0.0,0.0,-0.0192,-0.031,-0.0306,-0.012,0.0,0.0,0.0,0.0,0.0,0.0,0.0,0.0,0.0,0.0,0.0,0.0,0.0,0.0,0.0,0.0,0.0,0.0,0.0,0.0,0.0,0.0,0.0,0.0727,0.1341,0.1785,0.2563,0.3178,0.3622,0.4236,0.4519,0.4519,0.4519,0.4573,0.4613,0.4762,0.4741,0.4613,0.4769,0.4714,0.4592,0.4925,0.5026,0.504,0.0,0.0,0.0,0.0,0.0,0.0,0.0,0.0,0.0,0.0,-0.4419,-0.4251,0.0,0.0,0.0,0.0,0.0,0.0,0.0,-0.3884,-0.4065,-0.4111,-0.4223,-0.4727,-0.5663,-0.6159,-0.6428,-0.6465,-0.6894,-0.7682,-0.8804,-0.777,-0.7276,-0.723,-0.6751,-0.6235,-0.5694,-0.5506,-0.5125,-0.4631,-0.4354,-0.3769,-0.3115,-0.3243,0.0,0.0,0.0,0.0,0.0,0.0,0.0,0.0,-0.3948,-0.4083,-0.4209,-0.3904,-0.4104,-0.4336,-0.3915,-0.3574,-0.3105,-0.2121,-0.1568,-0.1034,-0.0175,0.0,0.0,0.0,0.0,0.0,0.0,0.0,0.0,0.0,0.0,0.0,0.0,0.0,0.0,0.0,0.0,0.0,0.0,0.0,0.0,0.0,0.0,0.0,0.0,0.0,0.0,0.0,0.0,0.0,0.0,0.0672,0.1006,0.1118,0.1785,0.2119,0.223,0.3732,0.4408,0.4519,0.4519,0.4519,0.4525,0.4613,0.4585,0.4532,0.4613,0.4667,0.4687,0.4843,0.4986,0.5135,0.0,0.0,0.0,0.0,0.0,0.0,0.0,0.0,0.0,0.0,0.0,0.0,0.0,0.0,0.0,0.0,0.0,0.0,0.0,-0.4276,-0.4253,-0.4258,-0.4141,-0.4565,-0.5663,-0.6159,-0.6594,-0.7011,-0.7472,-0.8096,-0.8804,-0.8069,-0.7693,-0.7565,-0.6478,-0.5935,-0.5868,-0.5689,-0.5499,-0.5227,-0.5106,-0.4886,-0.4581,-0.4035,-0.404,0.0,0.0,0.0,0.0,0.0,0.0,0.0,-0.4395,-0.4603,-0.4724,-0.4716,-0.4703,-0.4692,-0.4568,-0.3786,-0.2858,-0.234,-0.1232,-0.0233,-0.0061,0.0,0.0,0.0,0.0,0.0,0.0,0.0,0.0,0.0,0.0,0.0,0.0,0.0,0.0,0.0,0.0,0.0,0.0,0.0,0.0,0.0,0.0,0.0,0.0,0.0,0.0,0.0,0.0,0.0,0.0,0.0168,0.0504,0.0,0.1285,0.1618,0.223,0.3123,0.3904,0.4519,0.4519,0.4519,0.4519,0.4553,0.4546,0.4519,0.4553,0.4567,0.4587,0.468,0.4836,0.4986,0.0,0.0,0.0,0.0,0.0,0.0,0.0,0.0,0.0,0.0,0.0,0.0,0.0,0.0,0.0,0.0,0.0,0.0,0.0,0.0,-0.4387,-0.43,-0.4256,-0.4567,-0.525,-0.5865,-0.6419,-0.7015,-0.7615,-0.823,-0.8804,-0.8196,-0.7824,-0.7664,-0.6588,-0.6026,-0.5825,-0.5629,-0.5471,-0.5415,-0.5379,-0.5154,-0.4803,-0.4463,-0.4423,-0.4495,-0.3994,0.0,0.0,0.0,0.0,0.0,0.0,0.0,-0.494,-0.4901,-0.4983,-0.4974,-0.4572,-0.3591,-0.2488,-0.1448,-0.0615,0.0,0.0,0.0,0.0,0.0,0.0,0.0,0.0,0.0,0.0,0.0,0.0,0.0,0.0,0.0,0.0,0.0,0.0,0.0,0.0,0.0,0.0,0.0,0.0,0.0,0.0,0.0,0.0,0.0,0.0,0.0,0.0,0.0,0.0168,0.056,0.056,0.095,0.1729,0.2785,0.3566,0.4015,0.4346,0.4519,0.4519,0.4519,0.4519,0.4519,0.4519,0.4519,0.4539,0.4633,0.4789,0.4931,0.0,0.0,0.0,0.0,0.0,0.0,0.0,0.0,0.0,0.0,0.0,0.0,0.0,0.0,0.0,0.0,0.0,0.0,0.0,0.0,0.0,-0.4352,-0.4332,-0.4536,-0.4931,-0.5546,-0.6267,-0.7061,-0.7762,-0.8355,-0.8829,-0.8237,-0.7877,-0.761,-0.6815,-0.6209,-0.5701,-0.5518,-0.5384,-0.5348,-0.5339,-0.5088,-0.4771,-0.4693,-0.4642,-0.4527,-0.3885,-0.3845,-0.4113,-0.4338,0.0,0.0,0.0,0.0,-0.5008,-0.4964,-0.5045,-0.5034,-0.444,-0.3403,-0.21,-0.0542,-0.0057,0.0,0.0,0.0,0.0,0.0,0.0,0.0,0.0,0.0,0.0,0.0,0.0,0.0,0.0,0.0,0.0,0.0,0.0,0.0,0.0,0.0,0.0,0.0,0.0,0.0,0.0,0.0,0.0,0.0,0.0,0.0,0.0,0.0,0.0,0.0,0.0,0.0336,0.095,0.2286,0.3067,0.34,0.4181,0.4519,0.4519,0.4519,0.4519,0.4519,0.4519,0.4519,0.4532,0.4606,0.4762,0.4918,0.0,0.0,0.0,0.0,0.0,0.0,0.0,0.0,0.0,0.0,-0.3459,-0.3432,0.0,0.0,0.0,0.0,0.0,0.0,0.0,0.0,0.0,-0.4535,-0.4014,-0.4231,-0.5363,-0.5613,-0.6487,-0.803,-0.8588,-0.8884,-0.8969,-0.8515,-0.7984,-0.7343,-0.6966,-0.6308,-0.5374,-0.5527,-0.5379,-0.5056,-0.5035,-0.5172,-0.5298,-0.4815,-0.4804,-0.5021,-0.4557,-0.4389,-0.4429,-0.4487,-0.4784,0.0,0.0,0.0,-0.5152,-0.5492,-0.5148,-0.4717,-0.4918,-0.3658,-0.2062,-0.106,-0.0385,0.0,0.0,0.0,0.0,0.0,0.0,0.0,0.0,0.0,0.0,0.0,0.0,0.0,0.0,0.0,0.0,0.0,0.0,0.0,0.0,0.0,0.0,0.0,0.0,0.0,0.0,0.0,0.0,0.0,0.0,0.0,0.0,0.0,0.0,0.0,0.0,0.0056,0.0168,0.1006,0.2119,0.3345,0.4181,0.4519,0.4519,0.4519,0.4519,0.4519,0.4519,0.4519,0.4519,0.4539,0.4674,0.4897,0.0,0.0,0.0,0.0,0.0,0.0,0.0,0.0,0.0,0.0,0.0,-0.3622,0.0,0.0,0.0,0.0,0.0,0.0,0.0,0.0,0.0,-0.406,-0.3921,-0.4357,-0.54,-0.6034,-0.6929,-0.8114,-0.8704,-0.8873,-0.8664,-0.8459,-0.7985,-0.7131,-0.6421,-0.6081,-0.602,-0.5106,-0.5014,-0.5462,-0.5065,-0.4933,-0.5004,-0.4868,-0.5109,-0.5334,-0.4371,-0.4244,-0.4581,-0.474,-0.4936,-0.5124,-0.5166,0.0,0.0,0.0,-0.4971,-0.4815,-0.4422,-0.3585,-0.2609,-0.1728,-0.129,-0.1039,-0.0669,-0.0616,-0.0504,-0.0112,0.0,0.0,0.0,0.0,0.0,0.0,0.0,0.0,0.0,0.0,0.0,0.0,0.0,0.0,0.0,0.0,0.0,0.0,0.0,0.0,0.0,0.0,0.0,0.0,0.0,0.0,0.0,0.0,0.0,0.0,0.0,0.0,0.0,0.0783,0.1673,0.273,0.3063,0.3677,0.4463,0.4015,0.407,0.4519,0.4519,0.4519,0.4519,0.4519,0.4599,0.4769,0.0,0.0,0.0,0.0,0.0,0.0,0.0,0.0,0.0,0.0,0.0,0.0,0.0,0.0,0.0,0.0,0.0,0.0,0.0,0.0,0.0,-0.3626,-0.3921,-0.4506,-0.5369,-0.6372,-0.7313,-0.8114,-0.8857,-0.8952,-0.8567,-0.8457,-0.7915,-0.6941,-0.6213,-0.6066,-0.6228,-0.4816,-0.4743,-0.5452,-0.5012,-0.4687,-0.4559,-0.5014,-0.5281,-0.5296,-0.4437,-0.4381,-0.4754,0.0,-0.5101,-0.5005,-0.5188,-0.4952,0.0,0.0,0.0,-0.4912,-0.4146,-0.3698,-0.3304,-0.2492,-0.2198,-0.1922,0.0,0.0,-0.0894,0.0,0.0,0.0,0.0,0.0,0.0,0.0,0.0,0.0,0.0,0.0,0.0,0.0,0.0,0.0,0.0,0.0,0.0,0.0,0.0,0.0,0.0,0.0,0.0,0.0,0.0,0.0,0.0,0.0,0.0,0.0,0.0,0.0,0.0,0.056,0.1341,0.223,0.2397,0.3289,0.4463,0.3843,0.3959,0.4519,0.4519,0.4519,0.4519,0.4519,0.4558,0.4667,0.0,0.0,0.0,0.0,0.0,0.0,0.0,0.0,0.0,0.0,0.0,0.0,-0.4009,-0.439,-0.4628,-0.4628,-0.4534,0.0,0.0,0.0,0.0,-0.3581,-0.3921,0.0,-0.5275,-0.6292,-0.7341,-0.8475,-0.9283,-0.9455,-0.9043,-0.8685,-0.7872,-0.6753,-0.6917,-0.6326,-0.5162,-0.5017,-0.4743,-0.4408,-0.4764,-0.4663,-0.44,-0.5241,-0.5184,-0.4721,-0.5385,-0.5373,0.0,0.0,0.0,0.0,-0.5545,-0.4961,-0.4256,0.0,0.0,0.0,-0.4675,-0.4394,-0.4058,-0.3322,-0.2809,-0.222,0.0,0.0,0.0,0.0,0.0,0.0,0.0,0.0,0.0,0.0,0.0,0.0,0.0,0.0,0.0,0.0,0.0,0.0,0.0,0.0,0.0,0.0,0.0,0.0,0.0,0.0,0.0,0.0,0.0,0.0,0.0,0.0,0.0,0.0,0.0,0.0,0.0,0.0056,0.0838,0.223,0.3012,0.3793,0.4519,0.4463,0.4463,0.4519,0.4519,0.4519,0.4519,0.4519,0.4558,0.4667,0.0,0.0,0.0,0.0,0.0,0.0,0.0,0.0,0.0,0.0,0.0,0.0,0.0,-0.5073,-0.5052,-0.4884,-0.4862,0.0,0.0,0.0,0.0,-0.4496,-0.4648,-0.5027,-0.5655,-0.7132,-0.8138,-0.8565,-0.9787,-0.9883,-0.9044,-0.8716,-0.7989,-0.6925,-0.6671,-0.6327,-0.5903,-0.526,-0.5024,-0.5042,-0.4903,-0.4625,-0.4322,-0.4735,-0.4734,-0.4548,0.0,0.0,0.0,0.0,0.0,0.0,-0.4997,-0.4808,-0.4482,-0.4709,-0.4613,-0.4439,-0.4308,-0.4401,0.0,-0.399,-0.3489,-0.2875,-0.2104,-0.1524,-0.0894,0.0,0.0,0.0,0.0,0.0,0.0,0.0,0.0,0.0,0.0,0.0,0.0,0.0,0.0,0.0,0.0,0.0,0.0,0.0,0.0,0.0,0.0,0.0,0.0,0.0,0.0,0.0,0.0,0.0,0.0,0.0,0.0,0.0,0.0,0.0,0.0783,0.223,0.2508,0.3345,0.4463,0.3959,0.4015,0.4519,0.4519,0.4519,0.4519,0.4519,0.4553,0.4594,0.0,0.0,0.0,0.0,0.0,0.0,0.0,0.0,-0.49,-0.521,0.0,0.0,0.0,0.0,-0.5438,-0.5171,-0.5264,-0.5254,-0.5056,-0.4932,-0.4861,-0.4861,-0.5002,-0.5331,-0.5871,-0.7333,-0.841,-0.9038,-1.0108,-1.009,-0.9011,-0.8716,-0.8077,-0.7234,-0.6692,-0.6458,-0.6348,-0.551,-0.5311,-0.546,-0.519,-0.4867,-0.4646,-0.4882,-0.4938,0.0,0.0,0.0,0.0,0.0,0.0,0.0,-0.4671,-0.4645,-0.4439,-0.4439,-0.4264,-0.4089,-0.4089,0.0,0.0,0.0,-0.4243,-0.3765,-0.2675,0.0,0.0,0.0,0.0,0.0,0.0,0.0,0.0,0.0,0.0,0.0,0.0,0.0,0.0,0.0,0.0,0.0,0.0,0.0,0.0,0.0,0.0,0.0,0.0,0.0,0.0,0.0,0.0,0.0,0.0,0.0,0.0,0.0,0.0,0.0,0.0,0.0,0.0672,0.184,0.2119,0.3063,0.4463,0.3904,0.4015,0.4519,0.4519,0.4519,0.4519,0.4519,0.4519,0.4519,0.0,0.0,0.0,0.0,0.0,0.0,0.0,0.0,-0.5328,-0.5336,0.0,0.0,0.0,0.0,0.0,-0.5553,-0.5758,-0.5567,-0.4701,-0.4631,-0.4631,-0.4631,0.0,0.0,-0.5825,-0.6805,-0.8137,-0.9867,-1.0278,-0.9981,-0.9101,-0.87,-0.815,-0.753,-0.7196,-0.6816,-0.6416,-0.5793,-0.5534,-0.5533,-0.5557,-0.5438,-0.5269,-0.5677,0.0,0.0,-0.4787,-0.4512,0.0,-0.4815,0.0,0.0,-0.4669,-0.4455,-0.4089,-0.4089,-0.4089,-0.4089,0.0,0.0,0.0,0.0,0.0,0.0,-0.2775,0.0,0.0,0.0,0.0,0.0,0.0,0.0,0.0,0.0,0.0,0.0,0.0,0.0,0.0,0.0,0.0,0.0,0.0,0.0,0.0,0.0,0.0,0.0,0.0,0.0,0.0,0.0,0.0,0.0,0.0,0.0,0.0,0.0,0.0,0.0,0.0,0.0,0.0392,0.1118,0.1896,0.3067,0.4463,0.4519,0.4519,0.4519,0.4519,0.4519,0.4519,0.4519,0.4519,0.4519,0.0,0.0,0.0,0.0,0.0,-0.5664,-0.6055,-0.5979,-0.6039,0.0,0.0,0.0,-0.6616,-0.6428,-0.6318,-0.6362,-0.6133,-0.595,-0.5898,-0.5744,-0.5677,-0.5898,-0.5789,-0.5902,-0.6229,-0.699,-0.7842,-0.8736,-0.9346,-0.956,-0.9402,-0.9056,-0.8691,-0.8207,-0.773,-0.7461,-0.7293,-0.6816,-0.6307,-0.5837,-0.5497,-0.5259,-0.5097,0.0,0.0,0.0,0.0,-0.4481,-0.4525,0.0,-0.4394,-0.413,0.0,-0.4216,-0.4089,-0.4089,-0.3921,-0.3751,-0.3751,0.0,0.0,0.0,0.0,0.0,0.0,0.0,0.0,0.0,0.0,0.0,0.0,0.0,0.0,0.0,0.0,0.0,0.0,0.0,0.0,0.0,0.0,0.0,0.0,0.0,0.0,0.0,0.0,0.0,0.0,0.0,0.0,0.0,0.0,0.0,0.0,0.0,0.0,0.0,0.0,0.0,0.0,0.0,0.0392,0.1118,0.1896,0.273,0.3677,0.4236,0.4519,0.4519,0.4519,0.4519,0.4519,0.4519,0.4519,0.4519,0.0,0.0,0.0,-0.592,-0.623,-0.6576,-0.6701,-0.6614,-0.6672,0.0,0.0,0.0,-0.7158,-0.6848,-0.659,-0.6579,-0.6224,-0.613,-0.6376,-0.6151,-0.6173,-0.6568,-0.6288,-0.6324,-0.6676,-0.7097,-0.7589,-0.8212,-0.8881,-0.9235,-0.9334,-0.9169,-0.8904,-0.8473,-0.8036,-0.7795,-0.767,-0.7196,-0.6774,-0.6343,-0.5585,0.0,0.0,-0.4718,-0.4783,0.0,0.0,0.0,-0.4703,-0.4566,-0.4298,0.0,0.0,0.0,0.0,-0.4045,-0.3877,0.0,0.0,0.0,0.0,0.0,0.0,0.0,-0.3411,-0.3058,0.0,0.0,0.0,0.0,0.0,0.0,0.0,0.0,0.0,0.0,0.0,0.0,0.0,0.0,0.0,0.0,0.0,0.0,0.0,0.0,0.0,0.0,0.0,0.0,0.0,0.0,0.0,0.0,0.0,0.0,0.0,0.0,0.0,0.0,0.0,0.0,0.0224,0.0672,0.1729,0.2452,0.2952,0.4015,0.4519,0.4519,0.4519,0.4519,0.4519,0.4519,0.4519,0.4519,0.0,0.0,-0.7314,-0.6826,-0.7177,-0.7398,-0.7134,-0.7074,-0.7062,0.0,-0.7373,-0.7521,-0.7263,-0.7057,-0.6822,-0.6477,-0.6214,-0.6145,-0.635,-0.6123,-0.6198,-0.6798,-0.6591,-0.6661,-0.7133,-0.7139,-0.7413,-0.8085,-0.8621,-0.8956,-0.9093,-0.9093,-0.8871,-0.848,-0.8193,-0.7904,-0.767,-0.7264,-0.7038,-0.6927,-0.5909,-0.5325,0.0,0.0,-0.5235,-0.5692,-0.4998,-0.487,-0.4984,-0.4634,-0.4299,0.0,0.0,0.0,0.0,0.0,-0.3847,0.0,0.0,0.0,0.0,0.0,0.0,0.0,-0.3604,-0.3476,-0.3094,0.0,0.0,0.0,0.0,0.0,0.0,0.0,0.0,0.0,0.0,0.0,0.0,0.0,0.0,0.0,0.0,0.0,0.0,0.0,0.0,0.0,0.0,0.0,0.0,0.0,0.0,0.0,0.0,0.0,0.0,0.0,0.0,0.0,0.0,0.0,0.0,0.0056,0.1564,0.2174,0.2341,0.3849,0.4519,0.4519,0.4519,0.4519,0.4519,0.4519,0.4519,0.4519,0.0,-0.7042,-0.7253,-0.7076,-0.7306,-0.7398,-0.7134,-0.6918,-0.6858,-0.7074,-0.7338,-0.7516,-0.7452,-0.7452,-0.7257,-0.6699,-0.6497,-0.6316,-0.611,-0.5881,-0.6068,-0.6786,-0.6763,-0.6947,-0.7419,-0.7217,-0.7418,-0.8085,-0.799,-0.8307,-0.9004,-0.9004,-0.8848,-0.848,-0.8357,-0.8085,-0.7714,-0.7729,-0.7424,-0.6985,-0.6753,-0.6407,-0.5955,-0.5302,-0.528,-0.5483,-0.4805,-0.4678,-0.4838,-0.4605,-0.4357,-0.4158,0.0,0.0,0.0,-0.374,0.0,0.0,0.0,0.0,0.0,0.0,0.0,0.0,-0.3649,-0.3844,-0.3798,0.0,0.0,0.0,0.0,0.0,0.0,0.0,0.0,0.0,0.0,0.0,0.0,0.0,0.0,0.0,0.0,0.0,0.0,0.0,0.0,0.0,0.0,0.0,0.0,0.0,0.0,0.0,0.0,0.0,0.0,0.0,0.0,0.0,0.0,0.0,0.0,0.0056,0.1564,0.2174,0.2341,0.3849,0.4519,0.4519,0.4519,0.4519,0.4519,0.4519,0.4519,0.4519,-0.7331,-0.7664,-0.7705,-0.7374,-0.7499,-0.7595,-0.7363,-0.7198,-0.7262,-0.7694,-0.799,-0.8131,-0.797,-0.7875,-0.7633,-0.7152,-0.6953,-0.6778,-0.6578,-0.6464,-0.6602,-0.713,-0.705,-0.7277,-0.7986,-0.7389,-0.749,-0.8369,-0.8002,-0.8136,-0.8765,-0.8926,-0.9069,-0.9198,-0.8606,-0.8207,-0.7976,-0.7948,-0.7875,-0.7862,-0.7373,0.0,-0.6959,-0.5736,-0.5408,-0.5437,-0.4732,-0.458,-0.4656,-0.453,-0.4451,0.0,0.0,-0.4066,-0.4065,0.0,-0.3737,-0.3758,0.0,0.0,0.0,-0.3581,0.0,0.0,0.0,-0.3876,-0.3812,-0.2965,-0.2874,0.0,0.0,0.0,0.0,0.0,0.0,0.0,0.0,0.0,0.0,0.0,0.0,0.0,0.0,0.0,0.0,0.0,0.0,0.0,0.0,0.0,0.0,0.0,0.0,0.0,0.0,0.0,0.0,0.0,0.0,0.0,0.0,0.0,0.0,0.0056,0.1174,0.184,0.2286,0.3456,0.4181,0.4519,0.4519,0.4519,0.4519,0.4519,0.4519,0.4519,-0.7931,-0.8212,-0.8255,-0.7791,-0.7819,-0.7842,-0.7725,-0.7639,-0.7776,-0.8377,-0.871,-0.8805,-0.8602,-0.8399,-0.819,-0.7859,-0.756,-0.7339,-0.7258,-0.713,-0.7157,-0.752,-0.7325,-0.7636,-0.8599,-0.7719,-0.7744,-0.8683,-0.8311,-0.8275,-0.8602,-0.8971,-0.9364,-0.9786,-0.8996,-0.8505,-0.8338,-0.824,-0.8369,-0.8645,0.0,-0.7844,-0.7892,-0.6388,-0.5783,-0.5601,-0.4787,-0.4519,-0.4519,-0.4574,-0.4598,-0.4537,-0.4465,-0.4429,0.0,0.0,0.0,0.0,0.0,0.0,0.0,0.0,0.0,-0.3609,0.0,0.0,0.0,-0.3126,0.0,0.0,0.0,0.0,0.0,0.0,0.0,0.0,0.0,0.0,0.0,0.0,0.0,0.0,-0.0107,-0.01,-0.0047,0.0,-0.0045,-0.0046,0.0,0.0,0.0,0.0,0.0,0.0,0.0,0.0,0.0,0.0,0.0,0.0,0.0,0.0,0.0,0.0056,0.0783,0.1506,0.2286,0.3067,0.3849,0.4519,0.4519,0.4519,0.4519,0.4519,0.4519,0.4519,-0.8315,-0.8384,-0.839,-0.8446,-0.8131,-0.8004,-0.8339,-0.8104,-0.8083,-0.8684,-0.8803,-0.8884,-0.9193,-0.9134,-0.9081,-0.9105,-0.8396,-0.7923,-0.787,-0.7224,-0.7071,-0.7583,-0.7534,-0.7974,-0.8916,-0.8483,-0.8514,-0.9051,-0.8632,-0.8602,-0.8943,-0.9342,-0.9427,-0.9218,-0.962,-0.9312,-0.8508,-0.9004,-0.8827,0.0,-0.8567,-0.8659,0.0,-0.7499,-0.6838,-0.6317,-0.4952,-0.4519,-0.4574,0.0,-0.4885,-0.4836,0.0,-0.5095,-0.4692,-0.4495,0.0,0.0,0.0,0.0,0.0,0.0,-0.3581,0.0,0.0,0.0,-0.3609,-0.3533,0.0,0.0,0.0,0.0,0.0,0.0,0.0,0.0,0.0,0.0,0.0,0.0,0.0,0.0,0.0,-0.0399,-0.0238,0.0,-0.023,-0.0229,0.0,0.0,0.0,0.0,0.0,0.0,0.0,0.0,0.0,0.0,0.0,0.0,0.0,0.0,0.0,0.0056,0.0783,0.1506,0.223,0.3012,0.3788,0.4519,0.4519,0.4519,0.4519,0.4519,0.4519,0.4519,-0.8699,-0.8659,-0.8666,-0.8827,-0.8454,-0.8323,-0.8747,-0.9325,-0.9535,-0.9072,-0.9783,-1.0186,-0.9807,-0.9761,-0.9675,-0.9556,0.0,-0.8783,0.0,0.0,-0.7735,-0.7797,-0.7647,-0.7983,-0.8982,-0.8269,-0.8466,-0.9692,-0.9064,-0.8996,-0.9367,-0.9743,-0.9915,-0.9915,-0.9782,-0.9659,-0.9566,-0.9349,-0.8999,0.0,0.0,0.0,0.0,-0.7874,-0.6871,-0.5819,-0.4842,-0.4519,-0.4519,0.0,-0.4954,0.0,0.0,0.0,0.0,0.0,0.0,0.0,0.0,0.0,0.0,0.0,0.0,0.0,-0.3602,0.0,-0.3581,0.0,0.0,0.0,0.0,0.0,0.0,0.0,-0.3003,0.0,0.0,0.0,0.0,0.0,0.0,0.0,0.0,0.0,0.0,0.0,-0.0091,-0.0139,0.0,0.0,0.0,0.0,0.0,0.0,0.0,0.0,0.0,0.0,0.0,0.0,0.0,0.0,0.0,0.0,0.0336,0.0894,0.1564,0.1896,0.273,0.3849,0.3849,0.407,0.4519,0.4519,0.4519,0.4519,-0.8965,-0.8949,-0.9123,-0.9511,-0.9012,-0.8719,-0.9191,-1.0254,-1.0842,-1.0236,-1.1019,-1.1475,-1.1148,-1.1148,0.0,0.0,-1.0678,-1.0214,0.0,0.0,-0.8502,0.0,0.0,0.0,-0.8962,-0.8372,-0.867,-0.9963,-0.9518,-0.946,-0.9761,-1.0075,-1.0366,-1.0486,-1.0092,-1.015,-1.049,0.0,-0.926,-0.9081,-0.9166,-0.9112,-0.8804,-0.802,-0.6902,-0.571,-0.5109,-0.4732,-0.4519,-0.4519,-0.4846,0.0,-0.5103,0.0,0.0,0.0,0.0,0.0,-0.4011,0.0,0.0,0.0,0.0,0.0,0.0,0.0,0.0,0.0,0.0,0.0,0.0,0.0,0.0,0.0,0.0,-0.3049,0.0,0.0,0.0,0.0,0.0,0.0,0.0,0.0,0.0,0.0,0.0,-0.0092,0.0,0.0,0.0,0.0,0.0,0.0,0.0,0.0,0.0,0.0,0.0,0.0,0.0,0.0,0.0,0.0,0.0,0.0392,0.1118,0.1118,0.2007,0.34,0.3345,0.3788,0.4519,0.4519,0.4519,0.4519,-0.911,-0.9377,-0.9888,-1.0963,-0.9967,-0.9213,-0.9886,-1.0586,-1.1439,-1.245,-1.2322,0.0,0.0,0.0,0.0,0.0,0.0,-1.2439,-1.0639,0.0,-0.9061,0.0,0.0,-0.8448,0.0,-0.9292,-0.9524,-0.9735,-0.9955,-1.0092,-1.0075,-1.0467,-1.0634,-1.0548,-1.088,-1.0998,-1.0947,-1.0131,-0.9769,-0.9718,-0.9068,-0.8991,-0.9081,0.0,-0.7235,-0.648,-0.6036,0.0,0.0,-0.4519,-0.4631,0.0,0.0,0.0,0.0,0.0,0.0,0.0,0.0,0.0,0.0,-0.3649,0.0,0.0,0.0,0.0,-0.3303,0.0,0.0,0.0,0.0,0.0,0.0,0.0,0.0,0.0,0.0,0.0,0.0,0.0,0.0,0.0,0.0,0.0,0.0,0.0,-0.0389,0.0,0.0,0.0,0.0,0.0,0.0,0.0,0.0,0.0,0.0,0.0,0.0,0.0,0.0,0.0,0.0,0.0,0.0,0.0392,0.1118,0.1118,0.2007,0.34,0.3345,0.3788,0.4519,0.4519,0.4519,0.4519,-1.0277,-1.0739,-1.1026,-1.1043,-1.0888,-1.0997,-1.1752,-1.2488,0.0,0.0,-1.338,0.0,0.0,-1.3725,-1.3586,0.0,0.0,-1.2372,-1.1009,-1.0443,0.0,0.0,0.0,-0.8778,0.0,-0.8896,-0.9146,-0.9895,-0.9987,-1.0205,-1.0484,-1.0908,-1.0942,-1.062,-1.0464,-1.0462,0.0,0.0,0.0,0.0,0.0,-0.9098,-0.8831,0.0,0.0,-0.6845,-0.5973,-0.5164,0.0,-0.4579,-0.4854,-0.5144,-0.5366,-0.5599,-0.5734,-0.5297,-0.5135,0.0,0.0,0.0,-0.4267,-0.407,0.0,0.0,0.0,0.0,0.0,0.0,0.0,0.0,0.0,0.0,0.0,0.0,0.0,0.0,0.0,0.0,0.0,0.0,0.0,0.0,0.0,0.0,0.0,0.0,-0.0137,0.0,0.0,0.0,0.0,0.0,0.0,0.0,0.0,0.0,0.0,0.0,0.0,0.0,0.0,0.0,0.0,0.0,0.0,0.0168,0.0392,0.0392,0.095,0.1896,0.2397,0.3067,0.3849,0.4298,0.4519,0.4532,-1.09,-1.149,-1.189,-1.1833,-1.2273,-1.2802,0.0,0.0,0.0,0.0,-1.5193,0.0,-1.5227,0.0,-1.4674,0.0,-1.4163,-1.3515,-1.149,-1.1263,0.0,-0.9686,-0.9512,0.0,0.0,0.0,-0.9153,-0.9354,-1.0023,-1.0435,-1.0582,-1.1065,-1.1148,-1.0876,-1.0277,-1.0347,-1.0841,-0.9911,-0.9683,0.0,0.0,-0.9406,0.0,0.0,-0.7711,-0.6956,0.0,-0.5466,-0.4646,-0.4775,-0.4974,-0.5159,-0.5116,-0.5443,-0.5763,-0.5297,-0.5262,-0.5261,-0.4855,-0.466,0.0,-0.4247,-0.408,0.0,-0.35,0.0,0.0,0.0,0.0,0.0,0.0,0.0,0.0,0.0,0.0,0.0,0.0,-0.2854,0.0,0.0,0.0,0.0,0.0,0.0,0.0,-0.0141,-0.0142,-0.0146,0.0,0.0,0.0,0.0,0.0,0.0,0.0,0.0,0.0,0.0,0.0,0.0,0.0,0.0,0.0,0.0,0.0,0.0,0.0,0.0,0.0448,0.1174,0.1618,0.2452,0.3511,0.4236,0.4553,0.4558,-1.0943,-1.1838,-1.2722,0.0,-1.4114,0.0,0.0,0.0,-1.7293,0.0,-1.7548,-1.7398,-1.8175,-1.7775,-1.686,-1.5132,-1.6214,-1.5583,-1.2236,-1.2184,0.0,0.0,-1.0528,-1.0322,-0.9465,0.0,0.0,0.0,-1.0068,-1.0754,-1.0435,-1.0981,-1.1267,-1.1267,-1.0403,-1.0551,-1.1464,-0.9909,-0.9771,-1.0594,-1.0003,-0.9873,-1.0074,-0.982,-0.8595,-0.7027,-0.7111,-0.6173,-0.4992,-0.5095,-0.5006,-0.4952,-0.5094,-0.5142,-0.5169,-0.5318,-0.5425,-0.5298,-0.502,-0.4823,-0.4633,-0.4301,0.0,0.0,0.0,0.0,-0.2934,0.0,0.0,0.0,0.0,0.0,0.0,0.0,0.0,0.0,0.0,0.0,0.0,0.0,0.0,0.0,0.0,0.0,-0.0884,-0.045,-0.0487,-0.0345,0.0,0.0,0.0,0.0,0.0,0.0,0.0,0.0,0.0,0.0,0.0,0.0,0.0,0.0,0.0,0.0,0.0,0.0,0.0,0.0,0.0392,0.1062,0.1062,0.2007,0.3456,0.4236,0.4558,0.4694,-1.2382,-1.399,-1.5173,0.0,-1.4974,-1.5283,0.0,0.0,0.0,0.0,-1.8673,-1.8924,-1.91,-1.824,-1.7341,-1.664,-1.5977,0.0,0.0,0.0,0.0,-1.3039,-1.2291,-1.1396,-1.0309,-1.0134,0.0,-0.9557,0.0,-1.0529,-1.0855,-1.0717,-1.0863,-1.1285,-1.034,-1.0334,-1.103,-1.0217,-1.0045,-1.0246,-1.037,-1.0114,-0.9833,0.0,-0.9518,-0.8226,-0.7509,-0.6644,-0.5775,-0.5255,-0.5094,-0.5101,-0.5257,-0.5304,-0.5311,-0.5418,-0.5425,-0.5411,-0.527,-0.506,-0.4843,-0.4769,-0.4408,-0.392,0.0,0.0,0.0,0.0,0.0,0.0,0.0,0.0,0.0,0.0,0.0,0.0,0.0,0.0,0.0,-0.1746,0.0,0.0,0.0,-0.0789,-0.0585,-0.0483,-0.0492,-0.0355,0.0,0.0,0.0,0.0,0.0,0.0,0.0,0.0,0.0,0.0,0.0,0.0,0.0,0.0,0.0,0.0,0.0,0.0,0.0,0.0,0.0112,0.0336,0.0894,0.1673,0.2674,0.4015,0.4558,0.4707,-1.2819,-1.4745,0.0,-1.64,0.0,0.0,-1.7852,-1.8086,0.0,-1.9403,-1.9607,0.0,-1.9746,-1.9298,-1.8466,-1.716,-1.636,0.0,-1.3709,0.0,0.0,-1.2933,-1.2518,-1.1997,-1.1343,-1.0608,0.0,-1.0234,0.0,-1.0251,-1.0034,-0.9798,-1.0038,-1.0578,-1.0082,-1.0248,-1.0814,-1.0485,-1.0381,-1.0501,-1.0541,-1.043,0.0,-1.0497,-0.9932,-0.8896,-0.7933,-0.7088,-0.6295,-0.5517,-0.523,-0.5243,-0.5332,-0.5425,-0.5425,-0.5425,-0.5425,-0.5425,-0.5425,-0.5189,-0.5013,-0.5013,-0.4728,-0.4149,-0.3106,-0.2746,-0.2273,0.0,0.0,0.0,0.0,0.0,0.0,0.0,0.0,0.0,0.0,0.0,0.0,0.0,-0.1509,0.0,0.0,-0.0903,-0.0549,-0.0734,-0.0597,-0.0407,0.0,0.0,0.0,0.0,0.0,0.0,0.0,0.0,0.0,0.0,0.0,0.0,0.0,0.0,0.0,0.0,0.0,0.0,0.0,0.0,0.0,0.0056,0.0838,0.1341,0.1899,0.3513,0.4192,0.4392,-1.2975,-1.4979,0.0,0.0,0.0,0.0,0.0,-1.919,0.0,-2.0644,0.0,-2.0443,-2.0443,-2.0483,-1.963,-1.7378,0.0,-1.5693,-1.3319,-1.3748,-1.332,-1.161,-1.2024,-1.2305,-1.2305,-1.1156,-1.0618,0.0,0.0,-1.0033,-0.8869,-0.8658,-0.9015,-0.9771,-0.9841,-1.0208,0.0,-1.0676,-1.0742,-1.0915,-1.0661,-1.0618,-1.0618,-1.0618,-1.0047,-0.9204,-0.8291,-0.7437,-0.6588,-0.569,-0.5425,-0.5425,-0.5425,-0.5425,-0.5425,-0.5425,-0.5425,-0.5425,-0.5425,-0.525,-0.5128,-0.5128,-0.4925,-0.4391,-0.3232,-0.2857,-0.2331,-0.078,-0.0695,-0.0946,0.0,0.0,0.0,0.0,0.0,0.0,0.0,0.0,0.0,0.0,0.0,0.0,0.0,0.0,-0.075,-0.1102,-0.08,-0.0553,0.0,0.0,0.0,0.0,0.0,0.0,0.0,0.0,0.0,0.0,0.0,0.0,0.0,0.0,0.0,0.0,0.0,0.0,0.0,0.0,0.0,0.0056,0.0728,0.0953,0.113,0.2739,0.337,0.3599,-1.4782,0.0,0.0,0.0,0.0,-1.8752,-1.9083,-2.0391,-2.1484,-2.1641,-2.2213,-2.2544,-2.2544,-2.0677,-1.9296,-1.9011,-1.6536,0.0,0.0,0.0,0.0,-1.2211,-1.2251,-1.2305,-1.2305,-1.1156,-1.0618,0.0,0.0,-1.0197,-0.9346,-0.8016,-0.8361,-1.0018,-0.9978,-1.0208,-1.0627,-1.086,0.0,-1.0698,-1.0645,-1.0618,-1.0618,-1.0618,-1.0047,-0.9204,-0.8291,-0.7437,-0.6588,-0.569,-0.5425,-0.5425,-0.5425,-0.5425,-0.5425,-0.5425,-0.5425,-0.5425,-0.5425,-0.525,-0.5128,-0.5128,-0.5006,-0.4477,-0.293,-0.2546,-0.2063,-0.045,-0.0167,-0.0274,-0.0543,0.0,0.0,0.0,0.0,0.0,0.0,0.0,0.0,0.0,0.0,-0.082,0.0,0.0,0.0,-0.1107,-0.1059,0.0,0.0,0.0,0.0,0.0,0.0,0.0,0.0,0.0,0.0,0.0,0.0,0.0,0.0,0.0,0.0,0.0,0.0,0.0,0.0,0.0,0.0,0.0,0.0168,0.0171,0.0293,0.1327,0.1743,0.2044,-1.6576,0.0,0.0,0.0,0.0,0.0,0.0,-2.1346,-2.1882,-2.123,-2.139,-2.176,-2.2395,-2.0985,-1.9746,-1.9112,-1.6824,-1.5175,-1.4596,-1.4242,-1.3828,-1.3253,-1.2639,0.0,-1.2305,-1.1156,-1.0618,-1.0618,0.0,0.0,-0.8947,-0.852,-0.9065,-1.0335,-1.0335,-1.0555,0.0,0.0,0.0,-1.0768,-1.0685,-1.0618,-1.0618,-1.0618,-0.9779,-0.8549,-0.8161,-0.7186,-0.5947,-0.5557,-0.5425,-0.5425,-0.5425,-0.5425,-0.5425,-0.5425,-0.5425,-0.5425,-0.5425,-0.5304,-0.525,-0.525,-0.5135,-0.4572,-0.296,-0.2552,-0.2026,-0.0347,0.0,-0.0113,-0.043,-0.0827,0.0,0.0,0.0,0.0,0.0,0.0,0.0,0.0,0.0,0.0,0.0,0.0,0.0,0.0,0.0,0.0,0.0,0.0,0.0,0.0,0.0,0.0,0.0,0.0,0.0,0.0,0.0,0.0,0.0,0.0,0.0,0.0,0.0,0.0,0.0,0.0,0.0,0.0,0.0,0.0,0.0118,0.0992,0.1273,0.1612,0.0,-1.818,0.0,0.0,-1.9323,0.0,-2.024,-2.1043,-2.148,-2.1192,-2.0616,-2.0638,-2.1625,-2.068,-1.9627,-1.8712,-1.6939,-1.5362,-1.43,-1.4055,-1.3948,-1.3895,-1.2879,-1.2305,-1.2305,-1.1156,-1.0618,0.0,0.0,0.0,0.0,-0.9753,-1.0352,0.0,0.0,0.0,0.0,0.0,-1.0808,-1.0875,-1.0712,-1.0618,-1.0618,-1.0618,-0.9512,-0.8032,-0.8017,-0.692,-0.5413,-0.5447,-0.548,-0.5425,-0.5425,-0.5425,-0.5425,-0.5425,-0.5425,-0.5425,-0.5425,-0.5425,-0.5425,-0.5425,-0.527,-0.4714,-0.3079,-0.2634,-0.2073,-0.0355,0.0,-0.0115,-0.0431,-0.068,0.0,0.0,0.0,0.0,0.0,0.0,0.0,0.0,0.0,0.0,-0.0772,0.0,0.0,0.0,0.0,0.0,-0.0402,0.0,0.0,0.0,0.0,0.0,0.0,0.0,0.0,0.0,0.0,0.0,0.0,0.0,0.0,0.0,0.0,0.0,0.0,0.0,0.0,0.0,0.0,0.0,0.006,0.076,0.1035,0.1238,0.0,0.0,0.0,0.0,0.0,0.0,-1.7744,-1.8318,-1.9942,-2.3081,-2.2162,-2.1175,-2.1371,-1.882,-1.7611,-1.8692,-1.6036,-1.4426,-1.4603,-1.3948,-1.348,-1.3307,-1.2652,-1.2305,-1.2305,-1.1156,-1.0618,0.0,0.0,-1.0364,0.0,0.0,0.0,0.0,0.0,0.0,0.0,-1.1289,-1.1062,-1.0658,-1.0631,-1.0618,-1.0618,-1.0618,-0.9512,-0.7987,-0.8122,-0.7052,-0.5589,-0.5718,-0.5583,-0.5425,-0.5425,-0.5425,-0.5425,-0.5425,-0.5425,-0.5425,-0.5425,-0.5425,-0.5425,-0.5425,-0.5418,-0.4904,-0.3095,-0.2697,-0.2194,-0.0355,0.0,-0.0111,-0.0429,-0.0273,-0.022,0.0,0.0,0.0,0.0,0.0,0.0,0.0,0.0,0.0,0.0,0.0649,0.0,0.0,0.0097,0.0,0.0,0.0,0.0,0.0,0.0,0.0,0.0,0.0,0.0,0.0,0.0,0.0,0.0,0.0,0.0,0.0,0.0,0.0,0.0,0.0,0.0,0.0,0.0,0.0,0.0,0.0064,0.0131,0.0268,0.0,0.0,0.0,0.0,0.0,0.0,0.0,-1.8349,-1.9143,-2.1585,-2.1516,-2.0854,-1.9588,-1.9057,-1.8529,-1.785,-1.6365,-1.5134,-1.4636,-1.4122,-1.3614,-1.3066,-1.2799,-1.2559,-1.2305,-1.1503,-1.0915,0.0,0.0,0.0,0.0,0.0,0.0,0.0,0.0,-1.1757,-1.181,-1.1543,-1.1289,-1.1076,-1.1076,-1.0969,-1.0822,-1.0822,-0.9688,-0.8112,-0.8203,-0.7155,-0.5725,-0.5779,-0.5664,-0.5501,-0.5501,-0.5433,-0.5425,-0.5425,-0.5425,-0.5425,-0.5425,-0.5425,-0.5425,-0.5425,-0.5425,-0.4942,-0.3099,-0.2676,-0.2174,-0.0367,0.0,-0.0056,-0.017,-0.0277,-0.0274,0.0,0.0,0.0,0.0,0.0,0.0,0.0,0.0,0.0,0.0,0.0,0.0,0.0,0.0,0.0,0.0,0.0,0.0,0.0,0.0,0.0,0.0,0.0,0.0,0.0,0.0,0.0,0.0,0.0,0.0,0.0,0.0,0.0,0.0,0.0,0.0,0.0,0.0,0.0,0.0,0.0,0.0,0.0067,-1.7675,0.0,-1.7369,0.0,-1.7204,-1.7415,-1.834,-1.8243,-1.8399,-1.9096,-2.0088,-2.0059,-1.8319,-1.8832,-1.866,-1.7236,-1.6268,-1.5459,-1.5002,-1.4331,-1.3707,-1.316,-1.3053,0.0,-1.2318,-1.1891,-1.1476,-1.1076,-1.1076,0.0,0.0,0.0,0.0,0.0,-1.1824,-1.2037,-1.2265,-1.177,-1.1543,-1.1503,-1.145,-1.1303,-1.1116,-1.1116,-0.9964,-0.8333,-0.8393,-0.7328,-0.5867,-0.5867,-0.58,-0.5705,-0.5616,-0.5515,-0.542,-0.5439,-0.5425,-0.5425,-0.5425,-0.5425,-0.5425,-0.5425,-0.5425,-0.4954,-0.3147,-0.2725,-0.2217,-0.0374,0.0,0.0,0.0,-0.0173,-0.0282,-0.0059,0.0,0.0,0.0,0.0,0.0,0.0,0.0216,0.0213,0.0,0.083,0.0,0.0,0.0,0.0,0.0,0.0,0.0,0.0,0.0,0.0,0.0,0.0,0.0,0.0,0.0,0.0,0.0,0.0,0.0,0.0,0.0,0.0,0.0,0.0,0.0,0.0,0.0,0.0,0.0,0.0,0.0,0.0,-1.7752,-1.754,-1.7316,-1.7513,-1.7088,-1.67,-1.6714,-1.7512,-1.7581,-1.6062,-1.8041,-1.9039,-1.787,-1.7462,-1.7161,-1.698,-1.545,-1.4929,-1.6019,-1.4532,-1.3559,0.0,0.0,-1.2919,-1.2318,-1.2291,-1.2291,-1.2278,0.0,0.0,-1.2278,0.0,-1.2305,-1.2291,-1.2291,-1.2305,-1.2278,-1.1984,-1.181,-1.169,-1.1503,-1.1423,-1.1423,-1.1423,-1.0227,-0.8584,-0.8712,-0.7556,-0.6023,-0.6023,-0.6023,-0.5976,-0.5684,-0.5589,-0.5555,-0.5473,-0.5425,-0.5425,-0.5425,-0.5425,-0.5425,-0.5425,-0.5425,-0.4954,-0.3147,-0.2683,-0.2165,-0.0372,0.0,0.0,0.0,0.0,0.0,0.0,0.0,0.0,0.0,0.0,0.0,0.0,0.0638,0.0796,0.0053,0.069,0.0,0.0,0.0,0.0,0.0,0.0,0.0,0.0,0.0,0.0,0.0,0.0,0.0,0.0,0.0,0.0,0.0,0.0,0.0,0.0,0.0,0.0,0.0,0.0,0.0,0.0,0.0,0.0,0.0,0.0,0.0,0.0,-1.7592,-1.7367,-1.7191,-1.6967,-1.6834,-1.666,-1.6526,-1.6483,-1.6402,-1.6206,-1.7392,-1.7777,-1.6574,-1.7301,-1.7505,0.0,-1.521,-1.4899,0.0,-1.4507,-1.3948,-1.3948,-1.3467,-1.3013,-1.2612,-1.2412,-1.2305,-1.2305,0.0,0.0,0.0,-1.2305,-1.2305,-1.2305,-1.2305,-1.2305,-1.2291,-1.2211,-1.2144,-1.2118,-1.2051,-1.1904,-1.173,-1.173,-1.0491,-0.8774,-0.8772,-0.765,-0.6173,-0.6064,-0.603,-0.5996,-0.5793,-0.5671,-0.5562,-0.5406,-0.5425,-0.5425,-0.5425,-0.4954,-0.4622,-0.5226,-0.4888,-0.4151,-0.2947,-0.1771,-0.0711,-0.0131,0.0,0.0,0.0,0.0,0.0,0.0,0.0,0.0,0.0,0.0,0.0,0.0,0.0221,0.0276,0.0,0.0661,0.0,0.0,0.0,0.0,0.0,0.0,0.0,0.0,0.0,0.0,0.0,0.0,0.0,0.0,0.0,0.0,0.0,0.0,0.0,0.0,0.0,0.0,0.0,0.0,0.0,0.0,0.0,0.0,0.0,0.0,0.0,0.0,-1.7515,-1.7341,-1.7128,-1.7048,-1.6767,-1.654,-1.6526,-1.6126,-1.5912,-1.6166,-1.6633,-1.6669,-1.5927,-1.6749,0.0,-1.5927,-1.5284,-1.503,-1.5231,-1.4616,-1.4202,-1.4095,-1.3734,-1.3347,-1.2933,-1.2746,0.0,-1.2305,-1.2305,-1.2305,-1.2305,-1.2305,-1.2305,-1.2305,-1.2305,-1.2305,-1.2305,-1.2305,-1.2305,-1.2305,-1.2305,-1.2198,-1.2037,-1.2037,-1.0767,-0.9005,-0.9005,-0.7828,-0.624,-0.6084,-0.6071,-0.6078,-0.5867,-0.5779,-0.5711,-0.5508,-0.5406,-0.5425,-0.5425,-0.4688,-0.4217,-0.516,-0.4688,-0.3747,-0.2876,-0.1324,0.0,0.0,0.0,0.0,0.0,0.0,0.0,0.0,0.0,0.0,0.0,0.0,0.0,0.0,0.0,0.0,0.0,0.0392,0.0669,0.0,0.0,0.0,0.0,0.0,0.0,0.0,0.0,0.0,0.0,0.0,0.0,0.0,0.0,0.0,0.0,0.0,0.0,0.0,0.0,0.0,0.0,0.0,0.0,0.0,0.0,0.0,0.0,0.0,0.0,0.0,-1.7582,-1.7368,-1.7261,0.0,-1.686,0.0,-1.6607,-1.6179,-1.5832,-1.5832,-1.5832,-1.5832,-1.5832,-1.5832,-1.5832,-1.5832,0.0,0.0,0.0,-1.479,-1.4389,-1.4095,-1.4068,-1.3801,-1.3253,-1.32,-1.2893,-1.2305,-1.2305,-1.2305,-1.2305,-1.2305,-1.2305,-1.2305,-1.2305,-1.2305,-1.2305,-1.2305,-1.2305,-1.2305,-1.2305,-1.2305,-1.2305,-1.2305,-1.1093,-0.9377,-0.9301,-0.8084,-0.6388,-0.6084,-0.6125,-0.6193,-0.5908,-0.5908,-0.5956,-0.5671,-0.5488,-0.5439,-0.5432,-0.4688,-0.4151,-0.5087,-0.455,-0.3613,-0.288,-0.1276,0.0,0.0,0.0,0.0,0.0,0.0,0.0,0.0,0.0,0.0,0.0,0.0,0.0,0.0,0.0,0.0,0.0,0.0,0.0,0.0,0.0,0.0,0.0,0.0,0.0,0.0,0.0,0.0,0.0,0.0,0.0,0.0,0.0,0.0,0.0,0.0,0.0,0.0,0.0,0.0,0.0,0.0,0.0,0.0,0.0,0.0,0.0,0.0,0.0,0.0,0.0,0.0,-1.7435,-1.7275,-1.6887,-1.6473,-1.6099,-1.5912,-1.5832,-1.5832,-1.5832,-1.5832,-1.5832,-1.5832,-1.5832,-1.5832,-1.5565,-1.5351,-1.5257,-1.479,-1.4389,-1.4095,-1.3868,-1.3681,-1.3547,-1.3093,-1.2679,-1.2305,-1.2305,-1.2305,-1.2305,-1.2305,-1.2305,-1.2305,-1.2305,-1.2305,-1.2305,-1.2305,-1.2305,-1.2305,-1.2305,-1.2305,-1.2305,-1.2305,-1.1552,-1.0335,-0.9593,-0.8466,-0.7302,-0.6303,-0.6057,-0.6071,-0.5996,-0.5922,-0.582,-0.5644,-0.5562,-0.5508,-0.5459,-0.4217,-0.3213,-0.4084,-0.3147,-0.2075,-0.2609,-0.1276,0.0,0.0,0.0,0.0,0.0,0.0,0.0,0.0,0.0,0.0,0.0,0.0,0.0,0.0,0.0,0.0,0.0,0.0,0.0,0.0,0.0,0.0,0.0,0.0,0.0,0.0,0.0,0.0,0.0,0.0,0.0,0.0,0.0,0.0,0.0,0.0,0.0,0.0,0.0,0.0,0.0,0.0,0.0,0.0,0.0,0.0,0.0,0.0,0.0,0.0,-1.7582,-1.7582,-1.7528,-1.7368,-1.6994,-1.6593,-1.6273,-1.6005,-1.5832,-1.5832,-1.5832,-1.5832,-1.5832,-1.5832,-1.5832,-1.5832,-1.5685,-1.5498,-1.5257,-1.4923,-1.4536,-1.4108,-1.3935,-1.3721,-1.3454,-1.312,-1.2746,-1.2305,-1.2305,-1.2305,-1.2305,-1.2305,-1.2305,-1.2305,-1.2305,-1.2305,-1.2305,-1.2305,-1.2305,-1.2305,-1.2305,-1.2305,-1.2305,-1.2305,-1.17,-1.0634,-0.9669,-0.8694,-0.7617,-0.654,-0.6132,-0.6132,-0.6132,-0.6078,-0.5983,-0.5833,-0.5698,-0.5589,-0.5569,-0.4433,-0.328,-0.3413,-0.2342,-0.1408,-0.1941,-0.1007,0.0,0.0,0.0,0.0,0.0,0.0,0.0,0.0,0.0,0.0,0.0,0.0,0.0,0.0,0.0,0.0,0.0,0.0,0.0,0.0,0.0,0.0,0.0,0.0,0.0,0.0,0.0,0.0,0.0,0.0,0.0,0.0,0.0,0.0,0.0,0.0,0.0,0.0,0.0,0.0,0.0,0.0,0.0,0.0,0.0,0.0,0.0,0.0,0.0,0.0,-1.7569,-1.7582,-1.7582,-1.7582,-1.7101,-1.6727,-1.6767,-1.6233,-1.5845,-1.5885,-1.5858,-1.5832,-1.5832,-1.5832,-1.5832,-1.5832,-1.5832,-1.5671,-1.5297,-1.5084,-1.4723,-1.4175,-1.4108,-1.3854,-1.336,-1.3253,-1.2906,-1.2305,-1.2305,-1.2305,-1.2305,-1.2305,-1.2305,-1.2305,-1.2305,-1.2305,-1.2305,-1.2305,-1.2305,-1.2305,-1.2305,-1.2305,-1.2305,-1.2305,-1.1774,-1.0858,-0.9744,-0.877,-0.7863,-0.6718,-0.6338,-0.6338,-0.6338,-0.6338,-0.6234,-0.6105,-0.5874,-0.5671,-0.5745,-0.4798,-0.3618,-0.2894,-0.1882,-0.114,-0.1274,-0.0605,0.0,0.0,0.0,0.0,0.0,0.0,0.0,0.0,0.0,0.0,0.0,0.0,0.0,0.0,0.0,0.0,0.0,0.0,0.0,0.0,0.0124,0.0186,0.025,0.0384,0.045,0.0441,0.0193,0.0,0.0,0.0135,0.0135,0.0,0.0135,0.0135,0.0,0.0,0.0,0.0,0.0,0.0,0.0,0.0,0.0,0.0,0.0,0.0,0.0,0.0,0.0,0.0,-1.7542,-1.7582,-1.7582,-1.7582,-1.7101,-1.6794,-1.7048,-1.6366,-1.5912,-1.6166,-1.5979,-1.5832,-1.5832,-1.5832,-1.5832,-1.5832,-1.5832,-1.5698,-1.5391,-1.511,-1.4816,-1.4469,-1.4215,-1.4041,-1.3948,-1.3467,-1.2906,-1.2305,-1.2305,-1.2305,-1.2305,-1.2305,-1.2305,-1.2305,-1.2305,-1.2305,-1.2305,-1.2305,-1.2305,-1.2305,-1.2305,-1.2305,-1.2305,-1.2305,-1.2231,-1.1848,-0.997,-0.9226,-0.877,-0.6949,-0.6338,-0.6338,-0.6338,-0.6338,-0.6254,-0.6234,-0.6098,-0.5915,-0.5684,-0.4324,-0.2894,-0.2895,-0.1503,-0.0404,-0.114,-0.0605,0.0,0.0,0.0,0.0,0.0,0.0,0.0,0.0,0.0,0.0,0.0,0.0,0.0,0.0,0.0,0.0,0.0,0.0,0.0,0.0,0.0688,0.1196,0.1321,0.2059,0.2485,0.2604,0.0945,0.0,0.0,0.0739,0.0739,0.0,0.0739,0.068,0.0,0.0,0.0,0.0,0.0,0.0,0.0,0.0,0.0,0.0,0.0,0.0,0.0,0.0,0.0,0.0,-1.7528,-1.7582,-1.7582,-1.7582,-1.7235,-1.6994,-1.723,-1.654,-1.6139,-1.6326,-1.6046,-1.5832,-1.5832,-1.5832,-1.5832,-1.5832,-1.5832,-1.5765,-1.5631,-1.5351,-1.499,-1.4536,-1.4389,-1.4095,-1.3627,-1.3186,-1.2746,-1.2305,-1.2305,-1.2305,-1.2305,-1.2305,-1.2305,-1.2305,-1.2305,-1.2305,-1.2305,-1.2305,-1.2305,-1.2305,-1.2305,-1.2305,-1.2305,-1.2305,-1.2305,-1.207,-1.0045,-0.9301,-0.8998,-0.6949,-0.6338,-0.6338,-0.6338,-0.6338,-0.6338,-0.6338,-0.6213,-0.6091,-0.5786,-0.4354,-0.2931,-0.2924,-0.1416,-0.014,-0.0483,-0.0275,0.0,0.0,0.0,0.0,0.0,0.0,0.0,0.0,0.0,0.0,0.0,0.0,0.0,0.0,0.0,0.0,0.0,0.0,0.027,0.0809,0.1215,0.1708,0.238,0.2802,0.3026,0.3066,0.2087,0.1579,0.1579,0.1891,0.1877,0.1477,0.1877,0.1552,0.0685,0.0695,0.0417,0.0,0.0,0.0,0.0,0.0,0.0,0.0,0.0,0.0,0.0,0.0,0.0,0.0,-1.7528,-1.7582,-1.7582,-1.7582,-1.7341,-1.7168,-1.7235,-1.6687,-1.6326,-1.646,-1.6099,-1.5832,-1.5832,-1.5832,-1.5832,-1.5832,-1.5832,-1.5832,-1.5832,-1.5618,-1.5231,-1.4643,-1.4496,-1.4068,-1.332,-1.3013,-1.2705,-1.2412,-1.2331,-1.2305,-1.2305,-1.2305,-1.2305,-1.2305,-1.2305,-1.2305,-1.2305,-1.2305,-1.2305,-1.2305,-1.2305,-1.2305,-1.2305,-1.2305,-1.2305,-1.207,-1.0045,-0.9301,-0.8998,-0.6949,-0.6338,-0.6338,-0.6338,-0.6338,-0.6338,-0.6338,-0.6338,-0.6207,-0.5976,-0.453,-0.3057,-0.2941,-0.146,0.0,0.0,0.0,0.0,0.0,0.0,0.0,0.0,0.0,0.0,0.0,0.0,0.0,0.0,0.0,0.0,0.0,0.0,0.0,0.0,0.0,0.0424,0.1552,0.1797,0.233,0.3443,0.3661,0.3821,0.3843,0.3224,0.2959,0.2959,0.3033,0.3003,0.2799,0.2984,0.2588,0.1725,0.168,0.1191,0.0347,0.0354,0.0214,0.0,0.0,0.0,0.0,0.0,0.0,0.0,0.0,0.0,0.0,-1.7528,-1.7582,-1.7582,-1.7582,-1.7341,-1.7235,-1.7515,-1.682,-1.6366,-1.6647,-1.6179,-1.5832,-1.5832,-1.5832,-1.5832,-1.5832,-1.5832,-1.5832,-1.5832,-1.5805,-1.5538,-1.495,-1.4402,-1.3961,-1.3614,-1.332,-1.3026,-1.2795,-1.2438,-1.2305,-1.2305,-1.2305,-1.2305,-1.2305,-1.2305,-1.2305,-1.2305,-1.2305,-1.2305,-1.2305,-1.2305,-1.2305,-1.2305,-1.2305,-1.2305,-1.207,-1.0045,-0.9301,-0.8998,-0.6949,-0.6338,-0.6338,-0.6338,-0.6338,-0.6338,-0.6338,-0.6338,-0.6331,-0.6234,-0.4597,-0.2928,-0.3071,-0.1555,0.0,0.0,0.0,0.0,0.0,0.0,0.0,0.0,0.0,0.0,0.0,0.0,0.0,0.0,0.0,0.0,0.0,0.0,0.0,0.0,0.0,0.0436,0.1522,0.2322,0.33,0.4502,0.5333,0.5852,0.6066,0.4161,0.3114,0.3114,0.397,0.3965,0.3103,0.3732,0.3714,0.2993,0.2852,0.2273,0.1499,0.1501,0.0891,0.0,0.0,0.0,0.0,0.0,0.0,0.0,0.0,0.0,0.0,-1.7528,-1.7582,-1.7582,-1.7582,-1.7488,-1.7462,-1.7569,-1.7141,-1.6754,-1.6553,-1.6112,-1.5832,-1.5832,-1.5832,-1.5832,-1.5832,-1.5832,-1.5832,-1.5832,-1.5832,-1.5645,-1.5244,-1.4669,-1.4215,-1.3921,-1.3627,-1.324,-1.2822,-1.2701,-1.2478,-1.2305,-1.2305,-1.2398,-1.2572,-1.2385,-1.2518,-1.2839,-1.2465,-1.2305,-1.2305,-1.2305,-1.2305,-1.2305,-1.2305,-1.2305,-1.207,-1.0045,-0.9301,-0.8998,-0.6949,-0.6338,-0.6338,-0.6338,-0.6338,-0.6338,-0.6338,-0.6338,-0.6338,-0.6338,-0.4701,-0.3047,-0.3078,-0.1533,0.0,0.0,0.0,0.0,0.0,0.0,0.0,0.0,0.0,0.0,0.0,0.0,0.0,0.0,0.0,0.0,0.0,0.0,0.0,0.0,0.0,0.0447,0.1489,0.249,0.351,0.4619,0.5631,0.62,0.6338,0.553,0.5058,0.4905,0.5189,0.5147,0.4787,0.5027,0.4764,0.3971,0.3935,0.3427,0.2507,0.1844,0.1333,0.0968,0.0293,0.0,0.0,0.0,0.0,0.0,0.0,0.0,0.0,-1.7542,-1.7582,-1.7582,-1.7582,-1.7582,-1.7582,-1.7582,-1.7341,-1.7034,-1.6687,-1.6326,-1.6072,-1.5979,-1.5965,-1.5925,-1.5832,-1.5832,-1.5832,-1.5832,-1.5832,-1.5698,-1.5404,-1.4923,-1.4522,-1.4229,-1.3935,-1.3534,-1.3026,-1.2933,-1.2786,-1.2585,-1.2585,-1.2692,-1.2879,-1.2679,-1.2812,-1.3186,-1.2759,-1.2478,-1.2318,-1.2505,-1.2545,-1.2417,-1.2078,-1.214,-1.2214,-1.0166,-0.9352,-0.9084,-0.7467,-0.6634,-0.6322,-0.6274,-0.6338,-0.6338,-0.6338,-0.6338,-0.6338,-0.6338,-0.5029,-0.3549,-0.3207,-0.1801,-0.0391,-0.0077,0.0,0.0,0.0,0.0,0.0,0.0,0.0,0.0,0.0,0.0,0.0,0.0,0.0,0.0,0.0,0.0,0.0,0.0,0.0,0.0459,0.1528,0.2247,0.3203,0.4608,0.5712,0.6338,0.6338,0.6338,0.6207,0.6105,0.5996,0.5949,0.5942,0.5895,0.5603,0.5046,0.5006,0.4494,0.3569,0.2527,0.1878,0.1527,0.0826,0.0302,0.0,0.0372,0.0296,0.0,0.0,0.0,0.0,-1.7582,-1.7582,-1.7582,-1.7582,-1.7582,-1.7582,-1.7582,-1.7341,-1.7154,-1.7154,-1.6887,-1.6593,-1.6299,-1.6273,-1.6152,-1.5858,-1.5832,-1.5832,-1.5832,-1.5832,-1.5698,-1.5404,-1.5124,-1.483,-1.4536,-1.4242,-1.3948,-1.3559,-1.336,-1.3213,-1.3213,-1.3213,-1.3213,-1.3213,-1.3213,-1.3213,-1.3213,-1.3213,-1.2866,-1.2371,-1.2973,-1.3093,-1.2751,-1.1629,-1.1902,-1.2516,-1.0406,-0.9483,-0.919,-0.8461,-0.7422,-0.6451,-0.6308,-0.6268,-0.6268,-0.6338,-0.6338,-0.6268,-0.6338,-0.5653,-0.4588,-0.3377,-0.2348,-0.1333,-0.0235,0.0,0.0,0.0,0.0,0.0,0.0,0.0,0.0,0.0,0.0,0.0,0.0,0.0,0.0,0.0,0.0,0.0,0.0,0.0,0.0471,0.1489,0.1568,0.2504,0.4608,0.5705,0.6261,0.6261,0.6338,0.6338,0.6338,0.6338,0.6338,0.6338,0.6105,0.6112,0.6254,0.6098,0.55,0.4608,0.3593,0.2501,0.1568,0.1568,0.0941,0.0078,0.1145,0.0921,0.0,0.0,0.0,0.0,-1.7582,-1.7582,-1.7582,-1.7582,-1.7582,-1.7582,-1.7582,-1.7515,-1.7382,-1.7181,-1.7074,-1.682,-1.6326,-1.6273,-1.6152,-1.5858,-1.5832,-1.5832,-1.5832,-1.5832,-1.5792,-1.5698,-1.5418,-1.5137,-1.4843,-1.4536,-1.4148,-1.3559,-1.3561,-1.3414,-1.3213,-1.3213,-1.332,-1.3507,-1.3307,-1.332,-1.3507,-1.344,-1.3467,-1.3534,-1.3307,-1.3253,-1.316,-1.1733,-1.1478,-1.1611,-0.9446,-0.8613,-0.8408,-0.7423,-0.6955,-0.6627,-0.658,-0.6566,-0.6546,-0.6437,-0.6485,-0.6546,-0.6437,-0.6276,-0.5665,-0.3628,-0.2455,-0.1439,-0.0236,0.0,0.0,0.0,0.0,0.0,0.0,0.0,0.0,0.0,0.0,0.0,0.0,0.0,0.0,0.0,0.0,0.0,0.0,0.0,0.0158,0.0482,0.1207,0.2471,0.4613,0.5083,0.5689,0.641,0.641,0.641,0.641,0.6308,0.6338,0.6261,0.6213,0.6213,0.6338,0.6213,0.5668,0.4608,0.3593,0.2501,0.1568,0.0785,0.0314,0.0,0.0389,0.0312,0.0,0.0,0.0,0.0,-1.7582,-1.7582,-1.7582,-1.7582,-1.7582,-1.7582,-1.7582,-1.7582,-1.7515,-1.7341,-1.7315,-1.7128,-1.662,-1.6553,-1.6366,-1.5872,-1.5832,-1.5832,-1.5832,-1.5832,-1.5832,-1.5832,-1.5658,-1.5431,-1.5137,-1.4843,-1.4469,-1.3988,-1.3881,-1.3734,-1.3561,-1.3561,-1.3654,-1.3814,-1.3641,-1.3654,-1.3814,-1.3761,-1.3801,-1.3895,-1.3654,-1.3561,-1.3398,-1.2052,-1.1571,-1.1468,-0.9669,-0.8717,-0.8098,-0.7673,-0.7159,-0.6709,-0.677,-0.6749,-0.6681,-0.6586,-0.6627,-0.6681,-0.6586,-0.6675,-0.6306,-0.4376,-0.3167,-0.2128,-0.097,-0.0323,0.0,0.0,0.0,0.0,0.0,0.0,0.0,0.0,0.0,0.0,0.0,0.0,0.0,0.0,0.0,0.0,0.0,0.0,0.0,0.0,0.0988,0.2124,0.3378,0.4398,0.517,0.5828,0.6316,0.6559,0.6559,0.6478,0.6376,0.6338,0.6338,0.6338,0.6261,0.5867,0.5312,0.4608,0.3125,0.2192,0.1568,0.0862,0.0392,0.0079,0.0476,0.0398,0.0,0.0,0.0,0.0,-1.7582,-1.7582,-1.7582,-1.7582,-1.7582,-1.7582,-1.7582,-1.7582,-1.7582,-1.7582,-1.7582,-1.7435,-1.7048,-1.6981,-1.666,-1.5899,-1.5832,-1.5832,-1.5832,-1.5832,-1.5832,-1.5832,-1.5832,-1.5712,-1.5444,-1.5177,-1.487,-1.4522,-1.4229,-1.4082,-1.4082,-1.4082,-1.4082,-1.4082,-1.4082,-1.4068,-1.4055,-1.4082,-1.3921,-1.3667,-1.3975,-1.3921,-1.3517,-1.2502,-1.1993,-1.1649,-1.0637,-0.935,-0.8156,-0.8489,-0.7774,-0.6763,-0.6905,-0.6851,-0.6736,-0.6722,-0.6729,-0.6736,-0.6722,-0.6831,-0.6655,-0.5583,-0.4378,-0.3115,-0.2014,-0.084,0.0,0.0,0.0,0.0,0.0,0.0,0.0,0.0,0.0,0.0,0.0,0.0,0.0,0.0,0.0,0.0,0.0,0.0,0.0,0.0,0.0925,0.1512,0.1593,0.3524,0.4708,0.4875,0.5966,0.6632,0.6722,0.6709,0.6566,0.6302,0.6302,0.6302,0.6139,0.5179,0.4623,0.4311,0.2434,0.1571,0.1489,0.1492,0.0865,0.0079,0.1046,0.0893,0.0,0.0,0.0,0.0,-1.7582,-1.7582,-1.7582,-1.7582,-1.7582,-1.7582,-1.7582,-1.7582,-1.7582,-1.7582,-1.7582,-1.7435,-1.7048,-1.686,-1.6513,-1.5885,-1.5832,-1.5832,-1.5832,-1.5832,-1.5832,-1.5832,-1.5832,-1.5805,-1.5738,-1.5671,-1.5271,-1.4522,-1.4229,-1.4082,-1.4082,-1.4082,-1.4082,-1.4082,-1.4082,-1.3961,-1.3761,-1.3988,-1.3921,-1.3667,-1.3975,-1.4055,-1.3904,-1.2687,-1.1645,-1.0706,-0.9597,-0.8455,-0.7309,-0.7425,-0.7243,-0.7048,-0.7082,-0.7068,-0.7021,-0.6912,-0.6959,-0.7021,-0.6912,-0.6987,-0.7001,-0.6699,-0.5102,-0.3232,-0.2028,-0.084,0.0,0.0,0.0,0.0,0.0,0.0,0.0,0.0,0.0,0.0,0.0,0.0,0.0,0.0,0.0,0.0,0.0,0.0,0.0,0.0,0.0257,0.0684,0.1594,0.2129,0.3267,0.4979,0.532,0.5928,0.6878,0.6763,0.6668,0.6607,0.6607,0.6109,0.5197,0.4945,0.3939,0.2254,0.1773,0.1117,0.0314,0.032,0.0242,0.0,0.0239,0.0243,0.0,0.0,0.0,0.0,-1.7582,-1.7582,-1.7582,-1.7582,-1.7582,-1.7582,-1.7582,-1.7582,-1.7582,-1.7582,-1.7582,-1.7502,-1.7301,-1.7021,-1.6567,-1.5885,-1.6086,-1.6126,-1.5845,-1.5965,-1.5979,-1.5832,-1.5832,-1.5832,-1.5832,-1.5832,-1.5605,-1.515,-1.4429,-1.4188,-1.4362,-1.4175,-1.4082,-1.4082,-1.4082,-1.4001,-1.3868,-1.4015,-1.4082,-1.4068,-1.4082,-1.4175,-1.4196,-1.343,-1.2419,-1.1295,-1.0778,-0.9401,-0.7841,-0.7312,-0.7143,-0.7143,-0.7143,-0.7143,-0.7129,-0.7054,-0.7082,-0.7122,-0.7048,-0.7082,-0.7156,-0.7231,-0.5891,-0.4222,-0.2959,-0.13,0.0,0.0,0.0,0.0,0.0,0.0,0.0,0.0,0.0,0.0,0.0,0.0,0.0,0.0,0.0,0.0,0.0,0.0,0.0,0.0,0.0,0.0266,0.0782,0.1488,0.2288,0.3513,0.4655,0.5534,0.615,0.6085,0.6049,0.6049,0.5924,0.5194,0.4018,0.3557,0.2717,0.1567,0.1073,0.0492,0.0,0.0,0.0,0.0,0.0,0.0,0.0,0.0,0.0,0.0,-1.7595,-1.7582,-1.7582,-1.7582,-1.7582,-1.7595,-1.7649,-1.7622,-1.7595,-1.7649,-1.7609,-1.7582,-1.7582,-1.7114,-1.658,-1.6032,-1.6393,-1.6473,-1.6059,-1.6179,-1.6166,-1.5912,-1.5858,-1.5832,-1.5832,-1.5832,-1.5805,-1.5752,-1.483,-1.4496,-1.471,-1.4416,-1.4242,-1.4162,-1.4162,-1.4135,-1.4082,-1.4082,-1.4229,-1.4429,-1.4188,-1.4229,-1.4416,-1.4175,-1.3404,-1.2392,-1.2392,-1.0947,-0.8802,-0.7539,-0.7177,-0.7177,-0.7149,-0.7143,-0.7143,-0.7143,-0.7143,-0.7143,-0.7143,-0.7156,-0.721,-0.7339,-0.6465,-0.5257,-0.3984,-0.19,-0.0272,-0.0091,0.0,0.0,0.0,0.0,0.0,0.0,0.0,0.0,0.0,0.0,0.0,0.0,0.0,0.0,0.0,0.0,0.0,0.0,0.0,0.0,0.0,0.0906,0.1629,0.181,0.3782,0.4848,0.5116,0.5116,0.5018,0.4821,0.4497,0.3825,0.288,0.2026,0.1518,0.1265,0.0423,0.0,0.0,0.0,0.0,0.0,0.0,0.0,0.0,0.0,0.0,0.0,-1.7635,-1.7582,-1.7582,-1.7582,-1.7582,-1.7675,-1.7943,-1.7756,-1.7675,-1.7956,-1.7756,-1.7582,-1.7582,-1.6633,-1.6152,-1.6553,-1.65,-1.6567,-1.682,-1.6486,-1.6259,-1.6219,-1.5965,-1.5832,-1.5832,-1.5832,-1.5712,-1.5458,-1.5551,-1.5364,-1.4923,-1.5044,-1.487,-1.4469,-1.4469,-1.4322,-1.4082,-1.4082,-1.4108,-1.4135,-1.4095,-1.4108,-1.4135,-1.4095,-1.3531,-1.275,-1.275,-1.1279,-0.9242,-0.7829,-0.7339,-0.7319,-0.7183,-0.7143,-0.7143,-0.7143,-0.7143,-0.7143,-0.7143,-0.7238,-0.7346,-0.7366,-0.6623,-0.5383,-0.4051,-0.2734,-0.1417,-0.0284,0.0,0.0,0.0,0.0,0.0,0.0,0.0,0.0,0.0,0.0,0.0,0.0,0.0,0.0,0.0,0.0,0.0,0.0,0.0,0.0,0.0,0.0189,0.0756,0.1794,0.2134,0.2754,0.3849,0.3849,0.3364,0.2325,0.2266,0.2167,0.1951,0.1827,0.121,0.0173,0.0087,0.0,0.0,0.0,0.0,0.0,0.0,0.0,0.0,0.0,0.0,0.0,-1.7862,-1.7702,-1.7582,-1.7582,-1.7582,-1.7622,-1.7769,-1.7675,-1.7635,-1.7769,-1.7662,-1.7582,-1.7582,-1.7114,-1.674,-1.6553,-1.686,-1.6954,-1.6687,-1.6567,-1.6366,-1.6046,-1.5899,-1.5832,-1.5832,-1.5832,-1.5765,-1.5631,-1.5551,-1.5484,-1.5444,-1.5204,-1.503,-1.4923,-1.4816,-1.4696,-1.4563,-1.4402,-1.4429,-1.4563,-1.4402,-1.4429,-1.4576,-1.4576,-1.4379,-1.3849,-1.2484,-1.1374,-1.0158,-0.8158,-0.7502,-0.7489,-0.7421,-0.7339,-0.7285,-0.7373,-0.7339,-0.7285,-0.7373,-0.7448,-0.7516,-0.7597,-0.7279,-0.6379,-0.4399,-0.3528,-0.2536,-0.0479,0.0,0.0,0.0,0.0,0.0,0.0,0.0,0.0,0.0,0.0,0.0,0.0,0.0,0.0,0.0,0.0,0.0,0.0,0.0,0.0,0.0,0.0,0.0286,0.0762,0.1416,0.2065,0.2626,0.2626,0.2321,0.1823,0.1117,0.0832,0.0807,0.0799,0.0531,0.0,0.0,0.0,0.0,0.0,0.0,0.0,0.0,0.0,0.0,0.0,0.0,0.0]},{"header":{"parameterUnit":"m.s-1","parameterCategory":1,"la1":30.6,"la2":28.766,"lo1":-90.7593,"lo2":-88.6598,"dy":0.0162,"dx":0.0183,"nx":116,"ny":114,"refTime":"2023-05-13T06:00:00:Z","depth":0,"parameterNumber":3,"parameterNumberName":"V-component_of_WINDS"},"data":[0.0,0.0,0.0,0.0,0.0,0.0,0.0,0.0,0.0,0.0,0.0,0.0,0.0,0.0,0.0,0.0,0.0,0.0,0.0,0.0,0.0,0.0,0.0,0.0,0.0,0.0,0.0,0.0,0.0,0.0,0.0,0.0,0.0,0.0,0.0,0.0,0.0,0.0,0.0,0.0,0.0,0.0,0.0,0.0,0.0,0.0,0.0,0.0,0.0,0.0,0.0,0.0,0.0,0.0,0.0,0.0,0.0,0.0,0.0,0.0,0.0,0.0,0.0,0.0,0.0,0.0,0.0,0.0,0.0,0.0,0.0,0.0,0.0,0.0,0.0,0.0,0.0,0.0,0.0,0.0,0.0,0.0,0.0,0.0,0.0,0.0,0.0,0.0,0.0,0.0,0.0,0.0,0.0,0.0,0.0,0.0,0.0,0.0,0.0,0.0,0.0,0.0,0.0,0.0,0.0,0.0,0.0,0.0,0.0,0.0,0.0,0.0,0.0,0.0,0.0,0.0,0.0,0.0,0.0,0.0,0.0,0.0,0.0,0.0,0.0,0.0,0.0,0.0,0.0,0.0,0.0,0.0,0.0,0.0,0.0,0.0,0.0,0.0,0.0,0.0,0.0,0.0,0.0,0.0,0.0,0.0,0.0,0.0,0.0,0.0,0.0,0.0,0.0,0.0,0.0,0.0,0.0,0.0,0.0,0.0,0.0,0.0,0.0,0.0,0.0,0.0,0.0,0.0,0.0,0.0,0.0,0.0,0.0,0.0,0.0,0.0,0.0,0.0,0.0,0.0,0.0,0.0,0.0,0.0,0.0,0.0,0.0,0.0,0.0,0.0,0.0,0.0,0.0,0.0,0.0,0.0,0.0,0.0,0.0,0.0,0.0,0.0,0.0,0.0,0.0,0.0,0.0,0.0,0.0,0.0,0.0,0.0,0.0,0.0,0.0,0.0,0.0,0.0,0.0,0.0,0.0,0.0,0.0,0.0,0.0,0.0,0.0,0.0,0.0,0.0,0.0,0.0,0.0,0.0,0.0,0.0,0.0,0.0,0.0,0.0,0.0,0.0,0.0,0.0,0.0,0.0,0.0,0.0,0.0,0.0,0.0,0.0,0.0,0.0,0.0,0.0,0.0,0.0,0.0,0.0,0.0,0.0,0.0,0.0,0.0,0.0,0.0,0.0,0.0,0.0,0.0,0.0,0.0,0.0,0.0,0.0,0.0,0.0,0.0,0.0,0.0,0.0,0.0,0.0,0.0,0.0,0.0,0.0,0.0,0.0,0.0,0.0,0.0,0.0,0.0,0.0,0.0,0.0,0.0,0.0,0.0,0.0,0.0,0.0,0.0,0.0,0.0,0.0,0.0,0.0,0.0,0.0,0.0,0.0,0.0,0.0,0.0,0.0,0.0,0.0,0.0,0.0,0.0,0.0,0.0,0.0,0.0,0.0,0.0,0.0,0.0,0.0,0.0,0.0,0.0,0.0,0.0,0.0,0.0,0.0,0.0,0.0,0.0,0.0,0.0,0.0,0.0,0.0,0.0,0.0,0.0,0.0,0.0,0.0,0.0,0.0,0.0,0.0,0.0,0.0,0.0,0.0,0.0,0.0,0.0,0.0,0.0,0.0,0.0,0.0,0.0,0.0,0.0,0.0,0.0,0.0,0.0,0.0,0.0,0.0,0.0,0.0,0.0,0.0,0.0,0.0,0.0,0.0,0.0,0.0,0.0,0.0,0.0,0.0,0.0,0.0,0.0,0.0,0.0,0.0,0.0,0.0,0.0,0.0,0.0,0.0,0.0,0.0,0.0,0.0,0.0,0.0,0.0,0.0,0.0,0.0,0.0,0.0,0.0,0.0,0.0,0.0,0.0,0.0,0.0,0.0,0.0,0.0,0.0,0.0,0.0,0.0,0.0,0.0,0.0,0.0,0.0,0.0,0.0,0.0,0.0,0.0,0.0,0.0,0.0,0.0,0.0,0.0,0.0,0.0,0.0,0.0,0.0,0.0,0.0,0.0,0.0,0.0,0.0,0.0,0.0,0.0,0.0,0.0,0.0,0.0,0.0,0.0,0.0,0.0,0.0,0.0,0.0,0.0,0.0,0.0,0.0,0.0,0.0,0.0,0.0,0.0,0.0,0.0,0.0,0.0,0.0,0.0,0.0,0.0,0.0,0.0,0.0,0.0,0.0,0.0,0.0,0.0,0.0,0.0,0.0,0.0,0.0,0.0,0.0,0.0,0.0,0.0,0.0,0.0,0.0,0.0,0.0,0.0,0.0,0.0,0.0,0.0,0.0,0.0,0.0,0.0,0.0,0.0,0.0,0.0,0.0,0.0,0.0,0.0,0.0,0.0,0.0,0.0,0.0,0.0,0.0,0.0,0.0,0.0,0.0,0.0,0.0,0.0,0.0,0.0,0.0,0.0,0.0,0.0,0.0,0.0,0.0,0.0,0.0,0.0,0.0,0.0,0.0,0.0,0.0,0.0,0.0,0.0,0.0,0.0,0.0,0.0,0.0,0.0,0.0,0.0,0.0,0.0,0.0,0.0,0.0,0.0,0.0,0.0,0.0,0.0,0.0,0.0,0.0,0.0,0.0,0.0,0.0,0.0,0.0,0.0,0.0,0.0,0.0,0.0,0.0,0.0,0.0,0.0,0.0,0.0,0.0,0.0,0.0,0.0,0.0,0.0,0.0,0.0,0.0,0.0,0.0,0.0,0.0,0.0,0.0,0.0,0.0,0.0,0.0,0.0,0.0,0.0,0.0,0.0,0.0,0.0,0.0,0.0,0.0,0.0,0.0,0.0,0.0,0.0,0.0,0.0,0.0,0.0,0.0,0.0,0.0,0.0,0.0,0.0,0.0,0.0,0.0,0.0,0.0,0.0,0.0,0.0,0.0,0.0,0.0,0.0,0.0,0.0,0.0,0.0,0.0,0.0,0.0,0.0,0.0,0.0,0.0,0.0,0.0,0.0,0.0,0.0,0.0,0.0,0.0,0.0,0.0,0.0,0.0,0.0,0.0,0.0,0.0,0.0,0.0,0.0,0.0,0.0,0.0,0.0,0.0,0.0,0.0,0.0,0.0,0.0,0.0,0.0,0.0,0.0,0.0,0.0,0.0,0.0,0.0,0.0,0.0,0.0,0.0,0.0,0.0,0.0,0.0,0.0,0.0,0.0,0.0,0.0,0.0,0.0,0.0,0.0,0.0,0.0,0.0,0.0,0.0,0.0,0.0,0.0,0.0,0.0,0.0,0.0,0.0,0.0,0.0,0.0,0.0,0.0,0.0,0.0,0.0,0.0,0.0,0.0,0.0,0.0,0.0,0.0,0.0,0.0,0.0,0.0,0.0,0.0,0.0,0.0,0.0,0.0,0.0,0.0,0.0,0.0,0.0,0.0,0.0,0.0,0.0,0.0,0.0,0.0,0.0,0.0,0.0,0.0,0.0,0.0,0.0,0.0,0.0,0.0,0.0,0.0,0.0,0.0,0.0,0.0,0.0,0.0,0.0,0.0,0.0,0.0,0.0,0.0,0.0,0.0,0.0,0.0,0.0,0.0,0.0,0.0,0.0,0.0,0.0,0.0,0.0,0.0,0.0,0.0,0.0,0.0,0.0,0.0,0.0,0.0,0.0,0.0,0.0,0.0,0.0,0.0,0.0,0.0,0.0,0.0,0.0,0.0,0.0,0.0,0.0,0.0,0.0,0.0,0.0,0.0,0.0,0.0,0.0,0.0,0.0,0.0,0.0,0.0,0.0,0.0,0.0,0.0,0.0,0.0,0.0,0.0,0.0,0.0,0.0,0.0,0.0,0.0,0.0,0.0,0.0,0.0,0.0,0.0,0.0,0.0,0.0,0.0,0.0,0.0,0.0,0.0,0.0,0.0,0.0,0.0,0.0,0.0,0.0,0.0,0.0,0.0,0.0,0.0,0.0,0.0,0.0,0.0,0.0,0.0,0.0,0.0,0.0,0.0,0.0,0.0,0.0,0.0,0.0,0.0,0.0,0.0,0.0,0.0,0.0,0.0,0.0,0.0,0.0,0.0,0.0,0.0,0.0,0.0,0.0,0.0,0.0,0.0,0.0,0.0,0.0,0.0,0.0,0.0,0.0,0.0,0.0,0.0,0.0,0.0,0.0,0.0,0.0,0.0,0.0,0.0,0.0,0.0,0.0,0.0,0.0,0.0,0.0,0.0,0.0,0.0,0.0,0.0,0.0,0.0,0.0,0.0,0.0,0.0,0.0,0.0,0.0,0.0,0.0,0.0,0.0,0.0,0.0,0.0,0.0,0.0,0.0,0.0,0.0,0.0,0.0,0.0,0.0,0.0,0.0,0.0,0.0,0.0,0.0,0.0,0.0,0.0,0.0,0.0,0.0,0.0,0.0,0.0,0.0,0.0,0.0,0.0,0.0,0.0,0.0,0.0,0.0,0.0,0.0,0.0,0.0,0.0,0.0,0.0,0.0,0.0,0.0,0.0,0.0,0.0,0.0,0.0,0.0,0.0,0.0,0.0,0.0,0.0,0.0,0.0,0.0,0.0,0.0,0.0,0.0,0.0,0.0,0.0,0.0,0.0,0.0,0.0,0.0,0.0,0.0,0.0,0.0,0.0,0.0,0.0,0.0,0.0,0.0,0.0,0.0,0.0,0.0,0.0,0.0,0.0,0.0,0.0,0.0,0.0,0.0,0.0,0.0,0.0,0.0,0.0,0.0,0.0,0.0,0.0,0.0,0.0,0.0,0.0,0.0,0.0,0.0,0.0,0.0,0.0,0.0,0.0,0.0,0.0,0.0,0.0,0.0,0.0,0.0,0.0,0.0,0.0,0.0,0.0,0.0,0.0,0.0,0.0,0.0,0.0,0.0,0.0,0.0,0.0,0.0,0.0,0.0,0.0,0.0,0.0,0.0,0.0,0.0,0.0,0.0,0.0,0.0,0.0,0.0,0.0,0.0,0.0,0.0,0.0,0.0,0.0,0.0,0.0,0.0,0.0,0.0,0.0,0.0,0.0,0.0,0.0,0.0,0.0,0.0,0.0,0.0,0.0,0.0,0.0,0.0,0.0,0.0,0.0,0.0,0.0,0.0,0.0,0.0,0.0,0.0,0.0,0.0,0.0,0.0,0.0,0.0,0.0,0.0,0.0,0.0,0.0,0.0,0.0,0.0,0.0,0.0,0.0,0.0,0.0,0.0,0.0,0.0,0.0,0.0,0.0,0.0,0.0,0.0,0.0,0.0,0.0,0.0,0.0,0.0,0.0,0.0,0.0,0.0,0.0,0.0,0.0,0.0,0.0,0.0,0.0,0.0,0.0,0.0,0.0,0.0,0.0,0.0,0.0,0.0,0.0,0.0,0.0,0.0,0.0,0.0,0.0,0.0,0.0,0.0,0.0,0.0,0.0,0.0,0.0,0.0,0.0,0.0,0.0,0.0,0.0,0.0,0.0,0.0,0.0,0.0,0.0,0.0,0.0,0.0,0.0,0.0,0.0,0.0,0.0,0.0,0.0,0.0,0.0,0.0,0.0,0.0,0.0,0.0,0.0,0.0,0.0,0.0,0.0,0.0,0.0,0.0,0.0,0.0,0.0,0.0,0.0,0.0,0.0,0.0,0.0,0.0,0.0,0.0,0.0,0.0,0.0,0.0,0.0,0.0,0.0,0.0,0.0,0.0,0.0,0.0,0.0,0.0,0.0,0.0,0.0,0.0,0.0,0.0,0.0,0.0,0.0,0.0,0.0,0.0,0.0,0.0,0.0,0.0,0.0,0.0,0.0,0.0,0.0,0.0,0.0,0.0,0.0,0.0,0.0,0.0,0.0,0.0,0.0,0.0,0.0,0.0,0.0,0.0,0.0,0.0,0.0,0.0,0.0,0.0,0.0,0.0,0.0,0.0,0.0,0.0,0.0,0.0,0.0,0.0,0.0,0.0,0.0,0.0,0.0,0.0,0.0,0.0,0.0,0.0,0.0,0.0,0.0,0.0,0.0,0.0,0.0,0.0,0.0,0.0,0.0,0.0,0.0,0.0,0.0,0.0,0.0,0.0,0.0,0.0,0.0,0.0,0.0,0.0,0.0,0.0,0.0,0.0,0.0,0.0,0.0,0.0,0.0,0.5098,0.0,0.0,0.0,0.0,0.0,0.0,0.0,0.0,0.0,0.0,0.0,0.0,0.0,0.0,0.0,0.0,0.0,0.0,0.0,0.0,0.0,0.0,0.0,0.0,0.0,0.0,0.0,0.0,0.0,0.0,0.0,0.0,0.0,0.0,0.0,0.0,0.0,0.0,1.437,1.3957,1.3723,1.3702,1.4011,1.4111,1.404,0.0,0.0,0.0,0.0,0.0,0.0,0.0,0.0,0.0,0.0,0.0,0.0,0.0,0.0,0.0,0.0,0.0,0.0,0.0,0.0,0.0,0.0,0.0,0.0,0.0,0.0,0.0,0.0,0.0,0.0,0.0,0.0,0.0,0.0,0.0,0.0,0.0,0.0,0.0,0.0,0.0,0.0,0.0,0.0,0.0,0.0,0.0,0.0,0.0,0.0,0.0,0.0,0.0,0.0,0.0,0.0,0.0,0.0,0.0,0.0,0.0,0.0,0.0,0.0,0.0,0.0,0.0,0.0,0.0,0.0,0.0,0.529,0.0,0.0,0.0,0.0,0.0,0.0,0.0,0.0,0.0,0.0,0.0,0.0,0.0,0.0,0.0,0.0,0.0,0.0,0.0,0.0,0.0,0.0,0.0,0.963,1.0016,1.009,1.0055,1.0024,0.0,0.0,0.0,0.0,0.0,0.0,1.3899,1.4116,1.4452,1.4995,1.4279,1.3926,1.3964,1.4112,1.4159,1.4145,1.4593,0.0,0.0,0.0,0.0,0.0,0.0,0.0,0.0,0.0,0.0,0.0,0.0,0.0,0.0,0.0,0.0,0.0,0.0,0.0,0.0,0.0,0.0,0.0,0.0,0.0,0.0,0.0,0.0,0.0,0.0,0.0,0.0,0.0,0.0,0.0,0.0,0.0,0.0,0.0,0.0,0.0,0.0,0.0,0.0,0.0,0.0,0.0,0.0,0.0,0.0,0.0,0.0,0.0,0.0,0.0,0.0,0.0,0.0,0.0,0.0,0.0,0.0,0.0,0.7294,0.7212,0.7169,0.7407,0.7257,0.6789,0.6183,0.5957,0.5998,0.5961,0.0,0.0,0.0,0.0,0.0,0.0,0.0,0.0,0.0,0.0,0.0,0.0,0.0,0.0,0.0,0.0,0.0,0.0,0.0,0.0,0.9842,0.996,0.9994,1.0027,1.0066,1.0108,1.0114,0.0,0.0,0.0,0.0,0.0,1.3979,1.4679,1.4732,1.4145,1.4032,1.4352,1.5098,1.5804,1.614,1.6087,1.527,1.5573,1.669,0.0,0.0,0.0,0.0,0.0,0.0,0.0,0.0,0.0,0.0,0.0,0.0,0.0,0.0,0.0,0.0,0.0,0.0,0.0,0.0,0.0,0.0,0.0,0.0,0.0,0.0,0.0,0.0,0.0,0.0,0.0,0.0,0.0,0.0,0.0,0.0,0.0,0.0,0.0,0.0,0.0,0.6765,0.8436,0.0,0.0,0.0,0.0,0.0,0.0,0.0,0.0,0.0,0.0,0.0,0.0,0.0,0.9069,0.9004,0.8498,0.828,0.8292,0.7172,0.7039,0.7776,0.7583,0.731,0.6963,0.6884,0.0,0.6409,0.6224,0.0,0.0,0.0,0.0,0.0,0.0,0.0,0.0,0.0,0.0,0.0,0.0,0.0,0.0,0.0,0.0,0.0,0.0,0.0,0.0,0.0,1.057,1.061,1.0724,1.1635,1.1602,1.0256,1.1076,0.0,0.0,0.0,1.3347,1.4644,1.457,1.4335,1.4019,1.4445,1.5109,1.5971,1.6358,1.6766,1.7226,1.6739,1.63,1.5828,1.522,0.0,0.0,0.0,0.0,0.0,0.0,0.0,0.0,0.0,0.0,0.0,0.0,0.0,0.0,0.0,0.0,0.0,0.0,0.0,0.0,0.0,0.0,0.0,0.0,0.0,0.0,0.0,0.0,0.0,0.0,0.0,0.0,0.0,0.0,0.0,0.0,0.0,0.0,0.0,0.8051,0.8457,0.9576,0.9512,0.9392,0.0,0.0,0.0,0.0,0.0,0.0,0.0,0.0,0.0,0.95,1.04,1.0381,0.9343,0.9737,0.9501,0.8664,0.824,0.8606,0.9602,0.9018,0.8773,0.8774,0.8591,0.8184,0.7565,0.6757,0.6378,0.6272,0.0,0.0,0.0,0.0,0.5366,0.5389,0.0,0.0,0.0,0.0,0.0,0.0,0.0,0.0,0.0,0.0,0.0,0.0,1.1302,1.1518,1.1717,1.2035,1.3101,1.3017,1.1237,1.191,1.2577,1.3047,1.3044,1.3815,1.5431,1.4853,1.4547,1.4605,1.5392,1.6266,1.7108,1.7334,1.7812,1.8398,1.8434,1.7623,1.6168,1.5415,1.477,1.4267,0.0,0.0,0.0,0.0,0.0,0.0,0.0,0.0,0.0,0.0,0.0,0.0,0.0,0.0,0.0,0.0,0.0,0.0,0.0,0.0,0.0,0.0,0.0,0.0,0.0,0.0,0.0,0.0,0.0,0.0,0.0,0.0,0.0,0.0,0.0,0.0,0.0,0.89,0.991,1.028,0.9784,0.9491,0.0,0.0,0.0,0.0,0.0,0.0,1.043,1.0423,1.0476,1.061,1.1918,1.1797,1.0064,1.103,1.0711,0.9076,0.8935,0.9749,1.1385,1.0881,1.0516,1.0275,1.0034,0.9514,0.8789,0.7645,0.6997,0.6766,0.6844,0.6595,0.6222,0.6413,0.6406,0.6363,0.0,0.0,0.0,0.0,0.0,0.0,0.0,0.0,0.0,0.0,0.0,1.0027,1.2112,1.2798,1.3397,1.4081,1.3879,1.3668,1.3623,1.2348,1.2228,1.3681,1.3755,1.4497,1.611,1.604,1.6062,1.6193,1.7053,1.7902,1.8717,1.9662,2.0046,1.9974,2.0116,2.0055,1.9641,1.6361,1.5779,1.6787,1.4438,0.0,0.0,0.0,0.0,0.0,0.0,0.0,0.0,0.0,0.0,0.0,0.0,0.0,0.0,0.0,0.0,0.0,0.0,0.0,0.0,0.0,0.0,0.0,0.0,0.0,0.0,0.0,0.0,0.0,0.0,0.0,0.0,0.0,0.0,0.0,0.0,0.0,0.0,0.9278,0.8907,0.0,0.0,0.0,0.0,1.0246,1.1355,1.1939,1.1737,1.2488,1.2893,1.2825,1.3399,1.3267,1.2364,1.2408,1.1562,0.983,0.8557,0.9577,1.254,1.2992,1.224,1.0591,1.0495,1.0209,0.9785,0.8999,0.8098,0.7288,0.8489,0.837,0.7605,0.8555,0.851,0.8036,0.0,0.0,0.0,0.0,0.0,0.0,0.0,0.0,0.9369,1.0139,1.0311,1.1267,1.3686,1.4566,1.5217,1.5724,1.5673,1.4869,1.3023,1.2922,1.2931,1.2979,1.3925,1.4964,1.605,1.6064,1.6346,1.6933,1.8307,1.9449,2.0431,2.1336,2.1804,2.1878,2.1379,2.1444,2.1681,1.7684,1.5548,1.4756,1.3363,1.3042,0.0,0.0,0.0,0.0,0.0,0.0,0.0,0.0,0.0,0.0,0.0,0.0,0.0,0.0,0.0,0.0,0.0,0.0,0.0,0.0,0.0,0.0,0.0,0.0,0.0,0.0,0.0,0.0,0.0,0.0,0.0,0.0,0.0,0.0,0.0,0.0,0.0,0.9227,0.937,0.0,0.9953,1.0514,1.0994,1.1312,1.1908,1.2516,1.304,1.3191,1.3521,1.4139,1.4742,1.4744,1.3983,1.495,1.4875,1.3694,1.3127,1.3607,1.499,1.5168,1.4379,1.2823,1.2512,1.1829,1.1007,1.1064,1.0256,0.9076,0.9132,0.8941,0.8679,0.9035,0.9308,0.947,0.0,0.0,0.0,0.0,0.0,0.0,0.0,0.0,0.9112,0.9903,1.0402,1.1728,1.4533,1.5688,1.6585,1.7434,1.6709,1.5539,1.3971,1.3168,1.2932,1.3235,1.4718,1.5748,1.628,1.7101,1.7845,1.8465,1.9563,2.0464,2.1206,2.1866,2.2238,2.2331,2.2144,2.2377,2.272,1.9568,1.714,1.5291,1.3908,1.3902,1.4616,0.0,0.0,0.0,0.0,0.0,0.0,0.0,0.0,0.0,0.0,0.0,0.0,0.0,0.0,0.0,0.0,0.0,0.0,0.0,0.0,0.0,0.0,0.0,0.0,0.0,0.0,0.0,0.0,0.0,0.0,0.0,0.0,0.0,0.0,0.0,0.9488,1.0218,1.0217,1.0427,1.1235,1.1696,1.213,1.2586,1.3134,1.3873,1.4739,1.4703,1.4957,1.5613,1.617,1.6272,1.5802,1.6835,1.707,1.6453,1.637,1.6516,1.6782,1.6442,1.5595,1.4348,1.41,1.3404,1.247,1.2947,1.2552,1.1565,1.0503,0.9905,0.9634,0.9953,1.0378,1.079,0.0,0.0,0.0,0.0,0.0,0.0,0.9359,0.8967,0.8869,0.9343,0.9778,1.1293,1.4529,1.5984,1.739,1.9117,1.6782,1.5627,1.6534,1.3057,1.2095,1.4604,1.6116,1.6908,1.7018,1.9292,2.0615,2.0848,2.0885,2.0933,2.1042,2.1282,2.1395,2.1415,2.2485,2.2914,2.2824,2.1994,2.0664,1.8933,1.6305,1.6039,1.7019,0.0,0.0,0.0,0.0,0.0,0.0,0.0,0.0,0.0,0.0,0.0,0.0,0.0,0.0,0.0,0.0,0.0,0.0,0.0,0.0,0.0,0.0,0.0,0.0,0.0,0.0,0.0,0.0,0.0,0.0,0.0,0.0,0.0,0.9717,1.0046,1.0733,1.2134,1.1343,1.1187,1.2415,1.287,1.3352,1.4001,1.5169,1.6112,1.6767,1.7126,1.732,1.732,1.7635,1.7794,1.7794,1.7794,1.7794,1.7794,1.7794,1.7794,1.7772,1.6786,1.582,1.4967,1.5145,1.4852,1.4173,1.4616,1.482,1.4615,1.2608,1.1313,1.0662,1.1546,1.1919,1.206,0.0,0.0,0.0,0.0,0.0,0.0,0.9332,0.8859,0.8829,0.9585,1.0805,1.2426,1.4573,1.6209,1.7411,1.8075,1.5642,1.3973,1.3797,1.1863,1.2107,1.5221,1.5784,1.7142,1.9476,2.0173,2.0829,2.1537,2.211,2.2253,2.1947,2.3258,2.3674,2.3352,2.3647,2.4115,2.4587,2.3153,2.2629,2.2422,1.8525,1.6856,1.6603,0.0,0.0,0.0,0.0,0.0,0.0,0.0,0.0,0.0,0.0,0.0,0.0,0.0,0.0,0.0,0.0,0.0,0.0,0.0,0.0,0.0,0.0,0.0,0.0,0.0,0.0,0.0,0.0,0.0,0.0,0.0,0.0,1.0514,1.0319,1.047,1.0976,1.21,1.247,1.2927,1.3712,1.4341,1.4836,1.528,1.6046,1.6708,1.715,1.7248,1.7415,1.7658,1.7749,1.7794,1.7794,1.7794,1.7794,1.7794,1.7794,1.7794,1.7772,1.7502,1.6951,1.6204,1.6269,1.5879,1.5174,1.5098,1.5091,1.4972,1.3674,1.3346,1.3546,1.3283,1.3379,1.3648,0.0,0.0,0.0,0.0,0.0,0.0,0.9359,0.8861,0.8682,0.9134,1.0607,1.2025,1.3279,1.4734,1.5801,1.6181,1.3833,1.2425,1.2565,1.2164,1.2717,1.4477,1.5837,1.7789,2.0429,2.0849,2.162,2.2795,2.3012,2.3007,2.2814,2.3903,2.4266,2.4129,2.4428,2.4897,2.5305,2.4323,2.4018,2.3932,2.1352,2.0027,1.9473,1.8221,1.845,1.9254,1.796,1.7844,1.8055,1.6472,0.0,0.0,0.0,0.0,0.0,0.0,0.0,0.0,0.0,0.0,0.0,0.0,0.0,0.0,0.0,0.0,0.0,0.0,0.0,0.0,0.0,0.0,0.0,0.0,1.2434,1.208,1.2583,1.2047,1.2076,1.3346,1.3925,1.4535,1.5423,1.5974,1.6422,1.6731,1.7255,1.7636,1.7837,1.7837,1.7924,1.8142,1.8142,1.8142,1.8142,1.8142,1.8142,1.8142,1.8035,1.7971,1.7971,1.7839,1.7388,1.6733,1.7016,1.6745,1.6069,1.6227,1.6297,0.0,0.0,0.0,0.0,0.0,1.4732,1.4995,0.0,0.0,0.0,0.0,0.0,0.0,0.9331,0.8861,0.8494,0.8396,0.9701,1.0771,1.1278,1.2352,1.324,1.371,1.1728,1.0938,1.2041,1.2968,1.3475,1.3437,1.6261,1.8741,2.0673,2.1603,2.2758,2.419,2.3671,2.3438,2.3517,2.3802,2.4,2.4129,2.4928,2.5303,2.5303,2.5303,2.4897,2.4246,2.4251,2.4087,2.3564,2.1395,2.1343,2.223,2.07,1.9754,1.9178,1.8528,0.0,0.0,0.0,0.0,0.0,0.0,0.0,0.0,0.0,0.0,0.0,0.0,0.0,0.0,0.0,0.0,0.0,0.0,0.0,0.0,0.0,0.0,0.0,0.0,1.3543,1.37,1.558,1.4352,1.3882,1.5439,1.571,1.6217,1.7372,1.7772,1.8048,1.8391,1.8612,1.8728,1.8728,0.0,0.0,0.0,0.0,1.8728,1.8728,1.8728,1.8693,1.8603,1.8458,1.8315,1.8205,1.7949,1.7478,1.6868,1.7523,1.7422,1.6868,1.7523,1.7794,1.7614,1.5846,1.5082,1.5092,1.5737,1.5974,1.6047,0.0,0.0,0.0,0.0,0.0,0.0,0.9313,0.8938,0.8599,0.8441,0.9358,1.0097,1.0182,1.1039,1.1455,1.1015,1.0191,0.9898,1.034,1.1213,1.2855,1.541,1.7572,1.9813,2.2054,2.3159,2.3896,2.419,2.41,2.3834,2.3517,2.4266,2.4422,2.4129,2.4928,2.5303,2.5303,2.5303,2.5197,2.5081,2.5112,2.4347,2.3122,2.25,2.2421,2.2552,2.1393,2.1713,2.2337,2.0267,2.0051,2.0278,1.8034,1.6791,0.0,0.0,0.0,0.0,0.0,0.0,0.0,0.0,0.0,0.0,0.0,0.0,0.0,0.0,0.0,0.0,0.0,0.0,0.0,1.5314,1.5179,1.5455,1.6669,1.6507,1.6598,1.7471,1.8129,1.8728,1.9234,1.9366,1.9694,2.0413,1.9901,1.9582,1.9582,2.017,2.0261,1.9582,1.9582,1.9582,1.9582,1.9582,1.9243,1.8603,0.0,0.0,1.8205,1.8163,1.7945,1.7591,1.776,1.7726,1.7591,1.776,1.7794,1.7772,1.7345,1.6838,1.6387,1.6852,1.7031,1.6984,0.0,0.0,0.0,0.0,0.0,0.0,0.9218,0.8895,0.8644,0.8441,0.9033,0.935,0.8934,0.9512,0.9735,0.9158,0.8975,0.9267,1.0203,1.147,1.3529,1.6481,1.8225,2.0174,2.2443,2.3075,2.3614,2.419,2.4284,2.429,2.4148,2.4661,2.4839,2.4736,2.512,2.5303,2.5303,2.5303,2.5303,2.5313,2.5339,2.4891,2.4206,2.4099,2.4092,2.4018,2.3009,2.29,2.3043,2.1713,2.1141,2.0753,1.93,1.8185,1.7197,0.0,0.0,0.0,0.0,0.0,0.0,0.0,0.0,0.0,0.0,0.0,0.0,0.0,0.0,1.6764,0.0,0.0,1.6386,1.657,1.657,1.6886,1.7915,1.8056,1.8284,1.8874,1.9295,1.9841,2.0526,2.0582,2.0819,2.1386,2.1024,2.0788,2.0788,2.1169,2.1241,2.0825,2.0788,2.0788,2.0788,2.0788,2.0608,2.0192,2.046,2.021,1.957,1.9421,1.9212,1.8887,1.8504,1.8572,1.8877,1.8495,1.8586,1.8835,1.8087,1.7567,1.7258,1.7468,1.7558,1.7513,0.0,0.0,0.0,0.0,0.0,0.0,0.0,0.8897,0.8667,0.8492,0.8785,0.8739,0.803,0.8364,0.8498,0.8167,0.8098,0.8873,1.0734,1.2321,1.4359,1.7013,1.8702,2.0377,2.2165,2.2551,2.3148,2.3969,2.4283,2.4526,2.4746,2.4904,2.5065,2.5234,2.5293,2.5303,2.5303,2.5293,2.5303,2.5312,2.533,2.536,2.5415,2.5407,2.5377,2.5156,2.4245,2.3256,2.2422,2.2439,2.138,2.0107,2.0183,1.9463,1.834,1.7065,1.689,0.0,0.0,0.0,0.0,0.0,0.0,0.0,0.0,0.0,1.811,1.8217,1.8463,1.8695,1.8628,1.8376,1.8156,1.8122,1.8125,1.8357,1.9162,1.9108,1.9219,1.9844,2.0094,2.0548,2.1387,2.1624,2.188,2.2244,2.2097,2.2024,2.2024,2.2171,2.2171,2.2024,2.2024,2.2024,2.2024,2.2024,2.1951,2.1821,2.1753,2.1453,2.0993,2.0758,2.0477,2.0068,1.9408,1.9384,1.9756,1.929,1.9474,1.9904,1.8674,1.8221,1.8221,1.8144,1.8099,1.8099,0.0,0.0,0.0,0.0,0.0,0.0,0.0,0.0,0.884,0.8677,0.8694,0.8614,0.82,0.8222,0.8344,0.8582,0.7826,0.8584,1.1566,1.2593,1.435,1.715,1.9258,2.059,2.1093,2.2704,2.3402,2.3125,2.3878,2.4321,2.4526,2.4746,2.4891,2.5053,2.5214,2.5303,2.5313,2.5343,2.5383,2.5398,2.544,2.5473,2.5484,2.5498,2.5063,2.4323,2.3508,2.2154,2.0851,2.1571,2.1056,2.0366,2.1816,2.1072,1.9802,2.02,1.9405,1.8686,1.9976,2.042,2.035,1.9827,2.0151,2.0455,0.0,0.0,2.0583,1.9632,1.9594,1.9595,1.9212,1.9833,2.0433,2.0424,2.0277,2.0189,2.034,1.9573,1.936,2.031,2.1112,2.1605,2.175,2.2392,2.3125,2.3896,2.3272,2.2868,2.2868,2.3529,2.3602,2.2905,2.2868,2.2868,2.2868,2.2868,2.2501,2.1821,2.2483,2.2318,2.1329,2.1309,2.1007,2.0431,2.005,1.9553,1.908,1.9621,1.9925,1.9993,1.9832,1.9747,1.9698,1.9269,1.9132,1.9178,0.0,0.0,0.0,0.0,0.0,0.0,0.0,0.0,0.0,0.87,0.8689,0.8604,0.8332,0.8576,0.8728,0.8762,0.8485,0.9405,1.1953,1.2727,1.4363,1.7235,1.8799,1.9901,2.0648,2.159,2.2293,2.279,2.3253,2.3842,2.4493,2.47,2.4864,2.4991,2.5214,2.5303,2.5313,2.536,2.5406,2.542,2.5463,2.5493,2.5454,2.4987,2.3373,2.1491,2.2646,2.1953,0.0,2.0906,2.0671,2.0482,2.1543,2.1043,2.0135,2.0373,1.9952,1.9539,2.0174,2.1069,2.164,2.0923,2.1301,2.1672,2.0926,2.1029,2.1243,2.1027,2.1168,2.1396,2.1642,2.1695,2.1519,0.0,2.0807,2.0663,2.0655,1.9822,1.9506,2.0393,2.1253,2.1987,2.2464,2.3235,2.3823,2.4153,2.3896,2.3732,2.3876,2.419,2.4259,2.4057,2.3925,2.3856,2.3856,2.375,2.3529,2.3199,2.3529,2.3359,2.272,2.272,2.2139,2.1136,2.1275,2.0906,2.0247,2.0565,2.0969,2.1285,2.0685,2.0827,2.1204,2.0109,1.9714,1.9747,0.0,0.0,0.0,0.0,0.0,0.0,0.0,0.0,0.0,0.0,0.8783,0.8736,0.8567,0.8809,0.8971,0.8955,0.8896,0.9715,1.1757,1.2362,1.385,1.6594,1.7856,1.8949,1.993,2.059,2.1274,2.2006,2.2465,2.3031,2.3776,2.4009,2.4269,2.4588,2.4858,2.5082,2.5313,2.5368,2.5427,2.5415,2.5255,2.5173,2.5028,2.3462,2.136,1.9456,2.1273,2.0564,1.8828,1.9531,1.9762,1.9936,2.1099,2.0924,2.0318,2.0493,2.0502,2.0457,2.0475,2.1546,2.2474,2.1989,2.246,2.2895,2.2138,2.2238,2.2534,2.2863,2.303,2.3232,2.36,2.3182,2.2498,2.1642,2.1394,2.1178,2.0896,2.0196,1.9871,2.027,2.1237,2.209,2.2682,2.364,2.419,2.419,2.419,2.4303,2.4513,2.4462,2.4526,2.479,2.4543,2.4462,2.4476,2.4284,2.419,2.419,2.419,2.4056,2.3837,2.3753,2.2981,2.1766,2.2219,2.1956,2.1223,2.1412,2.1866,2.2351,2.16,2.1823,2.2432,2.1312,2.0841,2.0773,0.0,0.0,0.0,0.0,0.0,0.0,0.0,0.0,0.0,0.0,0.0,0.0,0.0,0.8724,0.8809,0.9257,0.8649,0.8988,1.0741,1.1293,1.2543,1.4788,1.6515,1.7827,1.8654,2.0109,2.0797,2.0576,2.1437,2.1858,2.1875,2.221,2.2803,2.3547,2.3973,2.4582,2.5313,2.5368,2.5421,2.5415,2.4645,2.4365,2.4062,2.0661,1.9289,1.9202,1.9286,1.7143,1.4666,1.7155,1.7974,1.842,2.0896,2.113,2.0624,2.1425,2.1644,2.1669,2.1737,2.2313,2.2916,2.3004,2.3649,2.4252,2.4209,2.4768,2.5275,2.5306,2.5262,2.4995,2.4235,2.4043,2.3688,2.2615,2.249,2.219,2.113,2.0875,2.0498,1.9887,2.1086,2.198,0.0,2.3344,2.419,2.419,2.419,2.4303,2.4513,2.4303,2.4393,2.479,2.4428,2.4284,2.4513,2.4284,2.419,2.419,2.419,2.419,2.417,2.3837,2.3113,2.2091,2.2534,2.2125,2.1283,2.1983,2.2439,2.2658,2.2658,2.2842,2.3165,2.313,2.3,2.2775,0.0,0.0,0.0,0.0,0.0,0.0,0.0,0.0,0.0,0.0,0.0,0.0,0.0,0.0,0.0,0.0,0.9354,0.9804,1.1246,1.1237,1.1893,1.3524,1.4801,1.5595,1.5863,1.7168,1.8057,1.8535,1.9073,1.9895,2.0923,2.1198,2.1792,2.2728,2.2996,2.363,2.4476,2.3976,2.4418,2.5342,2.3403,2.2644,2.2377,1.9435,1.7268,1.5802,0.0,1.6534,1.6751,1.8224,1.8737,1.8919,1.9782,1.9867,2.0028,2.2031,2.3047,2.3633,2.4218,2.4998,2.562,2.5699,2.5892,2.6082,2.6022,2.5769,2.5342,2.4736,2.4128,2.3441,2.2601,2.2439,2.2114,2.118,2.1933,2.2462,2.2042,2.1744,2.1747,2.2186,2.2599,0.0,0.0,0.0,0.0,2.4209,2.419,2.4339,2.4685,2.4639,2.4775,2.5126,2.4877,2.4723,2.47,2.4476,2.4321,2.419,2.419,2.419,2.419,2.3837,2.3487,2.3163,2.308,2.2832,2.2547,2.2788,2.2951,2.3023,2.3023,2.3106,2.3189,2.3189,2.3293,2.3383,0.0,0.0,0.0,0.0,0.0,0.0,0.0,0.0,0.0,0.0,0.0,0.0,0.0,0.0,0.0,0.0,0.0,0.9746,1.0536,1.0788,1.1396,1.2552,1.3685,1.4484,1.4851,1.5696,1.629,1.6602,1.6971,1.7548,1.8294,1.8525,1.9126,2.0123,2.0601,2.134,2.2244,2.1675,2.2114,2.3014,2.1048,2.0302,2.0092,1.7482,1.5811,0.0,1.4806,1.5893,1.7471,1.8329,1.8664,1.8841,1.9449,1.9627,2.0155,2.2752,2.3927,2.4713,2.6209,2.7031,2.7539,2.7851,2.7461,2.6992,2.6947,2.6,2.4885,2.4,2.3081,2.2122,2.0927,2.0707,2.0424,1.9529,2.048,2.1388,2.1674,2.1718,2.2123,2.3118,2.3409,2.3493,0.0,0.0,0.0,2.4445,2.4303,2.4375,2.4775,2.4731,2.4832,2.5115,2.493,2.478,2.47,2.4476,2.4321,2.419,2.419,2.419,2.419,2.3976,2.3816,2.371,2.3471,2.3307,2.3188,2.32,2.3276,2.3386,2.3386,2.3451,2.3566,2.3566,2.3674,2.3816,0.0,0.0,0.0,0.0,0.0,0.0,0.0,0.0,0.0,0.0,0.0,0.0,0.0,0.0,0.0,0.0,0.0,0.0,0.8875,0.9958,1.1006,1.1844,1.3104,1.4239,1.531,1.5582,1.5454,1.4929,1.5217,1.5017,1.4367,1.4632,1.5263,1.6234,1.7221,1.8152,1.9012,1.8863,1.8904,1.8966,1.7863,1.7551,1.7437,1.4876,1.4936,1.6163,1.4565,1.5052,1.6651,1.7484,1.7907,1.8323,1.9998,2.0603,2.1184,2.3756,2.4578,2.5208,2.7772,2.8514,2.8708,2.9531,2.8398,2.707,2.707,2.5619,2.4001,2.3218,2.2204,2.0988,0.0,0.0,1.88,1.8048,1.866,1.9519,2.0389,2.1053,2.1837,0.0,0.0,0.0,0.0,0.0,0.0,2.4884,0.0,2.441,2.485,2.466,2.4607,2.4804,2.4623,2.4526,2.4526,2.4303,2.4209,2.419,2.419,2.419,2.419,2.419,2.4016,2.3732,2.3732,2.3559,2.3249,2.3249,2.3464,2.3802,2.3802,2.4004,2.43,2.43,2.43,2.4205,0.0,0.0,0.0,0.0,0.0,0.0,0.0,0.0,0.0,0.0,0.0,0.0,0.0,0.0,0.0,0.0,0.0,0.0,0.9943,0.9681,1.0072,1.1304,1.1649,1.2267,1.3172,1.3932,1.4263,1.4188,1.4387,1.4711,1.5108,1.5162,1.6,1.7533,1.7907,1.8595,1.9503,1.8993,1.9203,1.969,1.751,1.6656,1.6542,1.4647,1.4169,1.4517,1.4067,1.4998,1.6551,1.7427,1.8595,2.0027,2.1854,2.3319,2.4729,2.6652,2.8145,2.9441,3.0775,3.117,3.125,3.1484,2.9726,2.7969,2.7969,2.5624,2.3239,2.2326,2.0412,1.8804,0.0,0.0,0.0,1.9551,2.0946,0.0,2.3022,2.3666,0.0,2.4601,0.0,2.5726,2.5866,2.5929,0.0,0.0,2.5215,2.4964,2.5672,2.5099,2.478,2.4956,2.4879,2.4853,2.4853,2.4554,2.4339,2.419,2.419,2.419,2.419,2.419,2.4151,2.4056,2.4056,2.4036,2.3943,2.3943,2.4368,2.4961,2.4957,2.5397,2.5988,2.5988,2.5621,2.5181,0.0,0.0,0.0,0.0,0.0,0.0,0.0,0.0,0.0,0.0,0.0,0.0,0.0,0.0,0.0,0.0,0.0,0.0,0.0,1.009,1.0487,1.1158,1.1783,1.2341,1.2762,1.3413,1.3554,1.3249,1.3507,1.3671,1.3716,1.3743,1.4327,1.5367,1.5857,1.6425,1.6949,1.6602,1.6802,0.0,0.0,1.5165,1.518,1.4657,1.4426,1.4475,1.4459,1.5482,1.7142,1.8424,2.0055,2.1813,2.3621,2.5116,2.6721,2.9194,3.0609,3.1631,3.2888,3.328,3.3203,3.2812,3.0781,2.8555,2.7422,2.4805,2.2148,2.0464,1.8981,1.7888,1.7446,1.7673,0.0,0.0,0.0,0.0,2.3291,2.3832,2.4502,0.0,2.5855,0.0,2.7072,2.6699,2.6765,0.0,2.5895,2.5129,2.5959,2.5242,2.5106,2.58,2.5219,2.4917,2.4917,2.4746,2.4526,2.4321,2.4321,2.4303,2.419,2.419,2.419,2.419,0.0,2.419,2.419,2.419,2.4447,2.485,2.4867,2.5344,2.6025,2.5695,2.5695,2.5952,0.0,0.0,0.0,0.0,0.0,0.0,0.0,0.0,0.0,0.0,0.9681,0.0,0.0,0.0,0.0,0.0,0.0,0.0,0.0,0.0,1.1292,1.1437,1.2534,1.3238,1.3407,1.3586,1.335,1.2669,1.2922,1.2667,1.1931,1.2002,1.2155,1.2339,1.3246,1.3709,1.3747,1.3811,1.3835,1.3826,1.3731,1.3789,1.4067,0.0,1.5153,1.5234,1.5389,1.6343,1.7914,2.0016,2.1804,2.3494,2.5379,2.6633,2.8086,3.1465,3.2528,3.2962,3.4453,3.4883,3.4648,3.3633,3.1406,2.8789,2.6289,2.3555,2.0898,1.8633,1.8008,1.7617,1.699,1.7532,1.8373,1.9329,0.0,2.0437,2.2816,2.3244,2.412,2.6351,2.612,2.639,2.789,2.739,2.7544,2.8967,2.6657,2.5542,2.6329,2.5513,2.5552,2.68,2.568,2.5012,2.4998,2.487,2.4746,2.4526,2.4526,2.4445,2.4247,2.4247,2.4228,2.419,2.419,2.419,2.419,2.43,2.441,2.452,2.463,2.5144,2.5768,2.5071,2.5658,2.6649,0.0,0.0,0.0,0.0,0.0,0.0,0.0,0.0,0.0,0.0,1.0879,1.0339,0.0,0.0,0.0,0.0,0.0,0.0,0.0,0.0,0.0,1.2535,1.2176,1.2578,1.3939,1.3989,1.4033,1.4053,1.3951,1.3814,1.3658,1.3454,1.3748,1.4485,1.4864,1.507,1.5085,1.5362,1.5156,1.4607,1.4578,1.4706,1.489,1.5037,0.0,0.0,1.6687,1.7302,1.7953,2.1335,2.3174,2.4505,2.7026,2.8904,3.0741,3.3437,3.4765,3.539,3.5703,3.5781,3.5391,3.3789,3.0937,2.8047,2.6133,2.2617,0.0,1.9177,1.7927,1.7106,1.7652,1.8472,1.956,2.106,2.1878,2.2943,2.4694,2.5532,2.6082,0.0,2.7698,2.8544,2.8852,2.8736,0.0,0.0,0.0,2.7649,2.8284,2.686,2.6148,2.6388,2.6312,2.6221,2.6047,2.5323,2.4904,2.4746,2.4746,2.4639,2.4462,2.4462,2.4357,2.419,2.419,0.0,2.4263,2.4944,2.5585,2.6245,2.6927,2.7662,2.8374,2.8227,2.7897,2.7552,0.0,0.0,0.0,0.0,0.0,0.0,0.0,1.3335,1.3161,1.2381,1.2129,1.1733,1.1049,1.0947,1.0956,0.0,0.0,0.0,0.0,0.0,0.0,0.0,1.1942,1.2501,1.4222,1.3884,1.3931,1.4451,0.0,1.4271,1.4257,1.4087,1.4246,1.4645,1.4826,1.4903,1.489,1.5188,1.5139,1.4785,1.482,1.4989,1.5159,1.5159,0.0,0.0,1.6396,1.714,1.7958,2.0501,2.2396,2.4206,2.7304,2.9492,3.1328,3.3398,3.4961,3.6094,3.6562,3.668,3.6133,3.3945,3.1483,2.8589,2.4608,0.0,0.0,1.8235,1.7649,1.7649,1.8511,1.9371,0.0,2.1616,2.1698,2.2382,2.4438,2.4654,0.0,2.7044,2.7582,2.8313,0.0,2.9352,0.0,0.0,0.0,2.909,2.8821,2.8412,2.784,2.7014,2.7593,2.7665,2.7136,2.6715,2.6414,2.6246,2.6246,2.6147,2.5946,2.55,2.5152,2.4968,2.5,0.0,2.4887,2.5695,2.6266,2.6654,2.7043,2.7573,2.8125,2.786,2.8044,2.8338,0.0,0.0,0.0,0.0,0.0,0.0,1.3859,1.3927,1.3665,1.2847,1.3088,1.3084,1.2414,1.2196,1.2105,0.0,0.0,0.0,0.0,0.0,0.0,0.0,0.0,0.0,1.4448,0.0,0.0,1.4606,1.4574,0.0,0.0,0.0,0.0,0.0,1.4451,1.446,1.4474,1.4695,1.4823,0.0,0.0,1.504,0.0,0.0,0.0,0.0,0.0,1.6674,1.7645,1.9249,2.087,2.2706,2.5697,2.8162,3.035,3.2069,3.3905,3.5585,3.6484,3.7031,3.6641,3.3828,3.1675,2.8774,2.32,2.1037,1.9609,1.7443,1.7682,1.8503,1.9171,1.9993,2.0812,0.0,2.1051,2.1511,2.3806,2.3837,2.4687,0.0,2.7621,0.0,3.0186,0.0,0.0,0.0,0.0,0.0,2.8937,2.965,2.9421,2.7956,2.8691,2.8813,2.8159,2.8005,2.7796,2.765,2.765,2.7559,2.735,2.6664,2.6149,2.5772,2.5967,0.0,0.0,2.6507,2.6912,2.688,2.7043,2.7374,2.7705,2.7273,2.7934,2.8888,0.0,0.0,0.0,0.0,0.0,0.0,1.3667,1.3778,1.3587,1.2739,1.3463,1.3835,1.319,1.2547,1.2188,0.0,0.0,0.0,0.0,0.0,0.0,0.0,0.0,0.0,0.0,0.0,0.0,1.4857,1.4757,0.0,0.0,0.0,0.0,0.0,0.0,1.4526,1.46,1.4755,0.0,0.0,0.0,0.0,0.0,0.0,0.0,0.0,0.0,1.6352,1.6636,1.8523,1.922,1.949,2.0737,2.3904,2.751,2.9279,3.1504,0.0,3.4687,3.6094,3.6484,3.3164,3.0348,2.7292,2.2887,0.0,1.9061,1.8096,1.8566,1.919,1.9307,2.0022,2.0615,2.0697,2.1234,2.226,2.3961,2.5427,2.6717,2.7785,0.0,0.0,3.0379,0.0,0.0,0.0,0.0,0.0,2.911,2.9906,2.9944,2.8994,2.9044,2.9044,2.8967,2.8275,2.789,2.7879,2.7879,2.7762,2.7573,2.747,2.6916,2.6019,2.6827,0.0,0.0,2.7335,2.7853,2.7757,2.8484,2.8815,2.8851,2.8792,2.8865,2.8865,0.0,0.0,0.0,0.0,0.0,0.0,1.3862,1.3868,1.3783,1.3418,1.3854,1.4085,1.3847,1.3739,1.3474,1.2878,0.0,0.0,0.0,0.0,0.0,0.0,0.0,0.0,0.0,0.0,1.4392,1.4892,1.4849,0.0,0.0,0.0,0.0,0.0,0.0,0.0,1.4718,1.4776,0.0,0.0,0.0,0.0,0.0,0.0,0.0,0.0,0.0,0.0,1.576,1.7003,1.7418,1.7507,1.7786,1.9439,2.2017,2.5905,2.9257,3.2129,3.4093,3.5936,3.6484,3.3003,3.0144,2.7091,2.2791,0.0,1.9127,1.8837,1.9029,1.9417,1.9929,2.0326,2.057,2.0581,2.0377,2.0828,2.253,2.3259,2.4517,2.691,2.8202,0.0,0.0,0.0,0.0,0.0,0.0,0.0,2.989,3.0198,3.0237,2.989,2.989,2.989,2.989,2.9544,2.939,2.939,2.939,2.9356,2.9269,2.8746,2.8211,2.768,2.807,0.0,0.0,2.8596,2.9024,2.8961,2.9149,2.9145,2.8975,2.8975,2.8975,2.8938,0.0,0.0,0.0,0.0,0.0,1.4033,1.3977,1.3927,1.3833,1.3587,1.3712,1.3869,1.3932,1.4176,1.407,1.3427,1.2845,0.0,0.0,0.0,0.0,0.0,0.0,0.0,0.0,0.0,1.4333,1.4892,1.4909,1.4909,0.0,0.0,0.0,0.0,0.0,0.0,0.0,0.0,0.0,0.0,0.0,0.0,0.0,0.0,0.0,0.0,0.0,0.0,0.0,0.0,0.0,1.6066,1.5933,1.6306,1.7706,2.2233,2.6217,2.9653,3.2053,3.4371,3.5351,3.2135,2.9355,2.6384,2.2338,0.0,1.9156,1.8949,1.9258,1.9759,2.0383,2.0511,2.0521,2.057,2.0024,2.0135,2.1608,2.1908,2.3009,0.0,0.0,0.0,0.0,0.0,0.0,0.0,0.0,0.0,3.0379,3.0379,3.0379,3.0379,3.0379,3.0379,3.0379,3.0379,3.0379,3.0379,3.0379,3.0379,3.0379,2.9752,2.9282,2.89,2.915,0.0,0.0,2.9455,2.9732,2.9701,2.9539,2.9333,2.9112,2.9112,2.9067,2.8975,0.0,0.0,0.0,0.0,0.0,0.0,1.3934,1.3897,1.3622,1.2807,1.2893,1.3112,1.3277,1.342,1.3505,1.3505,1.3476,0.0,0.0,0.0,0.0,0.0,0.0,0.0,0.0,0.0,1.4892,1.4892,1.4957,1.4957,1.4892,1.4957,1.495,1.4892,0.0,0.0,0.0,0.0,0.0,0.0,0.0,0.0,0.0,0.0,0.0,0.0,0.0,0.0,0.0,0.0,0.0,0.0,0.0,1.5019,1.5451,1.8153,2.2067,2.5883,2.7754,3.0818,3.2812,3.0181,2.7559,2.4744,2.1308,1.9814,1.8961,1.8192,1.9328,2.049,2.0495,2.049,2.0511,2.049,2.0564,2.0887,2.1675,2.2497,0.0,0.0,0.0,0.0,0.0,0.0,0.0,0.0,0.0,0.0,3.0379,3.0379,3.0379,3.0379,3.0379,3.0379,3.0379,3.0379,3.0379,3.0379,3.0379,3.0379,3.0379,3.0379,2.9929,2.9121,0.0,0.0,0.0,2.967,2.987,2.9687,2.9691,2.957,2.9411,2.9411,2.9243,2.8975,0.0,0.0,0.0,0.0,0.0,0.0,1.418,1.4101,1.3761,1.2991,1.3075,1.3026,1.2519,1.3123,1.3601,1.3635,1.3572,0.0,0.0,0.0,0.0,0.0,0.0,0.0,0.0,1.446,1.4875,1.4811,1.4942,1.4981,1.4957,1.4981,1.4996,1.5042,1.4996,1.5026,0.0,0.0,0.0,0.0,0.0,0.0,0.0,0.0,0.0,0.0,0.0,0.0,0.0,0.0,0.0,0.0,0.0,0.0,0.0,1.611,1.901,2.2289,2.4088,2.6337,2.7654,2.5583,2.3592,2.1717,2.0012,1.8525,1.7747,1.872,1.9258,1.9795,2.0409,2.0497,2.0506,2.0509,2.0566,2.0693,0.0,0.0,0.0,0.0,0.0,0.0,0.0,0.0,0.0,0.0,0.0,0.0,3.0379,3.0379,3.0379,3.0379,3.0379,3.0379,3.0379,3.0379,3.0379,3.0379,3.0379,3.0379,3.0379,3.0379,3.0237,0.0,0.0,0.0,0.0,3.0152,3.0241,3.0151,2.9984,2.9861,2.9796,2.9662,2.9456,2.9265,0.0,0.0,0.0,0.0,0.0,0.0,1.4332,1.4245,1.4039,1.3629,1.3402,1.3129,1.2705,1.3255,1.3645,1.3728,1.3986,0.0,0.0,0.0,0.0,0.0,0.0,0.0,1.3635,1.4454,1.4841,1.4757,1.4875,1.4942,1.4973,1.5054,1.5088,1.5088,1.5095,1.5114,0.0,0.0,0.0,0.0,0.0,0.0,1.7272,0.0,0.0,0.0,0.0,0.0,0.0,0.0,0.0,0.0,0.0,0.0,0.0,0.0,1.6706,1.8827,2.0934,2.3075,2.4368,2.2889,2.1289,0.0,1.8917,1.7669,1.7013,1.8096,1.879,1.9367,1.9899,2.0296,2.05,2.0506,2.0529,2.0697,0.0,0.0,0.0,0.0,0.0,0.0,0.0,0.0,0.0,0.0,0.0,0.0,3.0379,3.0379,3.0379,3.0379,3.0379,3.0379,3.0379,3.0379,3.0379,3.0379,3.0379,3.0379,3.0379,3.0379,3.0379,0.0,0.0,0.0,0.0,3.0379,3.0379,3.0379,3.0228,3.0109,2.9984,2.9861,2.9697,2.9475,0.0,0.0,0.0,0.0,0.0,0.0,0.0,1.4344,1.4344,1.4397,1.3793,1.3383,1.3518,1.3622,1.3726,1.3709,1.4558,0.0,0.0,0.0,0.0,0.0,0.0,0.0,1.3705,1.4494,1.4848,1.4701,1.4841,1.4904,1.4896,1.5101,1.5152,1.5107,1.526,1.5289,1.521,1.5299,1.5862,1.6672,1.6676,1.726,0.0,0.0,0.0,0.0,0.0,0.0,0.0,0.0,0.0,0.0,0.0,0.0,0.0,0.0,0.0,0.0,0.0,2.0711,2.2336,2.1481,2.0115,1.8788,1.7919,1.7143,0.0,1.6678,1.8003,1.9127,1.9173,1.9896,2.0497,2.049,2.0494,0.0,0.0,0.0,0.0,0.0,0.0,0.0,0.0,0.0,0.0,0.0,0.0,0.0,3.0379,3.0379,3.0379,3.0379,3.0379,3.0379,3.0379,3.0379,3.0379,3.0379,3.0379,3.0379,3.0379,3.0379,3.0379,0.0,0.0,0.0,0.0,3.0379,3.0379,3.0379,3.0379,3.0254,3.0028,3.0028,2.9893,2.9712,0.0,0.0,0.0,0.0,0.0,0.0,0.0,0.0,0.0,0.0,1.3598,1.3322,1.2811,1.3384,1.3551,0.0,0.0,0.0,0.0,0.0,0.0,0.0,0.0,0.0,1.3705,1.5085,1.5448,1.4701,1.5656,1.5649,1.4828,1.5088,1.5234,1.5236,1.5284,1.5752,1.6497,1.6497,1.6881,1.7518,1.7577,1.8123,0.0,0.0,0.0,0.0,1.8769,1.8554,0.0,0.0,0.0,0.0,0.0,0.0,0.0,0.0,1.5319,1.5431,1.6091,0.0,1.7158,1.6944,1.6599,1.625,0.0,1.5846,1.5873,1.6561,0.0,1.8468,1.9088,1.9918,2.0514,2.0511,0.0,0.0,0.0,0.0,0.0,0.0,0.0,0.0,0.0,0.0,0.0,0.0,0.0,3.0379,3.0379,3.0379,3.0379,3.0379,3.0379,3.0379,3.0379,3.0379,3.0379,3.0379,3.0379,3.0379,3.0379,3.0379,3.0379,0.0,0.0,0.0,3.0379,3.0379,3.0379,3.0379,3.0379,3.0355,3.033,3.033,3.0136,2.9939,0.0,0.0,0.0,0.0,0.0,0.0,0.0,0.0,0.0,0.0,1.413,1.3864,1.3145,1.384,1.4041,0.0,0.0,0.0,0.0,0.0,0.0,0.0,0.0,1.4797,1.4174,1.5386,1.5577,1.4632,1.5312,1.5376,1.4846,1.5068,1.5224,1.5293,1.5293,1.6213,1.7783,1.7722,1.7966,1.8413,1.8445,0.0,0.0,0.0,0.0,0.0,1.9448,1.9159,0.0,1.7534,1.687,1.6521,0.0,0.0,0.0,0.0,1.5334,1.5327,1.5387,1.5704,1.6016,1.6,1.6013,1.6016,1.6014,1.5691,1.5633,1.6522,0.0,1.8247,1.9105,2.0248,2.096,0.0,2.1172,0.0,0.0,0.0,0.0,0.0,0.0,0.0,0.0,0.0,0.0,0.0,0.0,2.9862,2.9862,2.9862,3.0023,3.039,3.0006,3.0006,3.0379,3.0379,3.0379,3.0379,3.0379,3.0379,3.0379,3.0379,3.0379,0.0,0.0,0.0,3.0379,3.0379,3.0379,3.0379,3.0379,3.0379,3.0379,3.0379,3.033,3.0177,0.0,0.0,0.0,0.0,0.0,0.0,0.0,0.0,0.0,0.0,0.0,0.0,0.0,0.0,0.0,0.0,0.0,0.0,0.0,0.0,0.0,0.0,1.5245,1.5155,1.4932,1.5849,1.5833,1.4859,1.4933,1.4922,1.4887,1.5068,1.5174,1.5298,1.5302,1.668,1.9066,1.893,1.9034,1.9281,1.9142,0.0,0.0,0.0,0.0,0.0,0.0,0.0,0.0,1.9013,1.7956,1.6788,1.6653,0.0,0.0,0.0,0.0,0.0,1.5377,1.621,1.7038,1.6748,1.6795,1.6914,1.691,1.635,1.6018,1.6724,1.7591,1.8418,1.916,2.0536,0.0,0.0,0.0,0.0,0.0,0.0,0.0,0.0,0.0,0.0,0.0,0.0,0.0,0.0,0.0,2.9287,2.9403,2.9287,2.9505,3.0194,2.9385,2.9297,3.0006,3.016,3.0275,3.0379,3.0379,3.0379,3.0379,3.0379,3.0379,3.0379,0.0,0.0,3.0379,3.0379,3.0379,3.0379,3.0379,3.0379,3.0379,3.0379,3.0379,3.0379,0.0,0.0,0.0,0.0,0.0,0.0,0.0,0.0,0.0,0.0,0.0,0.0,0.0,0.0,0.0,0.0,0.0,0.0,0.0,0.0,0.0,1.5912,1.6012,1.5986,1.5873,1.7083,1.7125,1.5942,1.6336,1.5977,1.4921,1.5113,1.525,1.5299,1.5299,1.7128,2.0235,2.0221,2.0189,2.0153,1.9386,0.0,0.0,0.0,0.0,0.0,0.0,0.0,0.0,1.8586,1.7922,1.7573,1.6827,0.0,0.0,0.0,0.0,0.0,1.5394,1.7088,1.8496,1.7051,1.7258,1.7812,1.7812,1.7686,1.7636,1.7686,1.8392,1.9058,1.9178,2.0038,2.066,0.0,0.0,0.0,0.0,0.0,0.0,0.0,0.0,0.0,0.0,0.0,0.0,0.0,0.0,2.9622,3.0328,2.97,2.931,2.9378,2.8586,2.8222,2.8275,2.8967,2.966,3.0379,3.0379,3.0379,3.0379,3.0379,3.0379,3.0379,0.0,3.0379,3.0379,3.0379,3.0379,3.0379,3.0379,3.0379,3.0379,3.0379,3.0379,3.0379,0.0,0.0,0.0,0.0,0.0,0.0,0.0,0.0,0.0,0.0,0.0,0.0,0.0,0.0,0.0,0.0,0.0,0.0,0.0,0.0,1.5445,1.6184,1.6243,1.6207,1.61,1.7349,1.7386,1.6165,1.7523,1.7065,1.4849,1.5106,1.5259,1.5412,1.6334,1.8169,2.056,2.0533,2.0223,1.9711,0.0,0.0,0.0,0.0,0.0,0.0,0.0,0.0,0.0,0.0,1.7978,1.7124,1.6736,0.0,0.0,0.0,0.0,0.0,1.5335,1.6547,1.7719,1.7421,1.8742,1.9961,1.9491,1.9408,1.9405,1.9334,1.9609,0.0,0.0,0.0,2.2377,2.3788,0.0,0.0,0.0,0.0,0.0,0.0,0.0,0.0,0.0,0.0,0.0,0.0,0.0,0.0,2.9975,2.8723,2.8379,2.9239,2.8029,2.7551,2.7952,2.7836,2.8453,2.9698,2.9698,2.9929,3.0379,3.0379,3.0379,3.0379,0.0,3.0379,3.0379,3.0379,3.0379,3.0379,3.0379,3.0379,3.0379,3.0379,3.0379,3.0379,0.0,0.0,0.0,0.0,0.0,0.0,0.0,0.0,0.0,0.0,0.0,0.0,0.0,0.0,0.0,0.0,0.0,0.0,0.0,1.5127,1.5514,1.6531,1.6388,1.6397,1.6533,1.7707,1.7842,1.6835,1.7729,1.704,1.4837,1.5075,1.54,1.5897,1.7766,1.933,2.0546,2.0256,1.9762,1.9184,0.0,0.0,0.0,0.0,0.0,0.0,0.0,0.0,0.0,0.0,0.0,0.0,0.0,0.0,0.0,1.5306,1.5303,1.5299,1.5299,1.6072,1.7012,1.7476,1.928,2.0937,2.0898,2.0897,2.0936,2.1094,2.1289,0.0,0.0,2.2337,0.0,0.0,0.0,0.0,0.0,0.0,0.0,0.0,0.0,0.0,0.0,0.0,0.0,0.0,0.0,0.0,2.9476,2.7874,2.7465,2.8695,2.7294,2.679,2.7404,2.6722,2.7198,2.8813,2.8813,2.9159,2.9813,2.9813,2.9929,3.0121,3.0121,3.0198,3.0379,3.0379,3.0379,3.0379,3.0379,3.0379,3.0379,3.0379,3.0275,3.0121,0.0,0.0,0.0,0.0,0.0,0.0,0.0,0.0,0.0,0.0,0.0,0.0,0.0,0.0,0.0,0.0,0.0,0.0,0.0,1.5092,1.5687,1.7255,1.6667,1.6778,1.7857,1.8748,1.9139,1.9051,1.6224,1.4881,1.4981,1.514,1.5844,1.709,1.9373,2.0467,2.0458,1.9362,1.9041,1.9144,1.8325,0.0,0.0,0.0,0.0,0.0,0.0,0.0,0.0,0.0,0.0,0.0,0.0,0.0,1.5319,1.5303,1.5292,1.5315,1.5315,1.6542,1.7614,1.6871,1.7455,1.8809,2.1168,2.1718,2.1952,2.2733,2.3554,2.363,0.0,2.185,0.0,0.0,0.0,0.0,0.0,0.0,0.0,0.0,0.0,0.0,0.0,0.0,0.0,0.0,0.0,0.0,2.9531,2.7929,2.7028,2.7084,2.6183,2.5694,2.5678,2.5564,2.6309,2.8005,2.8005,2.8005,2.8082,2.8082,2.8506,2.9198,2.9198,2.966,3.0379,3.0379,3.0379,3.0379,3.0379,3.0379,3.0379,3.0379,2.989,2.9313,0.0,0.0,0.0,0.0,0.0,0.0,0.0,0.0,0.0,0.0,0.0,0.0,0.0,0.0,0.0,0.0,0.0,0.0,0.0,1.5099,1.5521,1.6602,1.6833,1.6876,1.6829,1.7463,1.7326,1.6298,1.5123,1.4643,1.495,1.7376,1.8746,1.9262,2.0131,2.0144,1.9402,1.902,1.8391,1.7632,1.7309,1.6811,0.0,0.0,0.0,0.0,0.0,0.0,0.0,0.0,1.6498,1.5762,1.5739,1.5497,1.5226,1.5236,1.5211,1.5185,1.5185,1.6489,1.7629,1.6762,1.7193,1.8671,2.1863,2.304,2.3509,2.3856,2.5033,2.5463,0.0,0.0,2.5347,0.0,0.0,0.0,0.0,0.0,0.0,0.0,0.0,0.0,0.0,0.0,0.0,0.0,0.0,0.0,2.875,2.7148,2.6445,2.695,2.613,2.5613,2.5542,2.5484,2.5751,2.6339,2.6853,2.739,2.789,2.789,2.8082,2.8352,2.8352,2.8813,2.9583,2.9583,2.9929,3.0379,3.0379,2.9775,2.8967,3.0006,2.9852,2.9198,0.0,0.0,0.0,0.0,0.0,0.0,0.0,0.0,0.0,0.0,0.0,0.0,0.0,0.0,0.0,0.0,0.0,0.0,1.5113,1.5092,1.5415,1.6186,1.6402,1.6511,1.6436,1.6132,1.5473,1.4488,1.4567,1.4698,1.5001,1.859,2.0121,1.9873,2.0219,1.9987,1.9268,1.8975,1.8079,1.682,1.6729,1.6113,0.0,0.0,0.0,0.0,0.0,0.0,0.0,0.0,1.5697,1.525,1.518,1.5168,1.5174,1.5185,1.5349,1.5504,1.5504,1.6605,1.7595,1.7045,1.7559,1.9118,2.2715,2.3737,2.4282,2.5418,2.636,2.6556,2.5063,0.0,0.0,0.0,0.0,0.0,0.0,0.0,0.0,0.0,0.0,0.0,0.0,0.0,0.0,0.0,0.0,0.0,0.0,2.6484,2.5977,2.6562,2.6016,2.5663,2.5615,2.5527,2.5468,2.5447,2.5965,2.6505,2.7082,2.7082,2.7236,2.7505,2.7505,2.7967,2.8698,2.8698,2.9083,2.966,2.989,2.9275,2.8429,2.9583,2.9775,2.9583,0.0,0.0,0.0,0.0,0.0,0.0,0.0,0.0,0.0,0.0,0.0,0.0,0.0,0.0,0.0,0.0,0.0,0.0,1.5106,1.5057,1.5375,1.6186,1.5311,1.5553,1.712,1.5049,1.4082,1.4488,1.4716,1.4925,1.526,1.838,1.9347,1.8582,1.969,2.0239,2.0223,1.9244,1.8139,1.7099,1.6739,1.609,1.5313,0.0,0.0,0.0,0.0,0.0,0.0,0.0,1.5088,1.5094,1.5094,1.5094,1.5139,1.5174,1.5778,1.6407,1.6407,1.6979,1.7631,1.7761,1.8424,1.9972,2.3571,2.3691,2.4001,2.7577,2.7616,2.6753,2.5854,2.4995,0.0,0.0,0.0,0.0,0.0,0.0,0.0,0.0,0.0,0.0,0.0,0.0,0.0,0.0,0.0,0.0,0.0,2.6172,2.5703,2.5703,2.5703,2.5703,2.5703,2.5584,2.5493,2.5489,2.5352,2.5303,2.5303,2.5303,2.5774,2.6582,2.6582,2.7082,2.789,2.789,2.789,2.7967,2.8775,2.9083,2.9083,2.9083,2.9621,3.0379,0.0,0.0,0.0,0.0,0.0,0.0,0.0,0.0,0.0,0.0,0.0,0.0,0.0,0.0,0.0,0.0,0.0,0.0,1.678,1.623,1.5999,1.6204,1.5283,1.4942,1.5299,1.4624,1.4344,1.4488,1.4567,1.4688,1.4984,1.8283,2.0289,2.114,2.0634,2.0349,2.0192,1.9851,1.8888,1.7532,1.6783,1.628,1.6028,0.0,0.0,0.0,0.0,0.0,0.0,0.0,0.0,0.0,1.4996,1.5415,1.5827,1.5186,1.5565,1.6204,1.6204,1.7347,1.8525,1.8558,2.0205,2.2275,2.4007,2.4167,2.499,2.8476,2.8046,2.6909,2.6674,2.6405,0.0,0.0,0.0,0.0,0.0,0.0,0.0,0.0,0.0,0.0,0.0,0.0,0.0,0.0,0.0,0.0,0.0,2.5859,2.5703,2.5703,2.5703,2.5703,2.5703,2.5607,2.557,2.5489,2.542,2.5348,2.5303,2.5303,2.5418,2.5687,2.5687,2.6197,2.7044,2.7659,2.7544,2.7082,2.7928,2.7505,2.6659,2.8429,2.889,2.8813,0.0,0.0,0.0,0.0,0.0,0.0,0.0,0.0,0.0,0.0,1.7407,1.6788,0.0,0.0,0.0,0.0,0.0,0.0,1.7521,1.7077,1.6616,1.6213,1.5283,1.5373,1.6592,1.651,1.6509,1.6534,1.6434,1.7135,1.8562,2.0233,2.1433,2.2158,2.1748,2.0983,2.0069,2.0509,1.9922,1.8602,1.7696,1.7196,1.6868,0.0,0.0,0.0,0.0,0.0,0.0,0.0,0.0,0.0,1.4917,1.5523,1.6164,1.5624,1.5997,1.6715,1.7085,1.8297,1.9522,1.9895,2.1774,2.3829,2.5149,2.6247,0.0,0.0,2.9296,2.8436,2.8084,2.7461,0.0,0.0,0.0,0.0,0.0,0.0,0.0,0.0,0.0,0.0,0.0,0.0,0.0,0.0,0.0,0.0,0.0,2.5703,2.5703,2.5703,2.5703,2.5703,2.5703,2.5615,2.559,2.5524,2.5457,2.5427,2.5368,2.5312,2.5303,2.5303,2.5303,2.561,2.6159,2.7005,2.689,2.6159,2.7044,2.6736,2.6043,2.7928,2.8506,2.8582,0.0,0.0,0.0,0.0,0.0,0.0,0.0,0.0,0.0,0.0,1.8061,1.7539,0.0,0.0,0.0,0.0,0.0,0.0,0.0,1.7704,1.7262,1.6487,1.5489,1.6484,1.9751,1.9684,1.9639,1.975,1.9604,2.1106,2.419,2.3392,2.2731,2.2253,2.2974,2.2106,2.0189,2.1292,2.1145,2.0058,1.924,1.8527,1.7895,1.6879,0.0,0.0,0.0,0.0,0.0,0.0,0.0,0.0,1.4997,1.5648,1.6422,1.6417,1.6932,1.7719,1.8616,1.9519,2.0469,2.1536,2.315,2.4939,2.6718,2.8945,3.0664,3.0664,0.0,3.0391,2.9531,2.8086,0.0,0.0,0.0,0.0,0.0,0.0,0.0,0.0,0.0,0.0,0.0,0.0,0.0,0.0,0.0,0.0,0.0,2.5703,2.5703,2.5703,2.5703,2.5703,2.5703,2.5655,2.5605,2.5601,2.5524,2.5498,2.5489,2.5352,2.5322,2.5303,2.5303,2.5303,2.5341,2.6159,2.6005,2.538,2.6159,2.6467,2.6582,2.7467,2.8275,2.9121,0.0,0.0,0.0,0.0,0.0,0.0,0.0,0.0,0.0,0.0,0.0,0.0,0.0,0.0,0.0,0.0,0.0,0.0,0.0,1.8897,1.8422,1.826,1.6923,1.7339,1.9751,1.9684,1.9996,2.0803,2.1099,2.2244,2.419,2.4116,2.4033,2.3992,2.4389,2.3803,2.2489,2.2817,2.2261,2.1161,2.0104,1.9595,1.9267,1.783,1.6827,0.0,0.0,0.0,0.0,0.0,0.0,0.0,1.5847,1.6884,1.7943,1.7298,1.7706,1.8476,1.8668,1.9479,2.0663,2.226,2.4539,2.6679,2.7773,2.8476,2.8867,2.8867,2.8867,2.8594,2.7734,0.0,0.0,0.0,0.0,0.0,0.0,0.0,0.0,0.0,0.0,0.0,0.0,0.0,0.0,0.0,0.0,0.0,2.5703,2.5703,2.5703,2.5703,2.5703,2.5703,2.5703,2.5703,2.5659,0.0,2.5593,2.5535,2.5489,2.5434,2.5365,2.5303,2.5303,2.5303,2.5303,2.5495,2.5457,2.5303,2.5495,2.5572,2.5687,2.6544,2.7428,2.8275,0.0,0.0,0.0,0.0,0.0,0.0,0.0,0.0,0.0,0.0,0.0,0.0,0.0,0.0,0.0,0.0,0.0,0.0,0.0,0.0,1.9192,1.8812,1.7899,1.7984,1.9258,1.9488,2.0052,2.0967,2.1504,2.2611,2.419,2.432,2.4442,2.4493,2.4804,2.4625,2.4031,2.3676,2.279,2.1517,2.08,2.0293,1.9817,1.8412,1.7577,1.7074,1.6637,0.0,0.0,0.0,0.0,0.0,0.0,0.0,1.7966,1.7977,1.8278,1.8726,1.9229,2.0111,2.1418,2.3667,2.5618,2.7109,2.7578,2.7695,2.7695,2.7695,2.8008,2.8164,0.0,0.0,0.0,0.0,0.0,0.0,0.0,0.0,0.0,0.0,0.0,0.0,0.0,0.0,0.0,0.0,0.0,2.5703,2.5703,2.5703,2.5703,2.5703,2.5703,2.5703,2.5703,2.5703,2.5663,2.5658,2.5658,2.5607,2.5527,2.5434,2.5376,2.5348,2.5293,2.5303,2.5303,2.5303,2.5303,2.5303,2.5303,2.5303,2.5418,2.6274,2.7159,2.7967,0.0,0.0,0.0,0.0,0.0,0.0,0.0,0.0,0.0,0.0,0.0,0.0,0.0,0.0,0.0,0.0,0.0,0.0,0.0,0.0,0.0,1.904,1.8764,1.8716,1.8898,1.95,2.0182,2.0951,2.1618,2.2648,2.3931,2.4265,2.4425,2.451,2.4783,2.4902,2.4943,2.4143,2.3091,2.1855,2.1415,2.0793,2.0066,1.8999,1.8448,1.8155,1.7344,1.6992,1.697,1.7397,0.0,0.0,0.0,0.0,1.7907,1.8688,1.8828,1.8952,1.9821,2.0897,2.2323,2.4838,2.6133,0.0,2.6797,2.6797,2.6797,2.6797,2.7344,2.7851,0.0,0.0,0.0,0.0,0.0,0.0,0.0,0.0,0.0,0.0,0.0,0.0,0.0,0.0,0.0,0.0,0.0,2.5703,2.5703,2.5703,2.5703,2.5703,2.5703,2.5703,2.5703,2.5703,2.5703,2.5703,2.5703,2.5662,2.5607,2.5484,2.5441,2.5398,2.5321,2.5303,2.5303,2.5303,2.5303,2.5303,2.5303,2.5303,2.538,2.612,2.7005,2.789,0.0,0.0,0.0,0.0,0.0,0.0,0.0,0.0,0.0,0.0,1.9619,1.9465,0.0,0.0,0.0,0.0,0.0,0.0,0.0,0.0,0.0,1.984,1.9952,1.9907,1.9673,2.0414,2.1054,2.1478,2.2227,2.2698,2.2917,2.3879,2.4391,2.4591,2.47,2.4836,2.5015,2.4181,2.3534,2.3046,2.1809,2.1134,2.0861,2.0055,1.9092,1.8106,1.8107,1.8108,1.8099,1.8165,1.817,0.0,0.0,0.0,1.9568,1.9637,1.973,1.9838,1.9909,2.129,2.2994,2.4274,2.5231,2.5859,0.0,0.0,2.5859,0.0,2.5977,0.0,0.0,0.0,0.0,0.0,0.0,0.0,0.0,0.0,0.0,0.0,0.0,0.0,0.0,0.0,0.0,0.0,2.5703,2.5703,2.5703,2.5703,2.5703,2.5703,2.5703,2.5703,2.5703,2.5703,2.5703,2.5703,2.5703,2.5703,2.5663,2.5605,2.5498,2.5406,2.5321,2.5303,2.5303,2.5303,2.5303,2.5303,2.5303,2.5303,2.5303,2.5418,2.6505,2.7775,0.0,0.0,0.0,0.0,0.0,0.0,0.0,0.0,0.0,0.0,0.0,2.0542,0.0,0.0,0.0,0.0,0.0,0.0,0.0,0.0,0.0,2.0182,2.0169,2.0279,2.0512,2.0701,2.1324,2.2446,2.2097,2.2241,2.2867,2.2777,2.2865,2.3145,2.3352,2.3725,2.4144,2.3515,2.3095,2.2752,2.1722,2.095,2.0451,2.0082,1.9579,1.9073,1.9316,1.9344,1.9267,1.9189,1.926,1.9292,1.9281,0.0,0.0,0.0,1.9936,2.0055,2.0585,2.1421,2.2466,2.3961,2.4615,2.5057,2.5538,2.5657,2.5659,2.5703,0.0,0.0,0.0,0.0,0.0,0.0,0.0,0.0,0.0,0.0,0.0,0.0,0.0,0.0,0.0,0.0,0.0,0.0,2.5703,2.5703,2.5703,2.5703,2.5703,2.5703,2.5703,2.5703,2.5703,2.5703,2.5703,2.5703,2.5703,2.5703,2.5703,2.5613,2.5531,2.544,2.5402,2.536,2.5313,2.5348,2.5339,2.5303,2.5303,2.5303,2.5303,2.5303,2.6082,2.7044,0.0,0.0,0.0,0.0,0.0,0.0,0.0,0.0,0.0,0.0,0.0,0.0,0.0,0.0,0.0,0.0,0.0,0.0,0.0,0.0,0.0,2.0304,2.0169,2.0327,2.0762,2.0681,2.1237,2.2446,2.1784,2.1745,2.2318,2.1607,2.1312,2.1362,2.2031,2.2639,2.3243,2.2658,2.2314,2.2071,2.1494,2.0927,2.0355,2.0489,2.0422,2.0297,2.0222,2.0394,2.0591,0.0,1.9904,1.9888,1.9881,1.9498,0.0,0.0,0.0,2.0072,2.0842,2.1243,2.1782,2.3226,2.3923,2.4417,0.0,0.0,2.5609,0.0,0.0,0.0,0.0,0.0,0.0,0.0,0.0,0.0,0.0,0.0,0.0,0.0,0.0,0.0,0.0,0.0,0.0,0.0,2.5703,2.5703,2.5703,2.5703,2.5703,2.5703,2.5703,2.5703,2.5703,2.5703,2.5703,2.5703,2.5703,2.5703,2.5703,2.5658,2.559,2.5489,2.5473,2.5413,2.5313,2.5335,2.5357,2.5303,2.5303,2.5303,2.5303,2.5303,2.5851,2.6467,0.0,0.0,0.0,0.0,0.0,0.0,0.0,0.0,0.0,0.0,0.0,0.0,2.2735,2.2585,2.2498,2.2498,2.1799,0.0,0.0,0.0,0.0,2.0312,2.0169,0.0,1.9858,2.042,2.0731,2.0716,2.1478,2.136,2.0432,2.0586,2.0242,1.9612,2.1287,2.2243,2.2582,2.1733,2.1395,2.1426,2.127,2.1252,2.1388,2.2042,2.2015,2.1519,2.0274,2.0963,0.0,0.0,0.0,0.0,1.9825,1.9899,2.0021,0.0,0.0,0.0,2.0048,2.0671,2.1376,2.1582,2.2875,2.4156,0.0,0.0,0.0,0.0,0.0,0.0,0.0,0.0,0.0,0.0,0.0,0.0,0.0,0.0,0.0,0.0,0.0,0.0,0.0,0.0,0.0,0.0,2.5703,2.5703,2.5703,2.5703,2.5703,2.5703,2.5703,2.5703,2.5703,2.5703,2.5703,2.5703,2.5703,2.5703,2.5703,2.5703,2.5611,2.5489,2.5447,2.5382,2.5303,2.5313,2.5313,2.5303,2.5303,2.5303,2.5303,2.5303,2.5851,2.6467,0.0,0.0,0.0,0.0,0.0,0.0,0.0,0.0,0.0,0.0,0.0,0.0,0.0,2.2882,2.2326,2.1803,2.1488,0.0,0.0,0.0,0.0,2.0929,2.0335,2.0164,2.0565,2.101,2.1479,2.2026,2.1982,2.1939,2.1834,2.0785,2.028,2.0255,2.0381,2.0858,2.1469,2.071,2.0728,2.1206,2.1238,2.1301,2.1484,2.2276,2.2515,2.2354,0.0,0.0,0.0,0.0,0.0,0.0,2.0614,2.0418,2.0012,2.0,1.9982,2.0022,2.005,2.027,0.0,2.127,2.2346,2.3418,2.4049,2.4914,2.5609,0.0,0.0,0.0,0.0,0.0,0.0,0.0,0.0,0.0,0.0,0.0,0.0,0.0,0.0,0.0,0.0,0.0,0.0,0.0,0.0,2.5703,2.5703,2.5703,2.5703,2.5703,2.5703,2.5703,2.5703,2.5703,2.5703,2.5703,2.5703,2.5703,2.5703,2.5703,2.5613,2.5489,2.5463,2.5406,2.5313,2.5357,2.5348,2.5303,2.5303,2.5303,2.5303,2.5303,2.5495,2.5726,0.0,0.0,0.0,0.0,0.0,0.0,0.0,0.0,2.4356,2.4251,0.0,0.0,0.0,0.0,2.2436,2.1335,2.1514,2.1677,2.1684,2.1151,2.0847,2.0847,2.0251,2.0247,2.0991,2.1147,2.1625,2.2511,2.2052,2.1888,2.189,2.0785,2.0245,2.0147,1.9715,1.9876,2.0443,2.0037,2.0172,2.0739,2.1411,2.1727,2.1855,2.2724,2.3231,0.0,0.0,0.0,0.0,0.0,0.0,0.0,2.129,2.0736,2.0022,2.0022,2.006,2.0096,2.0096,0.0,0.0,0.0,2.1579,2.25,2.3481,0.0,0.0,0.0,0.0,0.0,0.0,0.0,0.0,0.0,0.0,0.0,0.0,0.0,0.0,0.0,0.0,0.0,0.0,0.0,0.0,0.0,0.0,0.0,2.5703,2.5703,2.5703,2.5703,2.5703,2.5703,2.5703,2.5703,2.5703,2.5703,2.5703,2.5703,2.5703,2.5703,2.5655,2.552,2.5498,2.5402,2.5313,2.5365,2.5348,2.5303,2.5303,2.5303,2.5303,2.5303,2.5303,2.5303,0.0,0.0,0.0,0.0,0.0,0.0,0.0,0.0,2.5065,2.5103,0.0,0.0,0.0,0.0,0.0,2.128,2.1872,2.172,2.0162,2.0058,2.0058,2.0058,0.0,0.0,2.1004,2.079,2.1061,2.1904,2.167,2.1163,2.0321,2.0496,2.0047,1.9117,1.9246,1.9383,1.9602,1.9713,1.9788,1.995,2.1682,2.2436,2.2597,2.3423,0.0,0.0,2.5214,2.5264,0.0,2.3934,0.0,0.0,2.1731,2.0738,2.0096,2.0096,2.0096,2.0096,0.0,0.0,0.0,0.0,0.0,0.0,2.2604,0.0,0.0,0.0,0.0,0.0,0.0,0.0,0.0,0.0,0.0,0.0,0.0,0.0,0.0,0.0,0.0,0.0,0.0,0.0,0.0,0.0,2.5703,2.5703,2.5664,2.5664,2.5664,2.5664,2.5703,2.5703,2.5703,2.5703,2.5703,2.5703,2.5703,2.5703,2.5703,2.5703,2.5661,2.5601,2.5516,2.5441,2.5313,2.5303,2.5303,2.5303,2.5303,2.5303,2.5303,2.5303,2.5303,2.5303,0.0,0.0,0.0,0.0,0.0,2.5031,2.498,2.4435,2.4219,0.0,0.0,0.0,2.346,2.2417,2.1676,2.1826,2.1567,2.1456,2.1632,2.1067,2.1004,2.1632,2.1054,2.1104,2.1905,2.1674,2.1547,2.1622,2.1366,2.1099,2.0871,2.0341,1.9989,1.9813,1.9374,1.9186,1.9251,1.9383,1.9555,1.9863,2.1254,2.2118,2.2756,0.0,0.0,0.0,0.0,2.4476,2.3554,0.0,2.3141,2.1004,0.0,2.0269,2.0096,2.0096,2.0169,2.0241,2.0241,0.0,0.0,0.0,0.0,0.0,0.0,0.0,0.0,0.0,0.0,0.0,0.0,0.0,0.0,0.0,0.0,0.0,0.0,0.0,0.0,0.0,0.0,0.0,0.0,0.0,0.0,0.0,2.5703,2.543,2.4805,2.4766,2.4766,2.4766,2.5352,2.5703,2.5703,2.5703,2.5703,2.5703,2.5703,2.5703,2.5703,2.5703,2.5661,2.5601,2.5516,2.544,2.536,2.5312,2.5303,2.5303,2.5303,2.5303,2.5303,2.5303,2.5303,2.5303,0.0,0.0,0.0,2.3967,2.409,2.412,2.3761,2.3257,2.3078,0.0,0.0,0.0,2.2195,2.1392,2.09,2.1026,2.1012,2.1202,2.17,2.1277,2.1352,2.2173,2.14,2.1349,2.2181,2.168,2.143,2.1534,2.1309,2.0988,2.0601,2.0119,1.9767,1.9487,1.9164,1.9053,1.9104,1.9246,1.9398,1.9667,2.1029,0.0,0.0,2.4272,2.4896,0.0,0.0,0.0,2.3917,2.4937,2.3477,0.0,0.0,0.0,0.0,2.0105,2.0178,0.0,0.0,0.0,0.0,0.0,0.0,0.0,2.1845,2.2843,0.0,0.0,0.0,0.0,0.0,0.0,0.0,0.0,0.0,0.0,0.0,0.0,0.0,0.0,0.0,0.0,0.0,2.5352,2.5156,2.5156,2.4805,2.4531,2.4414,2.4062,2.4219,2.4922,2.5078,2.5312,2.5703,2.5703,2.5703,2.5703,2.5703,2.5703,2.5703,2.5703,2.5663,2.5655,2.5527,2.5468,2.5415,2.5348,2.5303,2.5303,2.5303,2.5303,2.5303,2.5303,2.5303,2.5303,0.0,0.0,2.411,2.2503,2.2762,2.2938,2.212,2.1934,2.1897,0.0,2.1877,2.1537,2.0799,2.0788,2.0537,1.9787,2.0484,2.0913,2.077,2.0838,2.1264,2.2062,2.139,2.1451,2.2285,2.1337,2.1078,2.1624,2.1205,2.0598,1.9724,1.9724,1.9353,1.8715,1.8843,1.8966,1.9104,1.9429,1.947,1.9427,2.0778,2.2182,0.0,0.0,2.4366,2.4905,2.4296,2.4481,2.5056,2.5004,2.4072,0.0,0.0,0.0,0.0,0.0,2.0263,0.0,0.0,0.0,0.0,0.0,0.0,0.0,2.213,2.2586,2.3114,0.0,0.0,0.0,0.0,0.0,0.0,0.0,0.0,0.0,0.0,0.0,0.0,0.0,0.0,0.0,2.5703,2.5,2.4492,2.4414,2.3594,2.3398,2.4102,2.3633,2.3984,2.5391,2.4844,2.4922,2.5703,2.5703,2.5703,2.5703,2.5703,2.5703,2.5703,2.5703,2.5703,2.5703,2.5577,2.5493,2.5479,2.5374,2.5303,2.5303,2.5303,2.5303,2.5303,2.5303,2.5303,2.5303,0.0,2.4557,2.4292,2.3325,2.3172,2.2938,2.212,2.1451,2.1265,2.1934,2.193,2.1828,2.1643,2.1643,2.138,2.0619,2.0765,2.0658,1.9985,2.0013,2.065,2.2025,2.195,2.2548,2.4078,2.2545,2.1697,2.1624,2.0154,1.9219,1.8772,1.8772,1.876,1.8715,1.877,1.8932,1.9212,2.0673,2.0535,1.9323,1.9612,2.112,2.3233,2.3671,2.4316,2.4991,2.5011,2.4638,2.4049,2.3419,2.3506,2.3581,0.0,0.0,0.0,2.068,0.0,0.0,0.0,0.0,0.0,0.0,0.0,0.0,2.0696,2.1257,2.182,0.0,0.0,0.0,0.0,0.0,0.0,0.0,0.0,0.0,0.0,0.0,0.0,0.0,0.0,0.0,2.5703,2.5547,2.5156,2.4453,2.3594,2.2891,2.2422,2.3516,2.4023,2.3711,2.4844,2.5547,2.5703,2.5703,2.5703,2.5703,2.5703,2.5703,2.5703,2.5703,2.5703,2.5703,2.5577,2.5493,2.5479,2.5374,2.5303,2.5303,2.5303,2.5303,2.5303,2.5303,2.5303,2.5303,2.4554,2.4493,2.407,2.2864,2.2576,2.2214,2.1385,2.0905,2.1089,2.2345,2.2407,2.219,2.175,2.1784,2.1705,2.1374,2.1399,2.1496,2.1517,2.1143,2.1428,2.2613,2.186,2.1909,2.303,2.1459,2.0719,2.0844,1.9559,1.8825,1.8584,1.8506,1.8698,1.9069,1.9558,1.9813,1.9991,2.1258,2.1784,2.1748,2.1877,0.0,2.2585,2.3891,2.4648,2.5041,2.5224,2.5014,2.4523,2.4149,2.3727,0.0,0.0,2.2487,2.1931,0.0,2.1196,2.1312,0.0,0.0,0.0,2.0312,0.0,0.0,0.0,2.1171,2.162,2.2146,2.2591,0.0,0.0,0.0,0.0,0.0,0.0,0.0,0.0,0.0,0.0,0.0,0.0,0.0,2.5039,2.4297,2.3437,2.2578,2.2109,2.2031,2.2461,2.2891,2.3555,2.4414,2.4844,2.5273,2.5703,2.5703,2.5703,2.5703,2.5703,2.5703,2.5703,2.5703,2.5703,2.5703,2.5598,2.552,2.5484,2.5391,2.5321,2.5303,2.5303,2.5303,2.5303,2.5303,2.5303,2.5303,2.4408,2.4191,2.3639,2.2311,2.1929,2.1547,2.0799,2.0706,2.1363,2.3015,2.3142,2.2938,2.2556,2.2465,2.2501,2.2825,2.2432,2.2588,2.3556,2.2613,2.2359,2.3145,2.1893,2.1414,2.1971,2.0509,1.9914,2.0333,1.9345,1.8807,1.8659,1.8702,1.8988,1.952,2.0325,2.0788,2.0898,2.1607,2.2685,2.3915,0.0,2.3614,2.2442,2.4049,2.4803,2.5005,2.5214,2.5303,2.5303,2.5293,2.4216,2.3074,2.3803,2.3055,0.0,0.0,0.0,0.0,0.0,0.0,0.0,0.0,0.0,2.0465,0.0,0.0,0.0,2.2242,0.0,0.0,0.0,0.0,0.0,0.0,0.0,0.0,0.0,0.0,0.0,0.0,0.0,0.0,2.4414,2.2851,2.1601,2.0898,2.0703,2.125,2.2773,2.2578,2.332,2.5391,2.4922,2.5,2.5703,2.5703,2.5703,2.5703,2.5703,2.5703,2.5703,2.5703,2.5703,2.5703,2.5613,2.5542,2.5484,2.5441,2.5374,2.5303,2.5303,2.5303,2.5303,2.5303,2.5303,2.5303,2.4321,2.3676,2.3052,2.274,2.219,2.1696,2.1443,2.1533,2.2208,2.3859,2.4024,2.4576,2.5959,2.5441,2.5294,2.6073,2.4211,2.334,2.4222,2.2912,2.2427,2.3165,2.3017,2.3158,2.369,2.21,2.1206,2.1068,1.9503,1.8659,1.8542,1.926,1.9653,1.9881,2.0513,2.1039,2.1461,2.2146,2.2553,0.0,2.386,2.4118,0.0,2.3603,2.4046,2.4874,2.5182,2.5303,2.5293,0.0,2.4558,2.3771,0.0,2.3717,2.3322,2.1847,0.0,0.0,0.0,0.0,0.0,0.0,2.0312,0.0,0.0,0.0,2.0465,2.0558,0.0,0.0,0.0,0.0,0.0,0.0,0.0,0.0,0.0,0.0,0.0,0.0,0.0,0.0,0.0,2.2848,2.1796,2.1758,2.1053,2.1014,2.1992,2.3359,2.4258,2.4531,2.5195,2.5586,2.5703,2.5703,2.5703,2.5703,2.5703,2.5703,2.5703,2.5703,2.5703,2.5703,2.5613,2.5542,2.5489,2.5447,2.5343,2.5303,2.5303,2.5303,2.5303,2.5303,2.5303,2.5303,2.4228,2.3952,2.3491,2.2846,2.2612,2.241,2.2206,2.3826,2.5001,2.4924,2.5993,2.6885,2.7316,2.7001,2.6948,2.7364,0.0,2.5151,0.0,0.0,2.2785,2.3135,2.2691,2.27,2.3247,2.2264,2.1771,2.1768,2.0722,1.9854,1.9205,1.9977,2.0328,2.0328,2.1341,2.2082,2.2674,2.3733,2.3909,0.0,0.0,0.0,0.0,2.4056,2.4362,2.4956,2.5203,2.5303,2.5303,0.0,2.4624,0.0,0.0,0.0,0.0,0.0,0.0,0.0,0.0,0.0,0.0,0.0,0.0,0.0,2.0427,0.0,2.0312,0.0,0.0,0.0,0.0,0.0,0.0,0.0,2.1037,0.0,0.0,0.0,0.0,0.0,0.0,0.0,0.0,0.0,0.0,0.0,2.082,2.1171,2.2539,2.3281,2.4141,2.5117,2.5508,2.5703,2.5703,2.5703,2.5703,2.5703,2.5703,2.5703,2.5703,2.5703,2.5703,2.5703,2.5662,2.5609,2.5577,2.5516,2.544,2.5374,2.5374,2.5339,2.5303,2.5303,2.5303,2.5303,2.4464,2.4095,2.3611,2.3247,2.3026,2.3013,2.3333,2.5222,2.6501,2.6154,2.7272,2.8225,2.8482,2.8482,0.0,0.0,2.837,2.75,0.0,0.0,2.4008,0.0,0.0,0.0,2.3045,2.2392,2.2153,2.2246,2.1503,2.0758,2.0012,2.0771,2.102,2.0917,2.2145,2.2932,2.3422,0.0,2.4604,2.4129,2.5014,2.5034,2.4522,2.4502,2.4678,2.4981,2.5111,2.5224,2.5303,2.5303,2.4645,0.0,2.5948,0.0,0.0,0.0,0.0,0.0,2.2179,0.0,0.0,0.0,0.0,0.0,0.0,0.0,0.0,0.0,0.0,0.0,0.0,0.0,0.0,0.0,0.0,2.103,0.0,0.0,0.0,0.0,0.0,0.0,0.0,0.0,0.0,0.0,0.0,2.1093,2.3008,2.3164,2.3867,2.5312,2.5586,2.5703,2.5703,2.5703,2.5703,2.5703,2.5703,2.5703,2.5703,2.5703,2.5703,2.5703,2.5703,2.5661,2.5601,2.5601,2.5507,2.5398,2.5406,2.5343,2.5303,2.5303,2.5303,2.5303,2.5201,2.3806,2.2876,2.4195,2.348,2.324,2.478,2.4787,2.5394,2.7638,2.7353,0.0,0.0,0.0,0.0,0.0,0.0,3.0405,3.0254,0.0,2.6502,0.0,0.0,2.4192,0.0,2.2998,2.2437,2.2389,2.1348,2.0807,2.0771,2.158,2.1803,2.1627,2.2682,2.3188,2.3212,2.358,2.3732,2.3753,2.4092,2.4704,2.5294,0.0,2.4623,2.4832,2.4904,0.0,0.0,2.5303,2.4686,0.0,0.0,0.0,0.0,0.0,0.0,0.0,0.0,0.0,0.0,2.0696,0.0,0.0,0.0,0.0,2.028,0.0,0.0,0.0,0.0,0.0,0.0,0.0,0.0,0.0,0.0,0.0,0.0,0.0,0.0,0.0,0.0,0.0,0.0,0.0,1.9801,0.0,2.3047,2.3203,2.3594,2.4414,2.5273,2.5703,2.5703,2.5703,2.5703,2.5703,2.5703,2.5703,2.5703,2.5703,2.5703,2.5703,2.5703,2.5661,2.5601,2.5601,2.5507,2.5398,2.5406,2.5343,2.5303,2.5303,2.5303,2.5303,2.576,2.5147,2.4766,2.5398,2.504,2.4992,2.5938,2.6329,0.0,0.0,3.0772,0.0,0.0,3.5066,3.5162,0.0,0.0,3.2657,3.0662,2.9287,0.0,0.0,0.0,2.4448,0.0,2.4114,2.3519,2.3171,2.2833,2.2265,2.1615,2.2364,2.2435,2.1896,2.2962,2.3777,0.0,0.0,0.0,0.0,0.0,2.4997,2.4596,0.0,0.0,2.5544,2.512,2.5099,0.0,2.5967,2.5877,2.586,2.7608,2.7522,2.6975,2.79,2.7374,0.0,0.0,0.0,2.4197,2.3081,0.0,0.0,0.0,0.0,0.0,0.0,0.0,0.0,0.0,0.0,0.0,0.0,0.0,0.0,0.0,0.0,0.0,0.0,0.0,0.0,0.0,0.0,0.0,0.0,2.0859,0.0,2.3047,2.3164,2.3555,2.4375,2.5234,2.5703,2.5703,2.5703,2.5703,2.5703,2.5703,2.5703,2.5703,2.5703,2.5703,2.5703,2.5703,2.5703,2.5661,2.5661,2.5607,2.5516,2.5473,2.5441,2.5374,2.5341,2.5303,2.538,2.6477,2.6269,2.609,2.6116,2.6171,2.6395,0.0,0.0,0.0,0.0,3.2956,0.0,3.6988,0.0,3.7253,0.0,3.6656,3.498,3.1568,3.0944,0.0,2.6612,2.6135,0.0,0.0,0.0,2.4644,2.3899,2.405,2.3575,2.2564,2.294,2.2856,2.2423,2.3218,2.4082,2.4933,2.5819,2.6072,0.0,0.0,2.5841,0.0,0.0,2.5622,2.5959,0.0,2.5994,2.6351,2.7082,2.7166,2.7171,2.8648,2.8668,2.8326,2.9291,2.8741,2.7708,2.7187,2.6428,0.0,2.4399,2.3437,0.0,2.1791,0.0,0.0,0.0,0.0,0.0,0.0,0.0,0.0,0.0,0.0,0.0,0.0,2.0308,0.0,0.0,0.0,0.0,0.0,0.0,0.0,2.1523,2.1718,2.2343,0.0,0.0,2.3867,2.4375,2.5234,2.5703,2.5703,2.5703,2.5703,2.5703,2.5703,2.5703,2.5703,2.5703,2.5703,2.5703,2.5703,2.5703,2.5703,2.5703,2.566,2.5598,2.5535,2.5468,2.5383,2.5312,2.5495,2.5851,2.7429,2.7225,2.6823,0.0,2.6826,0.0,0.0,0.0,3.0878,0.0,3.389,3.5279,3.6856,3.7267,3.7647,3.8416,3.8905,3.739,3.3166,3.3476,0.0,0.0,2.8925,2.875,2.7684,0.0,0.0,0.0,2.4918,2.4587,2.3575,2.3283,2.3102,2.3102,2.3504,2.4121,2.4867,2.5317,2.5789,2.6222,2.6578,2.7126,2.7677,2.6979,2.6451,2.6223,2.7009,2.7559,2.7956,2.8533,2.839,2.8082,2.889,2.9159,2.9313,3.016,3.0379,3.0044,2.8467,2.7351,2.6274,2.4707,0.0,0.0,0.0,0.0,2.1914,0.0,0.0,0.0,0.0,0.0,0.0,0.0,0.0,0.0,0.0,0.0,0.0,0.0,0.0,0.0,0.0,0.0,2.131,2.2925,2.2299,2.2614,0.0,0.0,2.4375,2.4414,2.5234,2.5703,2.5703,2.5703,2.5703,2.5703,2.5703,2.5703,2.5703,2.5703,2.5703,2.5703,2.5703,2.5703,2.5703,2.5703,2.5661,2.5603,2.5603,2.5507,2.5391,2.5312,2.5851,2.6621,2.882,2.8684,2.8387,0.0,2.7295,2.7571,0.0,0.0,0.0,0.0,3.6255,3.7749,4.027,4.0967,4.1101,4.0673,4.056,0.0,0.0,0.0,0.0,3.5826,3.377,3.1311,2.8713,2.7655,0.0,2.6618,0.0,2.5108,2.467,2.3791,2.3295,2.3137,2.4213,2.5104,2.5829,2.679,2.7229,2.7405,2.8109,2.7787,2.7016,0.0,2.8038,2.7548,2.7307,2.7409,2.7765,2.8703,2.889,2.8929,2.9813,3.0083,3.0121,3.034,3.0379,3.0302,2.989,2.8698,2.7467,2.7044,2.5322,2.3741,0.0,0.0,0.0,0.0,0.0,0.0,0.0,0.0,0.0,0.0,0.0,0.0,0.0,0.0,0.0,2.0472,0.0,0.0,0.0,2.1274,2.2336,2.2143,2.2534,2.3239,2.4336,0.0,0.0,2.4375,2.5234,2.5703,2.5703,2.5703,2.5703,2.5703,2.5703,2.5703,2.5703,2.5703,2.5703,2.5703,2.5703,2.5703,2.5703,2.5703,2.5703,2.5662,2.5609,2.5531,2.5446,2.5348,2.5851,2.6697,2.9482,2.9575,0.0,2.9587,0.0,0.0,3.092,3.1326,0.0,3.5736,3.7266,0.0,4.0262,4.1386,4.1721,4.0923,4.0492,0.0,3.7411,0.0,0.0,3.5532,3.4394,3.2963,3.1164,2.9145,0.0,2.8117,0.0,2.619,2.4679,2.41,2.4086,2.4621,2.4954,2.5687,2.6765,2.7858,2.8521,2.8851,2.8962,2.8462,0.0,2.8645,2.8846,2.8651,2.8365,2.8427,2.8692,2.9409,2.966,2.9737,3.0237,3.0379,3.0379,3.0379,3.0379,3.0379,3.0379,2.9429,2.8429,2.8429,2.6813,2.5129,2.4846,2.4102,2.3602,0.0,0.0,0.0,0.0,0.0,0.0,0.0,0.0,0.0,0.0,0.0,0.0,0.0,2.0922,0.0,0.0,2.1778,2.2884,2.241,2.2805,2.3317,0.0,0.0,0.0,2.4375,2.5625,2.6094,2.5703,2.6094,2.6094,2.5703,2.5703,2.5703,2.5703,2.5703,2.5703,2.5703,2.5703,2.5703,2.5703,2.5703,2.5703,2.5703,2.5611,2.559,2.5554,2.5817,2.6467,2.7345,2.984,3.0374,0.0,0.0,0.0,0.0,0.0,3.3575,0.0,3.5757,0.0,3.8856,3.8856,4.02,4.0926,4.0448,0.0,3.8359,3.6347,3.7771,3.6597,3.1898,3.3036,3.3807,3.3807,3.065,2.8975,0.0,0.0,2.7567,2.4872,2.445,2.511,2.6664,2.5804,2.6249,0.0,2.8745,2.9512,2.9989,2.9292,2.8975,2.8975,2.8975,2.9178,2.9414,2.9644,2.9829,3.0028,3.033,3.0379,3.0379,3.0379,3.0379,3.0379,3.0379,3.0379,3.0379,3.0379,2.9775,2.9083,2.9083,2.7928,2.6593,2.5853,2.5072,2.4773,2.5535,2.4482,2.4083,0.0,0.0,0.0,0.0,0.0,0.0,0.0,0.0,0.0,0.0,0.0,0.0,0.0,0.0,2.2917,2.2942,2.2916,2.304,0.0,0.0,0.0,2.457,2.6055,2.6523,2.5898,2.6523,2.6523,2.5859,2.5742,2.5703,2.5703,2.5703,2.5703,2.5703,2.5703,2.5703,2.5703,2.5703,2.5703,2.5703,2.5654,2.5685,2.5874,2.6617,2.745,2.8288,3.0818,0.0,0.0,0.0,0.0,3.6214,3.6658,3.6977,3.7212,3.7483,3.8865,3.9846,3.9846,4.0363,4.0912,4.1476,4.042,0.0,0.0,0.0,0.0,3.355,3.366,3.3807,3.3807,3.065,2.8975,0.0,0.0,2.8795,2.8343,2.5815,2.5541,2.7156,2.7046,2.7669,2.8805,2.9635,0.0,2.9195,2.9049,2.8975,2.8975,2.8975,2.9178,2.9414,2.9644,2.9829,3.0028,3.033,3.0379,3.0379,3.0379,3.0379,3.0379,3.0379,3.0379,3.0379,3.0379,2.9775,2.9083,2.9083,2.839,2.7489,2.6754,2.644,2.6208,2.5777,2.5468,2.5155,2.4877,0.0,0.0,0.0,0.0,0.0,0.0,0.0,0.0,0.0,0.0,2.2094,0.0,0.0,0.0,2.2042,2.2045,0.0,0.0,0.0,0.0,0.0,2.5781,0.0,0.0,0.0,2.6211,2.6758,2.6055,2.5703,2.5703,2.5703,2.5703,2.5703,2.5703,2.5703,2.5703,2.5703,2.5703,2.5703,2.5703,2.6132,2.6834,2.7624,2.8501,2.9225,3.3245,0.0,0.0,0.0,0.0,0.0,0.0,4.0146,4.0302,3.91,3.9191,3.9255,3.8986,3.9675,4.0262,4.0524,3.9877,3.9531,3.9832,3.9129,3.7991,3.6413,3.4724,0.0,3.3807,3.065,2.8975,2.8975,0.0,0.0,2.9493,2.7867,2.7489,2.8205,2.8205,2.8998,0.0,0.0,0.0,2.9586,2.9159,2.8975,2.8975,2.8975,2.9228,2.957,2.968,2.9931,3.0241,3.0355,3.0379,3.0379,3.0379,3.0379,3.0379,3.0379,3.0379,3.0379,3.0379,3.0083,2.9775,2.9775,2.9121,2.8463,2.8165,2.7774,2.7268,2.6521,2.6367,2.5976,2.4645,2.3696,0.0,0.0,0.0,0.0,0.0,0.0,0.0,0.0,0.0,0.0,0.0,0.0,0.0,0.0,0.0,0.0,0.0,0.0,0.0,0.0,0.0,0.0,0.0,0.0,0.0,2.6328,2.5898,2.5703,2.5703,2.5703,2.5703,2.5703,2.5703,2.5703,2.5703,2.5703,2.5703,2.5742,2.6211,2.6641,2.7148,2.842,2.9152,2.9526,0.0,3.6068,0.0,0.0,4.051,0.0,4.1499,4.2671,4.2847,4.0493,3.9604,3.9019,3.8615,3.9306,3.9799,3.9676,3.9191,3.8997,3.9025,3.8615,3.8322,3.8175,3.5385,3.3807,3.3807,3.065,2.8975,0.0,0.0,0.0,0.0,3.0018,3.0064,0.0,0.0,0.0,0.0,0.0,2.9696,2.9879,2.9232,2.8975,2.8975,2.8975,2.9275,2.9715,2.9921,3.0274,3.0698,3.0891,3.0686,3.0379,3.0379,3.0379,3.0379,3.0379,3.0379,3.0379,3.0379,3.0379,3.0379,3.0379,2.989,2.935,2.9292,2.8668,2.7892,2.7146,2.6836,2.625,2.4684,2.3975,0.0,0.0,0.0,0.0,0.0,0.0,0.0,0.0,0.0,0.0,2.2096,0.0,0.0,0.0,0.0,0.0,2.3043,0.0,0.0,0.0,0.0,2.6211,2.5703,0.0,2.6484,2.5977,2.5781,2.5703,2.5703,2.5703,2.5703,2.5703,2.5703,2.5703,2.5703,2.5703,2.582,2.6055,2.6719,2.7226,2.7695,2.9013,2.963,2.9857,0.0,0.0,0.0,0.0,0.0,0.0,4.2838,4.3953,4.4013,4.1426,4.0817,4.0678,4.0619,4.0359,4.0262,4.0547,3.9443,3.9103,4.012,3.8322,3.7037,3.656,3.4761,3.3807,3.3807,3.065,2.8975,0.0,0.0,2.9067,0.0,0.0,0.0,0.0,0.0,0.0,0.0,3.1017,3.0393,2.9085,2.9012,2.8975,2.8975,2.8975,2.9275,2.9808,3.058,3.1165,3.1698,3.2429,3.166,3.0379,3.0379,3.0379,3.0379,3.0379,3.0379,3.0379,3.0379,3.0379,3.0379,3.0379,3.034,3.0111,2.9447,2.8662,2.7882,2.7146,2.6367,2.5547,2.4567,2.4998,2.5194,0.0,0.0,0.0,0.0,0.0,0.0,0.0,0.0,0.0,0.0,2.2881,0.0,0.0,2.2265,0.0,0.0,0.0,0.0,2.4375,0.0,2.4961,2.5703,2.5781,2.6172,2.6875,2.6094,2.5703,2.5703,2.5703,2.5703,2.5703,2.5703,2.5703,2.5703,2.5703,2.6172,2.6875,2.6953,2.7969,2.9375,2.9531,3.0078,3.0741,0.0,0.0,0.0,0.0,0.0,0.0,0.0,4.4574,4.4026,4.3057,4.1777,4.115,4.1768,4.0636,4.0192,4.1053,3.9265,3.8667,3.9942,3.8799,3.7404,3.5899,3.5165,3.4504,3.3807,3.1604,2.9989,0.0,0.0,0.0,0.0,0.0,0.0,0.0,0.0,3.2302,3.2449,3.1715,3.1017,3.043,3.043,3.0136,2.9732,2.9732,3.0039,3.0542,3.0882,3.1622,3.2468,3.2776,3.2122,3.1198,3.1198,3.0814,3.0379,3.0379,3.0379,3.0379,3.0379,3.0379,3.0379,3.0379,3.0379,3.0342,3.0114,2.9841,2.9255,2.8044,2.668,2.5742,2.5937,2.5389,2.5155,0.0,0.0,0.0,0.0,0.0,0.0,0.0,0.0,0.0,0.0,0.0,0.0,0.0,0.0,0.0,0.0,0.0,0.0,2.4375,0.0,2.5352,2.5703,2.5703,2.5859,2.6211,2.5859,2.5703,2.5703,2.5703,2.5703,2.5703,2.5703,2.5703,2.5703,2.5703,2.6211,2.6992,2.6992,2.8086,2.9609,2.9609,3.0156,3.0898,4.3204,0.0,4.2991,0.0,4.5112,4.5073,4.5969,4.4871,4.3876,4.3918,4.2353,4.1587,4.2382,4.1085,4.0476,4.1357,3.9517,3.8749,3.9597,3.8847,3.7661,3.6156,3.5862,0.0,3.3844,3.2669,3.1531,3.043,3.043,0.0,0.0,0.0,0.0,0.0,3.2485,3.3073,3.3697,3.2339,3.1715,3.1604,3.1458,3.1054,3.054,3.054,3.0894,3.1373,3.16,3.2384,3.3276,3.3276,3.2891,3.2352,3.1852,3.1275,3.0737,3.0456,3.0379,3.0379,3.0379,3.0379,3.0379,3.0379,3.0379,3.0419,3.0581,3.0386,2.984,2.8552,2.7305,2.6641,2.7266,2.6367,2.5858,2.6836,0.0,0.0,0.0,0.0,0.0,0.0,2.4765,2.4374,2.4414,2.3775,0.0,0.0,0.0,0.0,0.0,0.0,0.0,0.0,0.0,0.0,2.5312,2.5586,2.5703,2.5703,2.5703,2.582,2.6094,2.6367,2.6328,2.6094,2.6094,2.5937,2.5703,2.5703,2.6367,2.7383,2.7383,2.8437,2.9961,2.9961,3.0351,3.0898,4.5067,4.4815,4.5111,4.7791,4.6948,4.5883,4.592,4.4742,4.379,4.3538,4.2501,4.2021,4.2616,4.1897,4.143,4.1505,4.0513,3.9666,3.9155,3.8104,3.7507,0.0,0.0,3.5495,3.3844,3.377,3.377,3.3733,0.0,0.0,3.3733,0.0,3.3807,3.377,3.377,3.3807,3.3733,3.2926,3.2449,3.2118,3.1604,3.1384,3.1384,3.1384,3.1712,3.2317,3.3091,3.3734,3.416,3.416,3.416,3.3891,3.2237,3.1698,3.1506,3.0648,3.0379,3.0379,3.0379,3.0379,3.0379,3.0379,3.0379,3.0419,3.0581,2.9919,2.9138,2.8435,2.8281,2.8281,2.8281,2.8281,2.7969,2.7148,0.0,0.0,0.0,0.0,0.0,0.0,2.4367,2.4323,2.4375,2.4326,0.0,0.0,0.0,0.0,0.0,0.0,0.0,2.4414,2.4414,0.0,2.4414,2.5273,2.5703,2.5703,2.5703,2.6133,2.6992,2.7891,2.7812,2.6992,2.6992,2.6484,2.5703,2.5703,2.6719,2.8281,2.8281,2.9336,3.0898,3.0898,3.0898,3.0898,4.7053,4.6762,4.6286,4.6617,4.625,4.5773,4.5406,4.4382,4.387,4.4525,4.3319,4.2655,4.3178,4.2555,4.226,0.0,4.1229,4.0386,0.0,3.9323,3.8322,3.8322,3.7,3.5752,3.4651,3.41,3.3807,3.3807,0.0,0.0,0.0,3.3807,3.3807,3.3807,3.3807,3.3807,3.377,3.355,3.3366,3.3293,3.3109,3.2706,3.2228,3.2228,3.253,3.3034,3.3318,3.4154,3.5007,3.4391,3.4199,3.4007,3.2852,3.216,3.1545,3.066,3.0379,3.0379,3.0379,3.0419,3.0472,3.0414,3.043,3.05,3.0601,3.0026,2.9601,3.0,2.9141,2.8476,2.9062,2.8711,2.8203,2.793,2.8359,0.0,0.0,0.0,0.0,0.0,2.5272,2.5272,0.0,2.5226,0.0,0.0,0.0,0.0,0.0,0.0,0.0,0.0,2.5859,0.0,2.5273,2.5547,2.6016,2.6602,2.6602,2.7031,2.7891,2.8164,2.8164,2.7891,2.7891,2.7734,2.7461,2.7461,2.8164,2.9141,2.8516,2.9375,3.082,3.0234,3.0391,3.0898,4.8122,4.7645,4.7058,4.6838,4.6067,4.5443,4.5406,4.4305,4.3718,4.4415,4.3616,4.3142,4.3463,4.3069,0.0,4.3463,4.1992,4.1295,4.1846,4.0157,3.9019,3.8726,3.7734,3.667,3.5532,3.5018,0.0,3.3807,3.3807,3.3807,3.3807,3.3807,3.3807,3.3807,3.3807,3.3807,3.3807,3.3807,3.3807,3.3807,3.3807,3.3513,3.3073,3.3073,3.3385,3.3903,3.3903,3.4594,3.5391,3.4507,3.443,3.4468,3.3276,3.2776,3.2391,3.1237,3.066,3.0379,3.0379,3.0462,3.0491,3.0425,3.0462,3.0513,3.0568,3.0323,3.0234,3.0781,3.0039,2.9336,2.957,2.9414,2.8945,2.7969,2.8359,2.8242,2.6719,0.0,0.0,0.0,0.0,0.0,0.0,2.5661,2.5538,0.0,0.0,0.0,0.0,0.0,0.0,2.6172,2.6719,0.0,2.668,2.668,2.6953,2.75,2.7812,2.8242,2.8789,2.9141,2.9101,2.8789,2.8789,2.8594,2.8281,2.8281,2.8828,2.9531,2.8984,2.9648,3.082,3.0273,3.043,3.0898,4.8306,4.7719,4.7425,0.0,4.6324,0.0,4.5626,4.4452,4.3497,4.3497,4.3497,4.3497,4.3497,4.3497,4.3497,4.3497,0.0,0.0,0.0,4.0634,3.9533,3.8726,3.8652,3.7918,3.6413,3.6266,3.5422,3.3807,3.3807,3.3807,3.3807,3.3807,3.3807,3.3807,3.3807,3.3807,3.3807,3.3807,3.3807,3.3807,3.3807,3.3807,3.3807,3.3807,3.4141,3.4693,3.4713,3.5016,3.5325,3.4507,3.4737,3.5122,3.3506,3.3506,3.3776,3.216,3.1121,3.0456,3.0417,3.0462,3.05,3.0398,3.0443,3.0529,3.0607,3.0755,3.0898,3.0898,3.0898,3.0664,2.9844,3.0312,3.0,2.75,2.8398,2.8555,2.6055,0.0,0.0,0.0,0.0,0.0,0.0,2.5781,2.6094,0.0,0.0,0.0,0.0,0.0,2.5273,2.7031,2.7148,2.7539,2.8281,2.8281,2.832,2.8398,2.9258,2.9687,2.9726,3.0547,3.0469,2.9687,2.9687,2.9219,2.8476,2.8476,2.8945,2.9687,2.9687,3.0195,3.0898,3.0898,3.0898,3.0898,0.0,0.0,4.7902,4.7462,4.6397,4.5259,4.4232,4.3718,4.3497,4.3497,4.3497,4.3497,4.3497,4.3497,4.3497,4.3497,4.2763,4.2176,4.1919,4.0634,3.9533,3.8726,3.8102,3.7588,3.7221,3.5973,3.4835,3.3807,3.3807,3.3807,3.3807,3.3807,3.3807,3.3807,3.3807,3.3807,3.3807,3.3807,3.3807,3.3807,3.3807,3.3807,3.3807,3.3807,3.403,3.4338,3.4593,3.4926,3.5108,3.4428,3.4353,3.443,3.4007,3.3583,3.3006,3.2006,3.1545,3.1237,3.0571,3.0491,3.0574,3.0509,3.0581,3.0633,3.0592,3.0755,3.0898,3.0898,3.0898,3.0859,3.0625,3.0234,2.9492,2.8203,2.7773,2.7187,2.5898,2.6445,0.0,0.0,2.7266,2.7422,2.6758,2.668,2.6484,0.0,0.0,0.0,0.0,2.5742,2.6172,2.793,2.8633,2.875,2.8281,2.8281,2.8633,2.9297,3.0195,3.0586,3.0586,3.082,3.0781,3.0586,3.0586,3.0469,3.0273,3.0273,3.0391,3.0586,3.0586,3.0703,3.0898,3.0898,3.0898,3.0898,4.8306,4.8306,4.8159,4.7719,4.6691,4.559,4.4709,4.3975,4.3497,4.3497,4.3497,4.3497,4.3497,4.3497,4.3497,4.3497,4.3094,4.258,4.1919,4.1001,3.9937,3.8762,3.8285,3.7698,3.6964,3.6046,3.5018,3.3807,3.3807,3.3807,3.3807,3.3807,3.3807,3.3807,3.3807,3.3807,3.3807,3.3807,3.3807,3.3807,3.3807,3.3807,3.3807,3.3807,3.3979,3.4246,3.4572,3.487,3.5081,3.4861,3.4776,3.4776,3.4776,3.4468,3.393,3.3083,3.2314,3.1698,3.1583,3.1052,3.0567,3.0552,3.0614,3.071,3.0642,3.0765,3.0898,3.0898,3.0898,3.0781,3.0391,3.0234,2.9648,2.7969,2.7656,2.7305,2.6406,2.6719,0.0,2.8086,2.8594,2.8711,2.8242,2.8203,2.7812,2.6953,2.6445,0.0,2.6875,2.7266,2.7734,2.8281,2.9141,2.957,2.9492,2.9492,2.9726,3.0195,3.0664,3.0898,3.0898,3.1328,3.1289,3.0937,3.1328,3.1289,3.0898,3.0898,3.0898,3.0898,3.0898,3.0898,3.0898,3.0898,3.0898,3.0898,4.8269,4.8306,4.8306,4.8306,4.6985,4.5957,4.6067,4.4599,4.3534,4.3644,4.3571,4.3497,4.3497,4.3497,4.3497,4.3497,4.3497,4.3057,4.2029,4.1442,4.0451,3.8946,3.8762,3.8065,3.6707,3.6413,3.5459,3.3807,3.3807,3.3807,3.3807,3.3807,3.3807,3.3807,3.3807,3.3807,3.3807,3.3807,3.3807,3.3807,3.3807,3.3807,3.3807,3.3807,3.3954,3.4176,3.4551,3.4851,3.5107,3.5383,3.5493,3.5493,3.5493,3.5493,3.5353,3.4622,3.3314,3.216,3.2583,3.163,3.0568,3.0763,3.0763,3.0721,3.0716,3.0814,3.0898,3.0898,3.0898,3.0664,2.9922,3.0273,2.9922,2.7578,2.7812,2.8008,2.7109,0.0,2.793,2.9414,2.9726,2.9726,2.9609,2.9609,2.9297,2.8555,2.8359,2.8398,2.8632,2.9333,2.9489,2.8864,2.9452,3.0156,3.0898,3.0898,3.0898,3.0898,3.0898,3.0937,3.1133,3.1875,3.1797,3.1133,3.1875,3.1719,3.0898,3.0898,3.0898,3.0898,3.0898,3.0898,3.0898,3.0898,3.0898,3.0898,4.8196,4.8306,4.8306,4.8306,4.6985,4.614,4.6838,4.4966,4.3718,4.4415,4.3901,4.3497,4.3497,4.3497,4.3497,4.3497,4.3497,4.313,4.2286,4.1515,4.0708,3.9753,3.9056,3.8579,3.8322,3.7,3.5459,3.3807,3.3807,3.3807,3.3807,3.3807,3.3807,3.3807,3.3807,3.3807,3.3807,3.3807,3.3807,3.3807,3.3807,3.3807,3.3807,3.3807,3.3834,3.3928,3.4486,3.4733,3.4851,3.5339,3.5493,3.5493,3.5493,3.5493,3.5468,3.5353,3.4584,3.3545,3.2237,3.1265,3.0763,3.1508,3.1292,3.0857,3.0721,3.0814,3.0898,3.0898,3.0898,3.0859,3.0703,3.0195,2.9414,2.8281,2.8203,2.8008,2.7109,0.0,2.9297,2.957,3.0234,3.0391,2.9687,2.9609,2.9531,2.9414,2.8664,2.8842,3.0245,3.0399,3.072,3.1337,3.0923,3.0742,3.0898,3.0772,3.0772,3.0898,3.0772,3.1164,3.1992,3.2148,3.2148,3.1992,3.2148,3.1719,3.0898,3.0898,3.0898,3.0898,3.0898,3.0898,3.0898,3.0898,3.0898,3.0898,4.8159,4.8306,4.8306,4.8306,4.7352,4.6691,4.702,4.5443,4.4342,4.4856,4.4085,4.3497,4.3497,4.3497,4.3497,4.3497,4.3497,4.3314,4.2947,4.2176,4.1185,3.9937,3.9533,3.8726,3.7441,3.6229,3.5018,3.3807,3.3807,3.3807,3.3807,3.3807,3.3807,3.3807,3.3807,3.3807,3.3807,3.3807,3.3807,3.3807,3.3807,3.3807,3.3807,3.3807,3.3807,3.385,3.4464,3.4713,3.4793,3.5339,3.5493,3.5493,3.5493,3.5493,3.5493,3.5493,3.5238,3.4545,3.2814,3.2522,3.2681,3.2603,3.243,3.2109,3.1637,3.1561,3.1484,3.1016,3.0898,3.0898,3.0898,3.0586,3.0,2.9141,2.8984,0.0,0.0,2.9101,2.9766,3.0234,3.0664,3.0742,3.0351,3.0703,3.0975,3.0888,3.0914,3.1281,3.2021,3.2026,3.2163,3.259,3.1846,3.1445,3.1445,3.0919,3.0685,3.0746,3.0685,3.0898,3.1399,3.1867,3.1872,3.1523,3.1992,3.1953,3.1562,3.1094,3.1172,3.1562,3.1094,3.0898,3.0976,3.1445,3.1601,3.1641,4.8159,4.8306,4.8306,4.8306,4.7645,4.7168,4.7352,4.5847,4.4856,4.5223,4.4232,4.3497,4.3497,4.3497,4.3497,4.3497,4.3497,4.3497,4.3497,4.291,4.1846,4.023,3.9827,3.8652,3.6597,3.5752,3.4908,3.41,3.388,3.3807,3.3807,3.3807,3.3807,3.3807,3.3807,3.3807,3.3807,3.3807,3.3807,3.3807,3.3807,3.3807,3.3807,3.3807,3.3807,3.385,3.4464,3.4713,3.4793,3.5339,3.5493,3.5493,3.5493,3.5493,3.5493,3.5493,3.5493,3.5199,3.3891,3.3839,3.4082,3.3621,3.3445,3.3242,3.2617,3.2461,3.2226,3.1367,3.1211,3.1133,3.0937,3.0898,3.0625,2.9726,0.0,0.0,0.0,2.9766,3.0156,3.082,3.1094,3.1211,3.1211,3.1992,3.2419,3.2306,3.292,3.3317,3.3456,3.3433,3.3533,3.3727,3.2732,3.2208,3.2208,3.1495,3.1184,3.1203,3.0989,3.1143,3.1594,3.2065,3.2087,3.1795,3.2459,3.2655,3.2422,3.1758,3.1875,3.2383,3.1523,3.1328,3.1523,3.2031,3.2305,3.2578,4.8159,4.8306,4.8306,4.8306,4.7645,4.7352,4.8122,4.6214,4.4966,4.5736,4.4452,4.3497,4.3497,4.3497,4.3497,4.3497,4.3497,4.3497,4.3497,4.3424,4.269,4.1075,3.957,3.8358,3.7404,3.6597,3.5789,3.4917,3.4174,3.3807,3.3807,3.3807,3.3807,3.3807,3.3807,3.3807,3.3807,3.3807,3.3807,3.3807,3.3807,3.3807,3.3807,3.3807,3.3807,3.385,3.4464,3.4713,3.4793,3.5339,3.5493,3.5493,3.5493,3.5493,3.5493,3.5493,3.5493,3.5455,3.5353,3.4342,3.3466,3.4237,3.391,3.3398,3.332,3.332,3.3086,3.2266,3.2109,3.1875,3.1055,3.0898,3.0625,2.9726,0.0,0.0,2.9726,3.0312,3.082,3.0898,3.1601,3.2109,3.2109,3.2851,3.3278,3.3207,3.32,3.351,3.4197,3.4156,3.4507,3.5303,3.3886,3.3096,3.3096,3.2926,3.2887,3.2979,3.2128,3.2602,3.4205,3.3433,3.3556,3.4342,3.4381,3.4012,3.332,3.3242,3.3242,3.3242,3.2422,3.2578,3.3125,3.2461,3.2656,3.332,4.8159,4.8306,4.8306,4.8306,4.8049,4.7976,4.8269,4.7095,4.603,4.548,4.4268,4.3497,4.3497,4.3497,4.3497,4.3497,4.3497,4.3497,4.3497,4.3497,4.2983,4.1882,4.0304,3.9056,3.8248,3.7441,3.6376,3.499,3.466,3.4284,3.3807,3.3807,3.4064,3.4541,3.4027,3.4394,3.5275,3.4247,3.3807,3.3807,3.3807,3.3807,3.3807,3.3807,3.3807,3.385,3.4464,3.4713,3.4793,3.5339,3.5493,3.5493,3.5493,3.5493,3.5493,3.5493,3.5493,3.5493,3.5493,3.5116,3.4828,3.5178,3.5123,3.4883,3.4336,3.4219,3.3984,3.3125,3.293,3.2851,3.25,3.2031,3.1601,3.1289,0.0,3.0781,3.0469,3.1172,3.1719,3.1719,3.2422,3.293,3.293,3.3711,3.4177,3.4108,3.452,3.4863,3.5088,3.5058,3.5161,3.5493,3.4916,3.4356,3.3826,3.323,3.296,3.3014,3.2662,3.2859,3.3555,3.3244,3.3301,3.3735,3.3778,3.3919,3.4127,3.3592,3.3711,3.4101,3.3281,3.3125,3.3437,3.3672,3.3945,3.4297,4.8196,4.8306,4.8306,4.8306,4.8306,4.8306,4.8306,4.7645,4.6801,4.5847,4.4856,4.4158,4.3901,4.3864,4.3754,4.3497,4.3497,4.3497,4.3497,4.3497,4.313,4.2323,4.1001,3.99,3.9093,3.8285,3.7184,3.5789,3.5532,3.5128,3.4578,3.4578,3.4871,3.5385,3.4835,3.5202,3.6229,3.5055,3.4284,3.3844,3.4357,3.4468,3.4348,3.4344,3.4281,3.4255,3.4877,3.4902,3.4811,3.5512,3.5797,3.5853,3.5584,3.5493,3.5493,3.5493,3.5493,3.5493,3.5493,3.5781,3.6036,3.5755,3.5853,3.5818,3.5234,3.5117,3.4844,3.3984,3.3828,3.3711,3.3437,3.2969,3.2578,3.2578,3.207,3.168,3.168,3.2187,3.2578,3.2578,3.332,3.3828,3.3828,3.4609,3.5075,3.5006,3.5476,3.5716,3.5601,3.556,3.5493,3.5493,3.5493,3.5199,3.4622,3.4007,3.3737,3.3699,3.343,3.348,3.3766,3.3495,3.3568,3.3954,3.4008,3.4402,3.4967,3.4404,3.4569,3.5039,3.4139,3.3944,3.4258,3.457,3.4883,3.5195,4.8306,4.8306,4.8306,4.8306,4.8306,4.8306,4.8306,4.7645,4.7131,4.7131,4.6397,4.559,4.4782,4.4709,4.4378,4.3571,4.3497,4.3497,4.3497,4.3497,4.313,4.2323,4.1552,4.0744,3.9937,3.9129,3.8322,3.7507,3.6707,3.6303,3.6303,3.6303,3.6303,3.6303,3.6303,3.6303,3.6303,3.6303,3.5349,3.399,3.5642,3.5973,3.5515,3.5528,3.5314,3.5101,3.5702,3.5392,3.4904,3.5931,3.6479,3.6584,3.5776,3.5545,3.5545,3.5493,3.5493,3.5545,3.5493,3.6202,3.6706,3.5896,3.5821,3.5913,3.5976,3.6016,3.5742,3.4883,3.4726,3.4453,3.3594,3.3437,3.3398,3.3398,3.3398,3.3398,3.3398,3.3398,3.3398,3.3398,3.418,3.4726,3.4726,3.5508,3.5973,3.5907,3.5903,3.5811,3.5601,3.5521,3.5507,3.5507,3.5493,3.5493,3.5493,3.5493,3.5493,3.5493,3.4622,3.4661,3.5468,3.4584,3.4723,3.5601,3.5679,3.5772,3.5903,3.5903,3.5925,3.5898,3.4981,3.5183,3.5898,3.5039,3.5273,3.6016,4.8306,4.8306,4.8306,4.8306,4.8306,4.8306,4.8306,4.8122,4.7755,4.7205,4.6911,4.6214,4.4856,4.4709,4.4378,4.3571,4.3497,4.3497,4.3497,4.3497,4.3387,4.313,4.2359,4.1589,4.0781,3.9937,3.8872,3.7507,3.7257,3.6853,3.6303,3.6303,3.6597,3.711,3.656,3.6597,3.711,3.6927,3.7,3.7184,3.656,3.6413,3.6654,3.6931,3.6684,3.6273,3.6856,3.6939,3.6786,3.7316,3.7525,3.7584,3.7315,3.7238,3.7123,3.6507,3.6776,3.7123,3.6507,3.7011,3.7346,3.6029,3.6245,3.6612,3.6093,3.6016,3.6094,3.6445,3.6055,3.5703,3.6055,3.5156,3.4297,3.4297,3.3789,3.3398,3.3398,3.3945,3.4297,3.4297,3.5078,3.5625,3.5625,3.5859,3.625,3.6833,3.6855,3.6479,3.564,3.6168,3.6433,3.6353,3.6353,3.6353,3.6353,3.5776,3.5493,3.5507,3.5238,3.5238,3.5493,3.5238,3.529,3.5601,3.5679,3.5772,3.5903,3.5968,3.5975,3.5976,3.5701,3.5741,3.5976,3.5703,3.5781,3.6016,4.8306,4.8306,4.8306,4.8306,4.8306,4.8306,4.8306,4.8306,4.8122,4.7645,4.7572,4.7058,4.5663,4.548,4.4966,4.3608,4.3497,4.3497,4.3497,4.3497,4.3497,4.3497,4.302,4.2396,4.1589,4.0781,3.9753,3.8432,3.8138,3.7734,3.7257,3.7257,3.7514,3.7955,3.7477,3.7514,3.7955,3.7808,3.7918,3.8175,3.7514,3.7257,3.7316,3.7649,3.7555,3.7219,3.7726,3.7757,3.7695,3.8142,3.8162,3.8046,3.8392,3.8277,3.7892,3.7353,3.7584,3.7892,3.7353,3.7853,3.8194,3.6968,3.7131,3.7479,3.7058,3.6991,3.7187,3.7695,3.7383,3.7187,3.7734,3.6953,3.625,3.625,3.5781,3.5469,3.5469,3.5625,3.5742,3.5742,3.6172,3.6523,3.6523,3.6836,3.7266,3.7773,3.7721,3.7401,3.6759,3.7162,3.7378,3.7321,3.7242,3.7199,3.7199,3.6738,3.6161,3.5493,3.5493,3.5493,3.5507,3.5534,3.5543,3.5601,3.5723,3.5831,3.5903,3.5927,3.5974,3.6015,3.6364,3.6482,3.6562,3.6914,3.6797,3.6523,4.8306,4.8306,4.8306,4.8306,4.8306,4.8306,4.8306,4.8306,4.8306,4.8306,4.8306,4.7902,4.6838,4.6654,4.5773,4.3681,4.3497,4.3497,4.3497,4.3497,4.3497,4.3497,4.3497,4.3167,4.2433,4.1699,4.0855,3.99,3.9093,3.8689,3.8689,3.8689,3.8689,3.8689,3.8689,3.8652,3.8615,3.8689,3.8248,3.7551,3.8395,3.8248,3.7647,3.7914,3.8037,3.8103,3.8357,3.8209,3.7962,3.8689,3.864,3.8354,3.9161,3.8854,3.82,3.8123,3.8161,3.82,3.8123,3.8738,3.9244,3.8504,3.8423,3.8507,3.8424,3.8506,3.8633,3.8711,3.8633,3.8633,3.8711,3.8633,3.8594,3.8594,3.8594,3.8594,3.8594,3.793,3.7422,3.7422,3.7422,3.7422,3.7422,3.8203,3.8672,3.8594,3.8543,3.8486,3.8404,3.8354,3.8345,3.8324,3.8209,3.8099,3.8123,3.8046,3.7238,3.5738,3.5738,3.5738,3.5726,3.572,3.5718,3.5757,3.5933,3.5981,3.5907,3.5985,3.6044,3.6172,3.686,3.7216,3.75,3.8203,3.8047,3.7422,4.8306,4.8306,4.8306,4.8306,4.8306,4.8306,4.8306,4.8306,4.8306,4.8306,4.8306,4.7902,4.6838,4.6324,4.5369,4.3644,4.3497,4.3497,4.3497,4.3497,4.3497,4.3497,4.3497,4.3424,4.324,4.3057,4.1956,3.99,3.9093,3.8689,3.8689,3.8689,3.8689,3.8689,3.8689,3.8358,3.7808,3.8432,3.8248,3.7551,3.8395,3.8615,3.8462,3.8758,3.9002,3.927,3.9596,3.9775,3.9922,4.006,4.0053,3.9969,4.0162,4.0085,3.9815,3.92,3.9469,3.9815,3.92,3.9623,4.0215,4.0029,4.0106,3.9948,3.8697,3.8506,3.8789,3.9492,3.9062,3.8828,3.9492,3.9062,3.8594,3.8594,3.8594,3.8594,3.8594,3.8437,3.832,3.832,3.832,3.832,3.832,3.9101,3.9336,3.8633,3.9218,3.9213,3.8443,3.9004,3.9318,3.9138,3.9093,3.9084,3.9008,3.8354,3.7815,3.7469,3.7469,3.7513,3.7572,3.6936,3.6703,3.6845,3.691,3.6545,3.6014,3.6717,3.6991,3.6953,3.6444,3.7108,3.8242,3.7773,3.7891,3.832,4.8306,4.8306,4.8306,4.8306,4.8306,4.8306,4.8306,4.8306,4.8306,4.8306,4.8306,4.8086,4.7535,4.6764,4.5516,4.3644,4.4195,4.4305,4.3534,4.3864,4.3901,4.3497,4.3497,4.3497,4.3497,4.3497,4.2873,4.1625,3.9643,3.8982,3.946,3.8946,3.8689,3.8689,3.8689,3.8469,3.8102,3.8505,3.8689,3.8652,3.8689,3.8946,3.927,3.9003,3.909,3.9389,3.9534,3.9924,4.0339,4.0438,4.0508,4.0508,4.0508,4.0508,4.0431,4.0008,4.0162,4.0392,3.9969,4.0162,4.0585,4.1008,4.1261,4.1033,3.9812,3.9705,3.9961,4.043,4.0156,4.0117,4.0937,4.0703,4.0391,4.0391,4.0391,4.0273,3.9883,3.9492,3.9219,3.9219,3.9609,4.0156,4.0976,4.1445,4.1367,4.0469,4.0859,4.0702,3.9797,4.009,4.0287,4.0159,4.0082,4.001,3.9959,3.9534,3.9303,3.9303,3.8492,3.8164,3.8227,3.7802,3.7675,3.778,3.7836,3.7614,3.7226,3.7266,3.7305,3.7305,3.7266,3.7812,3.8633,3.9023,3.918,3.9141,4.8343,4.8306,4.8306,4.8306,4.8306,4.8343,4.8489,4.8416,4.8343,4.8489,4.8379,4.8306,4.8306,4.7021,4.5553,4.4048,4.5039,4.5259,4.4121,4.4452,4.4415,4.3718,4.3571,4.3497,4.3497,4.3497,4.3424,4.3277,4.0744,3.9827,4.0414,3.9606,3.9129,3.8909,3.8909,3.8836,3.8689,3.8689,3.9093,3.9643,3.8982,3.9093,3.9606,3.8946,3.8929,3.9303,3.9303,3.9811,4.054,4.0674,4.07,4.07,4.0546,4.0508,4.0508,4.0508,4.0508,4.0508,4.0508,4.0585,4.0893,4.1623,4.2005,4.2055,4.1371,4.1441,4.1601,4.1601,4.1641,4.1836,4.25,4.2617,4.2617,4.2617,4.2617,4.2383,4.1719,4.1016,4.0547,4.0547,4.1172,4.2187,4.3555,4.3711,4.3398,4.2695,4.2617,4.2344,4.1641,4.1513,4.1452,4.1445,4.1155,4.0964,4.0931,4.0931,4.0865,4.0731,3.9471,3.8835,3.876,3.8658,3.8642,3.8651,3.8787,3.875,3.8555,3.7969,3.7734,3.7812,3.8398,3.8789,3.9219,4.0664,4.0742,4.0039,4.8453,4.8306,4.8306,4.8306,4.8306,4.8563,4.9297,4.8783,4.8563,4.9334,4.8783,4.8306,4.8306,4.57,4.4378,4.548,4.5333,4.5516,4.6214,4.5296,4.4672,4.4562,4.3864,4.3497,4.3497,4.3497,4.3167,4.247,4.2727,4.2213,4.1001,4.1332,4.0855,3.9753,3.9753,3.935,3.8689,3.8689,3.8762,3.8836,3.8726,3.8762,3.8836,3.8726,3.9298,4.0133,4.0133,4.1017,4.2123,4.1733,4.1623,4.1508,4.0739,4.0508,4.0508,4.0508,4.0508,4.0508,4.0508,4.1046,4.1662,4.1777,4.2416,4.3063,4.3052,4.3156,4.3297,4.3358,4.3359,4.3398,4.3516,4.3516,4.3516,4.3516,4.3516,4.3476,4.3398,4.3242,4.3203,4.3203,4.3281,4.3437,4.3672,4.3711,4.3633,4.3516,4.3516,4.3476,4.3359,4.3359,4.3314,4.3244,4.2485,4.2019,4.1894,4.1894,4.1583,4.095,4.1501,4.1349,4.0617,3.9841,3.9591,3.9687,3.9726,3.9297,3.8633,3.9297,3.9531,3.9492,3.8867,3.9531,4.0898,4.1094,4.1133,4.1016,4.9077,4.8636,4.8306,4.8306,4.8306,4.8416,4.882,4.8563,4.8453,4.882,4.8526,4.8306,4.8306,4.7021,4.5993,4.548,4.6324,4.6581,4.5847,4.5516,4.4966,4.4085,4.3681,4.3497,4.3497,4.3497,4.3314,4.2947,4.2727,4.2543,4.2433,4.1772,4.1295,4.1001,4.0708,4.0377,4.001,3.957,3.9643,4.001,3.957,3.9643,4.0047,4.0047,4.0325,4.0799,4.1156,4.1719,4.2313,4.2466,4.2547,4.247,4.2085,4.1623,4.1316,4.1816,4.1623,4.1316,4.1816,4.2239,4.2624,4.3085,4.3497,4.3993,4.4667,4.4822,4.4655,4.3864,4.3711,4.3867,4.4336,4.4414,4.4414,4.4414,4.4414,4.4258,4.3789,4.3711,4.3867,4.4375,4.4414,4.4609,4.5117,4.5156,4.4961,4.4453,4.4414,4.4219,4.3711,4.3711,4.3671,4.3665,4.3258,4.2997,4.2927,4.2927,4.2515,4.1757,4.2642,4.2375,4.1086,4.0695,4.0582,4.0625,4.0625,4.0391,4.0039,3.9922,3.9883,3.9844,3.9492,4.0078,4.1211,4.1211,4.1211,4.1211]}]]